<?xml version="1.0" encoding="UTF-8" standalone="no" ?>
<gpx xmlns="http://www.topografix.com/GPX/1/1" xmlns:xsi="http://www.w3.org/2001/XMLSchema-instance" xsi:schemaLocation="http://www.topografix.com/GPX/1/1 http://www.topografix.com/GPX/1/1/gpx.xsd" version="1.1" creator="VisuGPX - https://www.visugpx.com">
  <metadata>
    <name>La route aux vaches</name>
    <desc><![CDATA[de magnifiques coins le long de ce gr.
des terrains plutôt corrects après cette quantité d\\\'eau tombée !!]]></desc>
  </metadata>
  <trk>
    <name><![CDATA[Saint-Léger-en-Yvelines Autre]]></name>
    <trkseg>
      <trkpt lat="48.70695" lon="1.75506">
        <ele>173</ele>
        <time>2015-04-01T08:41:15.000Z</time>
      </trkpt>
      <trkpt lat="48.70694" lon="1.75506">
        <ele>173</ele>
        <time>2015-04-01T08:41:18.000Z</time>
      </trkpt>
      <trkpt lat="48.707" lon="1.75489">
        <ele>173</ele>
        <time>2015-04-01T08:42:58.000Z</time>
      </trkpt>
      <trkpt lat="48.70705" lon="1.75478">
        <ele>173</ele>
        <time>2015-04-01T08:43:04.000Z</time>
      </trkpt>
      <trkpt lat="48.70712" lon="1.75464">
        <ele>173</ele>
        <time>2015-04-01T08:43:13.000Z</time>
      </trkpt>
      <trkpt lat="48.70715" lon="1.75458">
        <ele>173</ele>
        <time>2015-04-01T08:43:19.000Z</time>
      </trkpt>
      <trkpt lat="48.70718" lon="1.75448">
        <ele>173</ele>
        <time>2015-04-01T08:43:28.000Z</time>
      </trkpt>
      <trkpt lat="48.70718" lon="1.75447">
        <ele>173</ele>
        <time>2015-04-01T08:43:29.000Z</time>
      </trkpt>
      <trkpt lat="48.70721" lon="1.7544">
        <ele>173</ele>
        <time>2015-04-01T08:43:35.000Z</time>
      </trkpt>
      <trkpt lat="48.70724" lon="1.75433">
        <ele>173</ele>
        <time>2015-04-01T08:43:39.000Z</time>
      </trkpt>
      <trkpt lat="48.70729" lon="1.75423">
        <ele>173</ele>
        <time>2015-04-01T08:43:46.000Z</time>
      </trkpt>
      <trkpt lat="48.70735" lon="1.75409">
        <ele>173.2</ele>
        <time>2015-04-01T08:43:55.000Z</time>
      </trkpt>
      <trkpt lat="48.7074" lon="1.75397">
        <ele>173.3</ele>
        <time>2015-04-01T08:44:03.000Z</time>
      </trkpt>
      <trkpt lat="48.7074" lon="1.75395">
        <ele>173.3</ele>
        <time>2015-04-01T08:44:04.000Z</time>
      </trkpt>
      <trkpt lat="48.70742" lon="1.75389">
        <ele>173.3</ele>
        <time>2015-04-01T08:44:09.000Z</time>
      </trkpt>
      <trkpt lat="48.70743" lon="1.75388">
        <ele>173.3</ele>
        <time>2015-04-01T08:44:12.000Z</time>
      </trkpt>
      <trkpt lat="48.70747" lon="1.75375">
        <ele>173.6</ele>
        <time>2015-04-01T08:44:23.000Z</time>
      </trkpt>
      <trkpt lat="48.7075" lon="1.75366">
        <ele>173.8</ele>
        <time>2015-04-01T08:44:28.000Z</time>
      </trkpt>
      <trkpt lat="48.70754" lon="1.75356">
        <ele>174</ele>
        <time>2015-04-01T08:44:35.000Z</time>
      </trkpt>
      <trkpt lat="48.70758" lon="1.75348">
        <ele>174</ele>
        <time>2015-04-01T08:44:40.000Z</time>
      </trkpt>
      <trkpt lat="48.70762" lon="1.75337">
        <ele>174</ele>
        <time>2015-04-01T08:44:47.000Z</time>
      </trkpt>
      <trkpt lat="48.70769" lon="1.75321">
        <ele>174</ele>
        <time>2015-04-01T08:44:57.000Z</time>
      </trkpt>
      <trkpt lat="48.70773" lon="1.75311">
        <ele>174</ele>
        <time>2015-04-01T08:45:04.000Z</time>
      </trkpt>
      <trkpt lat="48.70776" lon="1.75303">
        <ele>174</ele>
        <time>2015-04-01T08:45:09.000Z</time>
      </trkpt>
      <trkpt lat="48.70779" lon="1.75295">
        <ele>174</ele>
        <time>2015-04-01T08:45:14.000Z</time>
      </trkpt>
      <trkpt lat="48.70785" lon="1.75281">
        <ele>174.2</ele>
        <time>2015-04-01T08:45:24.000Z</time>
      </trkpt>
      <trkpt lat="48.70789" lon="1.75269">
        <ele>174.4</ele>
        <time>2015-04-01T08:45:31.000Z</time>
      </trkpt>
      <trkpt lat="48.70789" lon="1.75268">
        <ele>174.4</ele>
        <time>2015-04-01T08:45:32.000Z</time>
      </trkpt>
      <trkpt lat="48.70791" lon="1.75262">
        <ele>174.5</ele>
        <time>2015-04-01T08:45:37.000Z</time>
      </trkpt>
      <trkpt lat="48.70794" lon="1.75259">
        <ele>174.6</ele>
        <time>2015-04-01T08:45:40.000Z</time>
      </trkpt>
      <trkpt lat="48.70797" lon="1.75252">
        <ele>174.7</ele>
        <time>2015-04-01T08:45:47.000Z</time>
      </trkpt>
      <trkpt lat="48.708" lon="1.75245">
        <ele>174.8</ele>
        <time>2015-04-01T08:45:52.000Z</time>
      </trkpt>
      <trkpt lat="48.70803" lon="1.75239">
        <ele>174.9</ele>
        <time>2015-04-01T08:45:56.000Z</time>
      </trkpt>
      <trkpt lat="48.70805" lon="1.75233">
        <ele>175</ele>
        <time>2015-04-01T08:46:00.000Z</time>
      </trkpt>
      <trkpt lat="48.70811" lon="1.75219">
        <ele>175</ele>
        <time>2015-04-01T08:46:09.000Z</time>
      </trkpt>
      <trkpt lat="48.70813" lon="1.75213">
        <ele>175</ele>
        <time>2015-04-01T08:46:13.000Z</time>
      </trkpt>
      <trkpt lat="48.70814" lon="1.75209">
        <ele>175</ele>
        <time>2015-04-01T08:46:17.000Z</time>
      </trkpt>
      <trkpt lat="48.70819" lon="1.75199">
        <ele>175</ele>
        <time>2015-04-01T08:46:25.000Z</time>
      </trkpt>
      <trkpt lat="48.70821" lon="1.75193">
        <ele>175</ele>
        <time>2015-04-01T08:46:31.000Z</time>
      </trkpt>
      <trkpt lat="48.70825" lon="1.75184">
        <ele>175</ele>
        <time>2015-04-01T08:46:38.000Z</time>
      </trkpt>
      <trkpt lat="48.70826" lon="1.75181">
        <ele>175</ele>
        <time>2015-04-01T08:46:42.000Z</time>
      </trkpt>
      <trkpt lat="48.70829" lon="1.75175">
        <ele>175</ele>
        <time>2015-04-01T08:46:46.000Z</time>
      </trkpt>
      <trkpt lat="48.70835" lon="1.75162">
        <ele>175</ele>
        <time>2015-04-01T08:46:54.000Z</time>
      </trkpt>
      <trkpt lat="48.70839" lon="1.75151">
        <ele>175</ele>
        <time>2015-04-01T08:47:01.000Z</time>
      </trkpt>
      <trkpt lat="48.70843" lon="1.75143">
        <ele>175</ele>
        <time>2015-04-01T08:47:07.000Z</time>
      </trkpt>
      <trkpt lat="48.70846" lon="1.75135">
        <ele>175</ele>
        <time>2015-04-01T08:47:13.000Z</time>
      </trkpt>
      <trkpt lat="48.7085" lon="1.75128">
        <ele>175</ele>
        <time>2015-04-01T08:47:18.000Z</time>
      </trkpt>
      <trkpt lat="48.70851" lon="1.75124">
        <ele>175</ele>
        <time>2015-04-01T08:47:21.000Z</time>
      </trkpt>
      <trkpt lat="48.70855" lon="1.75118">
        <ele>175</ele>
        <time>2015-04-01T08:47:26.000Z</time>
      </trkpt>
      <trkpt lat="48.70859" lon="1.7511">
        <ele>175</ele>
        <time>2015-04-01T08:47:32.000Z</time>
      </trkpt>
      <trkpt lat="48.70863" lon="1.75099">
        <ele>175</ele>
        <time>2015-04-01T08:47:39.000Z</time>
      </trkpt>
      <trkpt lat="48.70866" lon="1.75091">
        <ele>175</ele>
        <time>2015-04-01T08:47:44.000Z</time>
      </trkpt>
      <trkpt lat="48.70868" lon="1.75086">
        <ele>175</ele>
        <time>2015-04-01T08:47:47.000Z</time>
      </trkpt>
      <trkpt lat="48.70871" lon="1.75079">
        <ele>175</ele>
        <time>2015-04-01T08:47:52.000Z</time>
      </trkpt>
      <trkpt lat="48.70875" lon="1.7507">
        <ele>175</ele>
        <time>2015-04-01T08:47:58.000Z</time>
      </trkpt>
      <trkpt lat="48.70878" lon="1.75066">
        <ele>175</ele>
        <time>2015-04-01T08:48:01.000Z</time>
      </trkpt>
      <trkpt lat="48.70883" lon="1.75056">
        <ele>175</ele>
        <time>2015-04-01T08:48:08.000Z</time>
      </trkpt>
      <trkpt lat="48.70885" lon="1.75052">
        <ele>175</ele>
        <time>2015-04-01T08:48:11.000Z</time>
      </trkpt>
      <trkpt lat="48.70891" lon="1.75041">
        <ele>175</ele>
        <time>2015-04-01T08:48:19.000Z</time>
      </trkpt>
      <trkpt lat="48.70892" lon="1.7504">
        <ele>175.1</ele>
        <time>2015-04-01T08:48:20.000Z</time>
      </trkpt>
      <trkpt lat="48.70895" lon="1.7503">
        <ele>175.2</ele>
        <time>2015-04-01T08:48:27.000Z</time>
      </trkpt>
      <trkpt lat="48.70899" lon="1.75024">
        <ele>175.3</ele>
        <time>2015-04-01T08:48:32.000Z</time>
      </trkpt>
      <trkpt lat="48.70902" lon="1.75016">
        <ele>175.3</ele>
        <time>2015-04-01T08:48:38.000Z</time>
      </trkpt>
      <trkpt lat="48.70904" lon="1.75009">
        <ele>175.2</ele>
        <time>2015-04-01T08:48:44.000Z</time>
      </trkpt>
      <trkpt lat="48.70904" lon="1.75008">
        <ele>175.1</ele>
        <time>2015-04-01T08:48:47.000Z</time>
      </trkpt>
      <trkpt lat="48.70909" lon="1.74998">
        <ele>175</ele>
        <time>2015-04-01T08:48:57.000Z</time>
      </trkpt>
      <trkpt lat="48.70914" lon="1.74989">
        <ele>175</ele>
        <time>2015-04-01T08:49:03.000Z</time>
      </trkpt>
      <trkpt lat="48.70916" lon="1.74985">
        <ele>175</ele>
        <time>2015-04-01T08:49:08.000Z</time>
      </trkpt>
      <trkpt lat="48.70921" lon="1.74978">
        <ele>175.2</ele>
        <time>2015-04-01T08:49:21.000Z</time>
      </trkpt>
      <trkpt lat="48.70928" lon="1.74967">
        <ele>175.5</ele>
        <time>2015-04-01T08:49:28.000Z</time>
      </trkpt>
      <trkpt lat="48.7093" lon="1.74966">
        <ele>175.6</ele>
        <time>2015-04-01T08:49:29.000Z</time>
      </trkpt>
      <trkpt lat="48.70933" lon="1.74961">
        <ele>175.8</ele>
        <time>2015-04-01T08:49:33.000Z</time>
      </trkpt>
      <trkpt lat="48.7094" lon="1.74951">
        <ele>176</ele>
        <time>2015-04-01T08:49:41.000Z</time>
      </trkpt>
      <trkpt lat="48.70941" lon="1.74947">
        <ele>176</ele>
        <time>2015-04-01T08:49:44.000Z</time>
      </trkpt>
      <trkpt lat="48.70947" lon="1.74936">
        <ele>176</ele>
        <time>2015-04-01T08:49:53.000Z</time>
      </trkpt>
      <trkpt lat="48.70953" lon="1.74929">
        <ele>176</ele>
        <time>2015-04-01T08:50:00.000Z</time>
      </trkpt>
      <trkpt lat="48.70963" lon="1.74915">
        <ele>176</ele>
        <time>2015-04-01T08:50:11.000Z</time>
      </trkpt>
      <trkpt lat="48.70971" lon="1.74906">
        <ele>176</ele>
        <time>2015-04-01T08:50:19.000Z</time>
      </trkpt>
      <trkpt lat="48.70976" lon="1.74896">
        <ele>176</ele>
        <time>2015-04-01T08:50:26.000Z</time>
      </trkpt>
      <trkpt lat="48.70986" lon="1.74886">
        <ele>176</ele>
        <time>2015-04-01T08:50:35.000Z</time>
      </trkpt>
      <trkpt lat="48.70994" lon="1.74875">
        <ele>176</ele>
        <time>2015-04-01T08:50:43.000Z</time>
      </trkpt>
      <trkpt lat="48.71001" lon="1.74868">
        <ele>176</ele>
        <time>2015-04-01T08:50:49.000Z</time>
      </trkpt>
      <trkpt lat="48.71005" lon="1.74859">
        <ele>176</ele>
        <time>2015-04-01T08:50:54.000Z</time>
      </trkpt>
      <trkpt lat="48.71009" lon="1.74856">
        <ele>176</ele>
        <time>2015-04-01T08:50:59.000Z</time>
      </trkpt>
      <trkpt lat="48.71012" lon="1.74853">
        <ele>176</ele>
        <time>2015-04-01T08:51:02.000Z</time>
      </trkpt>
      <trkpt lat="48.71014" lon="1.7485">
        <ele>176</ele>
        <time>2015-04-01T08:51:04.000Z</time>
      </trkpt>
      <trkpt lat="48.71022" lon="1.7485">
        <ele>176</ele>
        <time>2015-04-01T08:51:10.000Z</time>
      </trkpt>
      <trkpt lat="48.71026" lon="1.74857">
        <ele>176</ele>
        <time>2015-04-01T08:51:16.000Z</time>
      </trkpt>
      <trkpt lat="48.71033" lon="1.74864">
        <ele>176</ele>
        <time>2015-04-01T08:51:23.000Z</time>
      </trkpt>
      <trkpt lat="48.71037" lon="1.74868">
        <ele>176</ele>
        <time>2015-04-01T08:51:27.000Z</time>
      </trkpt>
      <trkpt lat="48.7104" lon="1.74872">
        <ele>176</ele>
        <time>2015-04-01T08:51:30.000Z</time>
      </trkpt>
      <trkpt lat="48.71045" lon="1.74878">
        <ele>176</ele>
        <time>2015-04-01T08:51:35.000Z</time>
      </trkpt>
      <trkpt lat="48.7105" lon="1.74885">
        <ele>176</ele>
        <time>2015-04-01T08:51:40.000Z</time>
      </trkpt>
      <trkpt lat="48.71059" lon="1.74898">
        <ele>176</ele>
        <time>2015-04-01T08:51:49.000Z</time>
      </trkpt>
      <trkpt lat="48.71061" lon="1.74901">
        <ele>176</ele>
        <time>2015-04-01T08:51:51.000Z</time>
      </trkpt>
      <trkpt lat="48.7107" lon="1.74912">
        <ele>176</ele>
        <time>2015-04-01T08:51:59.000Z</time>
      </trkpt>
      <trkpt lat="48.71078" lon="1.74919">
        <ele>176</ele>
        <time>2015-04-01T08:52:07.000Z</time>
      </trkpt>
      <trkpt lat="48.71078" lon="1.7492">
        <ele>176</ele>
        <time>2015-04-01T08:52:08.000Z</time>
      </trkpt>
      <trkpt lat="48.71082" lon="1.74925">
        <ele>176</ele>
        <time>2015-04-01T08:52:14.000Z</time>
      </trkpt>
      <trkpt lat="48.71083" lon="1.74927">
        <ele>176</ele>
        <time>2015-04-01T08:52:15.000Z</time>
      </trkpt>
      <trkpt lat="48.71092" lon="1.74937">
        <ele>176</ele>
        <time>2015-04-01T08:52:22.000Z</time>
      </trkpt>
      <trkpt lat="48.71098" lon="1.74942">
        <ele>176</ele>
        <time>2015-04-01T08:52:29.000Z</time>
      </trkpt>
      <trkpt lat="48.71104" lon="1.74952">
        <ele>176</ele>
        <time>2015-04-01T08:52:35.000Z</time>
      </trkpt>
      <trkpt lat="48.71114" lon="1.74962">
        <ele>176</ele>
        <time>2015-04-01T08:52:43.000Z</time>
      </trkpt>
      <trkpt lat="48.7112" lon="1.7497">
        <ele>176</ele>
        <time>2015-04-01T08:52:49.000Z</time>
      </trkpt>
      <trkpt lat="48.7112" lon="1.7497">
        <ele>176</ele>
        <time>2015-04-01T08:52:51.000Z</time>
      </trkpt>
      <trkpt lat="48.71124" lon="1.74976">
        <ele>175.9</ele>
        <time>2015-04-01T08:53:51.000Z</time>
      </trkpt>
      <trkpt lat="48.7113" lon="1.74985">
        <ele>175.7</ele>
        <time>2015-04-01T08:53:57.000Z</time>
      </trkpt>
      <trkpt lat="48.71139" lon="1.74997">
        <ele>175.1</ele>
        <time>2015-04-01T08:54:06.000Z</time>
      </trkpt>
      <trkpt lat="48.71145" lon="1.75005">
        <ele>175.1</ele>
        <time>2015-04-01T08:54:12.000Z</time>
      </trkpt>
      <trkpt lat="48.71152" lon="1.75013">
        <ele>175.2</ele>
        <time>2015-04-01T08:54:19.000Z</time>
      </trkpt>
      <trkpt lat="48.71156" lon="1.75019">
        <ele>175.3</ele>
        <time>2015-04-01T08:54:24.000Z</time>
      </trkpt>
      <trkpt lat="48.71159" lon="1.75023">
        <ele>175.2</ele>
        <time>2015-04-01T08:54:27.000Z</time>
      </trkpt>
      <trkpt lat="48.71166" lon="1.75029">
        <ele>175.1</ele>
        <time>2015-04-01T08:54:33.000Z</time>
      </trkpt>
      <trkpt lat="48.7117" lon="1.75034">
        <ele>175.2</ele>
        <time>2015-04-01T08:54:39.000Z</time>
      </trkpt>
      <trkpt lat="48.71171" lon="1.75035">
        <ele>175.2</ele>
        <time>2015-04-01T08:54:40.000Z</time>
      </trkpt>
      <trkpt lat="48.71182" lon="1.75047">
        <ele>175.3</ele>
        <time>2015-04-01T08:54:50.000Z</time>
      </trkpt>
      <trkpt lat="48.71185" lon="1.75053">
        <ele>175.3</ele>
        <time>2015-04-01T08:54:54.000Z</time>
      </trkpt>
      <trkpt lat="48.71191" lon="1.7506">
        <ele>175.2</ele>
        <time>2015-04-01T08:55:00.000Z</time>
      </trkpt>
      <trkpt lat="48.71195" lon="1.75065">
        <ele>175.3</ele>
        <time>2015-04-01T08:55:04.000Z</time>
      </trkpt>
      <trkpt lat="48.71203" lon="1.75073">
        <ele>175.4</ele>
        <time>2015-04-01T08:55:11.000Z</time>
      </trkpt>
      <trkpt lat="48.71206" lon="1.75077">
        <ele>175.5</ele>
        <time>2015-04-01T08:55:14.000Z</time>
      </trkpt>
      <trkpt lat="48.71216" lon="1.75089">
        <ele>175.4</ele>
        <time>2015-04-01T08:55:25.000Z</time>
      </trkpt>
      <trkpt lat="48.71222" lon="1.75098">
        <ele>175.5</ele>
        <time>2015-04-01T08:55:32.000Z</time>
      </trkpt>
      <trkpt lat="48.71231" lon="1.75107">
        <ele>175.9</ele>
        <time>2015-04-01T08:55:41.000Z</time>
      </trkpt>
      <trkpt lat="48.71238" lon="1.75116">
        <ele>176</ele>
        <time>2015-04-01T08:55:48.000Z</time>
      </trkpt>
      <trkpt lat="48.71245" lon="1.75124">
        <ele>176</ele>
        <time>2015-04-01T08:55:55.000Z</time>
      </trkpt>
      <trkpt lat="48.7125" lon="1.75127">
        <ele>176</ele>
        <time>2015-04-01T08:55:59.000Z</time>
      </trkpt>
      <trkpt lat="48.71261" lon="1.75138">
        <ele>176</ele>
        <time>2015-04-01T08:56:09.000Z</time>
      </trkpt>
      <trkpt lat="48.71274" lon="1.7515">
        <ele>176</ele>
        <time>2015-04-01T08:56:20.000Z</time>
      </trkpt>
      <trkpt lat="48.71282" lon="1.75157">
        <ele>176</ele>
        <time>2015-04-01T08:56:27.000Z</time>
      </trkpt>
      <trkpt lat="48.71292" lon="1.75168">
        <ele>176</ele>
        <time>2015-04-01T08:56:36.000Z</time>
      </trkpt>
      <trkpt lat="48.71301" lon="1.75176">
        <ele>176</ele>
        <time>2015-04-01T08:56:43.000Z</time>
      </trkpt>
      <trkpt lat="48.71308" lon="1.75183">
        <ele>176</ele>
        <time>2015-04-01T08:56:50.000Z</time>
      </trkpt>
      <trkpt lat="48.7131" lon="1.75184">
        <ele>176</ele>
        <time>2015-04-01T08:56:52.000Z</time>
      </trkpt>
      <trkpt lat="48.71318" lon="1.75191">
        <ele>176</ele>
        <time>2015-04-01T08:56:59.000Z</time>
      </trkpt>
      <trkpt lat="48.71325" lon="1.75198">
        <ele>176</ele>
        <time>2015-04-01T08:57:07.000Z</time>
      </trkpt>
      <trkpt lat="48.71334" lon="1.75205">
        <ele>176</ele>
        <time>2015-04-01T08:57:15.000Z</time>
      </trkpt>
      <trkpt lat="48.71341" lon="1.75211">
        <ele>176</ele>
        <time>2015-04-01T08:57:21.000Z</time>
      </trkpt>
      <trkpt lat="48.71347" lon="1.75216">
        <ele>176</ele>
        <time>2015-04-01T08:57:27.000Z</time>
      </trkpt>
      <trkpt lat="48.71353" lon="1.75224">
        <ele>176</ele>
        <time>2015-04-01T08:57:35.000Z</time>
      </trkpt>
      <trkpt lat="48.71363" lon="1.75232">
        <ele>176</ele>
        <time>2015-04-01T08:57:44.000Z</time>
      </trkpt>
      <trkpt lat="48.71371" lon="1.75239">
        <ele>175.8</ele>
        <time>2015-04-01T08:57:52.000Z</time>
      </trkpt>
      <trkpt lat="48.71379" lon="1.75246">
        <ele>175.5</ele>
        <time>2015-04-01T08:57:59.000Z</time>
      </trkpt>
      <trkpt lat="48.71381" lon="1.75247">
        <ele>175.3</ele>
        <time>2015-04-01T08:58:01.000Z</time>
      </trkpt>
      <trkpt lat="48.71387" lon="1.75245">
        <ele>175.2</ele>
        <time>2015-04-01T08:58:06.000Z</time>
      </trkpt>
      <trkpt lat="48.7139" lon="1.7524">
        <ele>175.3</ele>
        <time>2015-04-01T08:58:12.000Z</time>
      </trkpt>
      <trkpt lat="48.71387" lon="1.75235">
        <ele>175.6</ele>
        <time>2015-04-01T08:58:17.000Z</time>
      </trkpt>
      <trkpt lat="48.71386" lon="1.75234">
        <ele>175.6</ele>
        <time>2015-04-01T08:58:18.000Z</time>
      </trkpt>
      <trkpt lat="48.71381" lon="1.75224">
        <ele>176</ele>
        <time>2015-04-01T08:58:24.000Z</time>
      </trkpt>
      <trkpt lat="48.71379" lon="1.75216">
        <ele>176</ele>
        <time>2015-04-01T08:58:30.000Z</time>
      </trkpt>
      <trkpt lat="48.71373" lon="1.75199">
        <ele>176</ele>
        <time>2015-04-01T08:58:40.000Z</time>
      </trkpt>
      <trkpt lat="48.71371" lon="1.7519">
        <ele>176</ele>
        <time>2015-04-01T08:58:47.000Z</time>
      </trkpt>
      <trkpt lat="48.71364" lon="1.75179">
        <ele>176</ele>
        <time>2015-04-01T08:58:55.000Z</time>
      </trkpt>
      <trkpt lat="48.71359" lon="1.75165">
        <ele>176</ele>
        <time>2015-04-01T08:59:02.000Z</time>
      </trkpt>
      <trkpt lat="48.71359" lon="1.75164">
        <ele>176</ele>
        <time>2015-04-01T08:59:03.000Z</time>
      </trkpt>
      <trkpt lat="48.71356" lon="1.75153">
        <ele>176</ele>
        <time>2015-04-01T08:59:10.000Z</time>
      </trkpt>
      <trkpt lat="48.71353" lon="1.75144">
        <ele>176</ele>
        <time>2015-04-01T08:59:16.000Z</time>
      </trkpt>
      <trkpt lat="48.71349" lon="1.75134">
        <ele>176</ele>
        <time>2015-04-01T08:59:23.000Z</time>
      </trkpt>
      <trkpt lat="48.71344" lon="1.75121">
        <ele>176</ele>
        <time>2015-04-01T08:59:31.000Z</time>
      </trkpt>
      <trkpt lat="48.71342" lon="1.75117">
        <ele>176</ele>
        <time>2015-04-01T08:59:34.000Z</time>
      </trkpt>
      <trkpt lat="48.71338" lon="1.75104">
        <ele>176</ele>
        <time>2015-04-01T08:59:42.000Z</time>
      </trkpt>
      <trkpt lat="48.71337" lon="1.75102">
        <ele>176</ele>
        <time>2015-04-01T08:59:43.000Z</time>
      </trkpt>
      <trkpt lat="48.71332" lon="1.75088">
        <ele>176</ele>
        <time>2015-04-01T08:59:52.000Z</time>
      </trkpt>
      <trkpt lat="48.71327" lon="1.7507">
        <ele>176</ele>
        <time>2015-04-01T09:00:01.000Z</time>
      </trkpt>
      <trkpt lat="48.71325" lon="1.7506">
        <ele>176</ele>
        <time>2015-04-01T09:00:08.000Z</time>
      </trkpt>
      <trkpt lat="48.71322" lon="1.75046">
        <ele>176</ele>
        <time>2015-04-01T09:00:16.000Z</time>
      </trkpt>
      <trkpt lat="48.71319" lon="1.75037">
        <ele>176</ele>
        <time>2015-04-01T09:00:20.000Z</time>
      </trkpt>
      <trkpt lat="48.71316" lon="1.75023">
        <ele>175.8</ele>
        <time>2015-04-01T09:00:27.000Z</time>
      </trkpt>
      <trkpt lat="48.71315" lon="1.75021">
        <ele>175.7</ele>
        <time>2015-04-01T09:00:28.000Z</time>
      </trkpt>
      <trkpt lat="48.71313" lon="1.75005">
        <ele>175.2</ele>
        <time>2015-04-01T09:00:37.000Z</time>
      </trkpt>
      <trkpt lat="48.71311" lon="1.74991">
        <ele>174.7</ele>
        <time>2015-04-01T09:00:47.000Z</time>
      </trkpt>
      <trkpt lat="48.7131" lon="1.74987">
        <ele>174.6</ele>
        <time>2015-04-01T09:00:51.000Z</time>
      </trkpt>
      <trkpt lat="48.71308" lon="1.74959">
        <ele>173.6</ele>
        <time>2015-04-01T09:01:24.000Z</time>
      </trkpt>
      <trkpt lat="48.71309" lon="1.74955">
        <ele>173.5</ele>
        <time>2015-04-01T09:01:27.000Z</time>
      </trkpt>
      <trkpt lat="48.71308" lon="1.74944">
        <ele>173.1</ele>
        <time>2015-04-01T09:01:41.000Z</time>
      </trkpt>
      <trkpt lat="48.71309" lon="1.74938">
        <ele>173</ele>
        <time>2015-04-01T09:01:44.000Z</time>
      </trkpt>
      <trkpt lat="48.71309" lon="1.74932">
        <ele>172.9</ele>
        <time>2015-04-01T09:01:47.000Z</time>
      </trkpt>
      <trkpt lat="48.71309" lon="1.74924">
        <ele>172.7</ele>
        <time>2015-04-01T09:01:52.000Z</time>
      </trkpt>
      <trkpt lat="48.71309" lon="1.74919">
        <ele>172.6</ele>
        <time>2015-04-01T09:01:55.000Z</time>
      </trkpt>
      <trkpt lat="48.71309" lon="1.74915">
        <ele>172.5</ele>
        <time>2015-04-01T09:01:57.000Z</time>
      </trkpt>
      <trkpt lat="48.7131" lon="1.74907">
        <ele>172.3</ele>
        <time>2015-04-01T09:02:02.000Z</time>
      </trkpt>
      <trkpt lat="48.71312" lon="1.74902">
        <ele>172.1</ele>
        <time>2015-04-01T09:02:06.000Z</time>
      </trkpt>
      <trkpt lat="48.71313" lon="1.7489">
        <ele>172</ele>
        <time>2015-04-01T09:02:14.000Z</time>
      </trkpt>
      <trkpt lat="48.71312" lon="1.74877">
        <ele>172.8</ele>
        <time>2015-04-01T09:02:20.000Z</time>
      </trkpt>
      <trkpt lat="48.71311" lon="1.7487">
        <ele>173.3</ele>
        <time>2015-04-01T09:02:26.000Z</time>
      </trkpt>
      <trkpt lat="48.71311" lon="1.7487">
        <ele>173.3</ele>
        <time>2015-04-01T09:02:27.000Z</time>
      </trkpt>
      <trkpt lat="48.71312" lon="1.74846">
        <ele>173.8</ele>
        <time>2015-04-01T09:04:53.000Z</time>
      </trkpt>
      <trkpt lat="48.71313" lon="1.74841">
        <ele>173.7</ele>
        <time>2015-04-01T09:04:55.000Z</time>
      </trkpt>
      <trkpt lat="48.71313" lon="1.74832">
        <ele>173.7</ele>
        <time>2015-04-01T09:05:01.000Z</time>
      </trkpt>
      <trkpt lat="48.71313" lon="1.7483">
        <ele>173.8</ele>
        <time>2015-04-01T09:05:02.000Z</time>
      </trkpt>
      <trkpt lat="48.71312" lon="1.74814">
        <ele>173.9</ele>
        <time>2015-04-01T09:05:09.000Z</time>
      </trkpt>
      <trkpt lat="48.71314" lon="1.74805">
        <ele>174</ele>
        <time>2015-04-01T09:05:15.000Z</time>
      </trkpt>
      <trkpt lat="48.71314" lon="1.74797">
        <ele>174.3</ele>
        <time>2015-04-01T09:05:19.000Z</time>
      </trkpt>
      <trkpt lat="48.71314" lon="1.74784">
        <ele>174.8</ele>
        <time>2015-04-01T09:05:25.000Z</time>
      </trkpt>
      <trkpt lat="48.71314" lon="1.74782">
        <ele>174.8</ele>
        <time>2015-04-01T09:05:26.000Z</time>
      </trkpt>
      <trkpt lat="48.71314" lon="1.7477">
        <ele>175</ele>
        <time>2015-04-01T09:05:33.000Z</time>
      </trkpt>
      <trkpt lat="48.71313" lon="1.74768">
        <ele>175</ele>
        <time>2015-04-01T09:05:34.000Z</time>
      </trkpt>
      <trkpt lat="48.71311" lon="1.74756">
        <ele>175</ele>
        <time>2015-04-01T09:05:40.000Z</time>
      </trkpt>
      <trkpt lat="48.71313" lon="1.74745">
        <ele>175</ele>
        <time>2015-04-01T09:05:45.000Z</time>
      </trkpt>
      <trkpt lat="48.71316" lon="1.74732">
        <ele>175</ele>
        <time>2015-04-01T09:05:52.000Z</time>
      </trkpt>
      <trkpt lat="48.71316" lon="1.7472">
        <ele>175.1</ele>
        <time>2015-04-01T09:05:57.000Z</time>
      </trkpt>
      <trkpt lat="48.71317" lon="1.74715">
        <ele>175.3</ele>
        <time>2015-04-01T09:06:00.000Z</time>
      </trkpt>
      <trkpt lat="48.71318" lon="1.74712">
        <ele>175.4</ele>
        <time>2015-04-01T09:06:02.000Z</time>
      </trkpt>
      <trkpt lat="48.71319" lon="1.74702">
        <ele>175.7</ele>
        <time>2015-04-01T09:06:07.000Z</time>
      </trkpt>
      <trkpt lat="48.71319" lon="1.74697">
        <ele>175.9</ele>
        <time>2015-04-01T09:06:10.000Z</time>
      </trkpt>
      <trkpt lat="48.7132" lon="1.7469">
        <ele>176</ele>
        <time>2015-04-01T09:06:14.000Z</time>
      </trkpt>
      <trkpt lat="48.71321" lon="1.74678">
        <ele>176</ele>
        <time>2015-04-01T09:06:21.000Z</time>
      </trkpt>
      <trkpt lat="48.71322" lon="1.74665">
        <ele>176</ele>
        <time>2015-04-01T09:06:27.000Z</time>
      </trkpt>
      <trkpt lat="48.71322" lon="1.74655">
        <ele>175.8</ele>
        <time>2015-04-01T09:06:31.000Z</time>
      </trkpt>
      <trkpt lat="48.71322" lon="1.74637">
        <ele>175.4</ele>
        <time>2015-04-01T09:06:38.000Z</time>
      </trkpt>
      <trkpt lat="48.71321" lon="1.7463">
        <ele>175.3</ele>
        <time>2015-04-01T09:06:40.000Z</time>
      </trkpt>
      <trkpt lat="48.71322" lon="1.74617">
        <ele>175.1</ele>
        <time>2015-04-01T09:06:47.000Z</time>
      </trkpt>
      <trkpt lat="48.71317" lon="1.74598">
        <ele>174.8</ele>
        <time>2015-04-01T09:06:52.000Z</time>
      </trkpt>
      <trkpt lat="48.71316" lon="1.74584">
        <ele>174.6</ele>
        <time>2015-04-01T09:06:57.000Z</time>
      </trkpt>
      <trkpt lat="48.71315" lon="1.74578">
        <ele>174.6</ele>
        <time>2015-04-01T09:07:00.000Z</time>
      </trkpt>
      <trkpt lat="48.71315" lon="1.7457">
        <ele>174.5</ele>
        <time>2015-04-01T09:07:04.000Z</time>
      </trkpt>
      <trkpt lat="48.71314" lon="1.74552">
        <ele>174.3</ele>
        <time>2015-04-01T09:07:12.000Z</time>
      </trkpt>
      <trkpt lat="48.71314" lon="1.74536">
        <ele>173.7</ele>
        <time>2015-04-01T09:07:18.000Z</time>
      </trkpt>
      <trkpt lat="48.7131" lon="1.74519">
        <ele>173.3</ele>
        <time>2015-04-01T09:07:23.000Z</time>
      </trkpt>
      <trkpt lat="48.71304" lon="1.74499">
        <ele>173</ele>
        <time>2015-04-01T09:07:30.000Z</time>
      </trkpt>
      <trkpt lat="48.71304" lon="1.74496">
        <ele>172.8</ele>
        <time>2015-04-01T09:07:31.000Z</time>
      </trkpt>
      <trkpt lat="48.71303" lon="1.74491">
        <ele>172.6</ele>
        <time>2015-04-01T09:07:35.000Z</time>
      </trkpt>
      <trkpt lat="48.71303" lon="1.7449">
        <ele>172.5</ele>
        <time>2015-04-01T09:07:38.000Z</time>
      </trkpt>
      <trkpt lat="48.713" lon="1.74485">
        <ele>172.4</ele>
        <time>2015-04-01T09:07:45.000Z</time>
      </trkpt>
      <trkpt lat="48.71295" lon="1.74473">
        <ele>172.2</ele>
        <time>2015-04-01T09:07:50.000Z</time>
      </trkpt>
      <trkpt lat="48.71291" lon="1.74457">
        <ele>171.8</ele>
        <time>2015-04-01T09:07:58.000Z</time>
      </trkpt>
      <trkpt lat="48.71287" lon="1.74444">
        <ele>171.6</ele>
        <time>2015-04-01T09:08:03.000Z</time>
      </trkpt>
      <trkpt lat="48.71282" lon="1.74433">
        <ele>171.8</ele>
        <time>2015-04-01T09:08:08.000Z</time>
      </trkpt>
      <trkpt lat="48.71275" lon="1.74418">
        <ele>172.2</ele>
        <time>2015-04-01T09:08:15.000Z</time>
      </trkpt>
      <trkpt lat="48.71271" lon="1.74406">
        <ele>171.8</ele>
        <time>2015-04-01T09:08:21.000Z</time>
      </trkpt>
      <trkpt lat="48.71263" lon="1.74395">
        <ele>171.9</ele>
        <time>2015-04-01T09:08:28.000Z</time>
      </trkpt>
      <trkpt lat="48.71256" lon="1.74386">
        <ele>172.2</ele>
        <time>2015-04-01T09:08:34.000Z</time>
      </trkpt>
      <trkpt lat="48.71251" lon="1.74376">
        <ele>172.4</ele>
        <time>2015-04-01T09:08:39.000Z</time>
      </trkpt>
      <trkpt lat="48.71246" lon="1.74365">
        <ele>172.4</ele>
        <time>2015-04-01T09:08:46.000Z</time>
      </trkpt>
      <trkpt lat="48.71244" lon="1.74361">
        <ele>172.4</ele>
        <time>2015-04-01T09:08:49.000Z</time>
      </trkpt>
      <trkpt lat="48.71237" lon="1.74348">
        <ele>172.7</ele>
        <time>2015-04-01T09:08:55.000Z</time>
      </trkpt>
      <trkpt lat="48.71231" lon="1.74336">
        <ele>173.1</ele>
        <time>2015-04-01T09:09:02.000Z</time>
      </trkpt>
      <trkpt lat="48.71225" lon="1.74325">
        <ele>173.3</ele>
        <time>2015-04-01T09:09:08.000Z</time>
      </trkpt>
      <trkpt lat="48.71218" lon="1.74305">
        <ele>173.3</ele>
        <time>2015-04-01T09:09:17.000Z</time>
      </trkpt>
      <trkpt lat="48.71213" lon="1.74294">
        <ele>173.3</ele>
        <time>2015-04-01T09:09:23.000Z</time>
      </trkpt>
      <trkpt lat="48.71213" lon="1.74292">
        <ele>173.2</ele>
        <time>2015-04-01T09:09:24.000Z</time>
      </trkpt>
      <trkpt lat="48.7121" lon="1.74279">
        <ele>172.9</ele>
        <time>2015-04-01T09:09:29.000Z</time>
      </trkpt>
      <trkpt lat="48.71206" lon="1.74271">
        <ele>172.9</ele>
        <time>2015-04-01T09:09:32.000Z</time>
      </trkpt>
      <trkpt lat="48.71198" lon="1.7426">
        <ele>173.5</ele>
        <time>2015-04-01T09:09:39.000Z</time>
      </trkpt>
      <trkpt lat="48.71191" lon="1.74245">
        <ele>173.7</ele>
        <time>2015-04-01T09:09:47.000Z</time>
      </trkpt>
      <trkpt lat="48.7119" lon="1.74243">
        <ele>173.7</ele>
        <time>2015-04-01T09:09:48.000Z</time>
      </trkpt>
      <trkpt lat="48.71183" lon="1.74232">
        <ele>173.4</ele>
        <time>2015-04-01T09:09:55.000Z</time>
      </trkpt>
      <trkpt lat="48.71182" lon="1.7423">
        <ele>173.3</ele>
        <time>2015-04-01T09:09:56.000Z</time>
      </trkpt>
      <trkpt lat="48.71179" lon="1.74222">
        <ele>173.1</ele>
        <time>2015-04-01T09:10:00.000Z</time>
      </trkpt>
      <trkpt lat="48.71172" lon="1.74205">
        <ele>173.3</ele>
        <time>2015-04-01T09:10:08.000Z</time>
      </trkpt>
      <trkpt lat="48.7117" lon="1.7419">
        <ele>173.4</ele>
        <time>2015-04-01T09:10:15.000Z</time>
      </trkpt>
      <trkpt lat="48.71169" lon="1.74179">
        <ele>173.1</ele>
        <time>2015-04-01T09:10:21.000Z</time>
      </trkpt>
      <trkpt lat="48.71168" lon="1.74168">
        <ele>172.9</ele>
        <time>2015-04-01T09:10:26.000Z</time>
      </trkpt>
      <trkpt lat="48.71166" lon="1.74158">
        <ele>173.4</ele>
        <time>2015-04-01T09:10:31.000Z</time>
      </trkpt>
      <trkpt lat="48.71165" lon="1.74153">
        <ele>173.6</ele>
        <time>2015-04-01T09:10:33.000Z</time>
      </trkpt>
      <trkpt lat="48.71166" lon="1.74139">
        <ele>174</ele>
        <time>2015-04-01T09:10:41.000Z</time>
      </trkpt>
      <trkpt lat="48.71165" lon="1.74133">
        <ele>174.3</ele>
        <time>2015-04-01T09:10:45.000Z</time>
      </trkpt>
      <trkpt lat="48.71165" lon="1.7413">
        <ele>174.4</ele>
        <time>2015-04-01T09:10:47.000Z</time>
      </trkpt>
      <trkpt lat="48.71166" lon="1.74119">
        <ele>174.8</ele>
        <time>2015-04-01T09:10:53.000Z</time>
      </trkpt>
      <trkpt lat="48.71169" lon="1.74105">
        <ele>174.8</ele>
        <time>2015-04-01T09:11:00.000Z</time>
      </trkpt>
      <trkpt lat="48.71172" lon="1.74087">
        <ele>174.6</ele>
        <time>2015-04-01T09:11:09.000Z</time>
      </trkpt>
      <trkpt lat="48.71175" lon="1.74069">
        <ele>174.4</ele>
        <time>2015-04-01T09:11:17.000Z</time>
      </trkpt>
      <trkpt lat="48.71175" lon="1.74064">
        <ele>174.4</ele>
        <time>2015-04-01T09:11:19.000Z</time>
      </trkpt>
      <trkpt lat="48.71178" lon="1.74045">
        <ele>173.8</ele>
        <time>2015-04-01T09:11:27.000Z</time>
      </trkpt>
      <trkpt lat="48.71181" lon="1.74024">
        <ele>173</ele>
        <time>2015-04-01T09:11:36.000Z</time>
      </trkpt>
      <trkpt lat="48.71182" lon="1.74022">
        <ele>172.9</ele>
        <time>2015-04-01T09:11:37.000Z</time>
      </trkpt>
      <trkpt lat="48.71183" lon="1.74016">
        <ele>172.8</ele>
        <time>2015-04-01T09:11:40.000Z</time>
      </trkpt>
      <trkpt lat="48.71187" lon="1.74">
        <ele>172.6</ele>
        <time>2015-04-01T09:11:47.000Z</time>
      </trkpt>
      <trkpt lat="48.71191" lon="1.73986">
        <ele>173.2</ele>
        <time>2015-04-01T09:11:54.000Z</time>
      </trkpt>
      <trkpt lat="48.71197" lon="1.73974">
        <ele>173.9</ele>
        <time>2015-04-01T09:12:01.000Z</time>
      </trkpt>
      <trkpt lat="48.71203" lon="1.73964">
        <ele>174.3</ele>
        <time>2015-04-01T09:12:07.000Z</time>
      </trkpt>
      <trkpt lat="48.71209" lon="1.73954">
        <ele>174.7</ele>
        <time>2015-04-01T09:12:14.000Z</time>
      </trkpt>
      <trkpt lat="48.7121" lon="1.73952">
        <ele>174.7</ele>
        <time>2015-04-01T09:12:15.000Z</time>
      </trkpt>
      <trkpt lat="48.71217" lon="1.73943">
        <ele>175.1</ele>
        <time>2015-04-01T09:12:22.000Z</time>
      </trkpt>
      <trkpt lat="48.71219" lon="1.73939">
        <ele>175.2</ele>
        <time>2015-04-01T09:12:24.000Z</time>
      </trkpt>
      <trkpt lat="48.71224" lon="1.73929">
        <ele>175.6</ele>
        <time>2015-04-01T09:12:30.000Z</time>
      </trkpt>
      <trkpt lat="48.71231" lon="1.73915">
        <ele>176</ele>
        <time>2015-04-01T09:12:38.000Z</time>
      </trkpt>
      <trkpt lat="48.71238" lon="1.73905">
        <ele>176.2</ele>
        <time>2015-04-01T09:12:45.000Z</time>
      </trkpt>
      <trkpt lat="48.71239" lon="1.73901">
        <ele>176.2</ele>
        <time>2015-04-01T09:12:47.000Z</time>
      </trkpt>
      <trkpt lat="48.71245" lon="1.73892">
        <ele>176.2</ele>
        <time>2015-04-01T09:12:53.000Z</time>
      </trkpt>
      <trkpt lat="48.71249" lon="1.73885">
        <ele>176.2</ele>
        <time>2015-04-01T09:12:57.000Z</time>
      </trkpt>
      <trkpt lat="48.71258" lon="1.73874">
        <ele>176.5</ele>
        <time>2015-04-01T09:13:05.000Z</time>
      </trkpt>
      <trkpt lat="48.71264" lon="1.73863">
        <ele>176.9</ele>
        <time>2015-04-01T09:13:12.000Z</time>
      </trkpt>
      <trkpt lat="48.71269" lon="1.73851">
        <ele>176.8</ele>
        <time>2015-04-01T09:13:19.000Z</time>
      </trkpt>
      <trkpt lat="48.7127" lon="1.7385">
        <ele>176.7</ele>
        <time>2015-04-01T09:13:20.000Z</time>
      </trkpt>
      <trkpt lat="48.71275" lon="1.73843">
        <ele>176.4</ele>
        <time>2015-04-01T09:13:28.000Z</time>
      </trkpt>
      <trkpt lat="48.71275" lon="1.73843">
        <ele>176.4</ele>
        <time>2015-04-01T09:13:29.000Z</time>
      </trkpt>
      <trkpt lat="48.71274" lon="1.7384">
        <ele>176.3</ele>
        <time>2015-04-01T09:13:32.000Z</time>
      </trkpt>
      <trkpt lat="48.71275" lon="1.73831">
        <ele>176.1</ele>
        <time>2015-04-01T09:13:35.000Z</time>
      </trkpt>
      <trkpt lat="48.71277" lon="1.73823">
        <ele>176</ele>
        <time>2015-04-01T09:13:39.000Z</time>
      </trkpt>
      <trkpt lat="48.71277" lon="1.73819">
        <ele>176</ele>
        <time>2015-04-01T09:13:46.000Z</time>
      </trkpt>
      <trkpt lat="48.71283" lon="1.73798">
        <ele>175.8</ele>
        <time>2015-04-01T09:14:19.000Z</time>
      </trkpt>
      <trkpt lat="48.7129" lon="1.73793">
        <ele>175.4</ele>
        <time>2015-04-01T09:14:24.000Z</time>
      </trkpt>
      <trkpt lat="48.71296" lon="1.73787">
        <ele>174.7</ele>
        <time>2015-04-01T09:14:31.000Z</time>
      </trkpt>
      <trkpt lat="48.71299" lon="1.73781">
        <ele>174</ele>
        <time>2015-04-01T09:14:36.000Z</time>
      </trkpt>
      <trkpt lat="48.71304" lon="1.73772">
        <ele>172.7</ele>
        <time>2015-04-01T09:14:43.000Z</time>
      </trkpt>
      <trkpt lat="48.71306" lon="1.73771">
        <ele>172.5</ele>
        <time>2015-04-01T09:14:44.000Z</time>
      </trkpt>
      <trkpt lat="48.71315" lon="1.73768">
        <ele>170.3</ele>
        <time>2015-04-01T09:14:51.000Z</time>
      </trkpt>
      <trkpt lat="48.7132" lon="1.73767">
        <ele>169.2</ele>
        <time>2015-04-01T09:14:57.000Z</time>
      </trkpt>
      <trkpt lat="48.71322" lon="1.73764">
        <ele>168.4</ele>
        <time>2015-04-01T09:15:00.000Z</time>
      </trkpt>
      <trkpt lat="48.71328" lon="1.73759">
        <ele>166.4</ele>
        <time>2015-04-01T09:15:05.000Z</time>
      </trkpt>
      <trkpt lat="48.71336" lon="1.73754">
        <ele>164.1</ele>
        <time>2015-04-01T09:15:14.000Z</time>
      </trkpt>
      <trkpt lat="48.71342" lon="1.73749">
        <ele>161.7</ele>
        <time>2015-04-01T09:15:22.000Z</time>
      </trkpt>
      <trkpt lat="48.71345" lon="1.73747">
        <ele>160.8</ele>
        <time>2015-04-01T09:15:27.000Z</time>
      </trkpt>
      <trkpt lat="48.71347" lon="1.73745">
        <ele>160.1</ele>
        <time>2015-04-01T09:15:32.000Z</time>
      </trkpt>
      <trkpt lat="48.71358" lon="1.73734">
        <ele>156.5</ele>
        <time>2015-04-01T09:16:14.000Z</time>
      </trkpt>
      <trkpt lat="48.71366" lon="1.73734">
        <ele>155.3</ele>
        <time>2015-04-01T09:16:18.000Z</time>
      </trkpt>
      <trkpt lat="48.71373" lon="1.73734">
        <ele>154.4</ele>
        <time>2015-04-01T09:16:22.000Z</time>
      </trkpt>
      <trkpt lat="48.71384" lon="1.73732">
        <ele>153</ele>
        <time>2015-04-01T09:16:30.000Z</time>
      </trkpt>
      <trkpt lat="48.7139" lon="1.73732">
        <ele>152.3</ele>
        <time>2015-04-01T09:16:36.000Z</time>
      </trkpt>
      <trkpt lat="48.71391" lon="1.73731">
        <ele>152.2</ele>
        <time>2015-04-01T09:16:37.000Z</time>
      </trkpt>
      <trkpt lat="48.71402" lon="1.73728">
        <ele>151.7</ele>
        <time>2015-04-01T09:16:44.000Z</time>
      </trkpt>
      <trkpt lat="48.7141" lon="1.73724">
        <ele>151.3</ele>
        <time>2015-04-01T09:16:50.000Z</time>
      </trkpt>
      <trkpt lat="48.71423" lon="1.73717">
        <ele>151</ele>
        <time>2015-04-01T09:16:59.000Z</time>
      </trkpt>
      <trkpt lat="48.71434" lon="1.73716">
        <ele>150.6</ele>
        <time>2015-04-01T09:17:05.000Z</time>
      </trkpt>
      <trkpt lat="48.71445" lon="1.73722">
        <ele>150</ele>
        <time>2015-04-01T09:17:11.000Z</time>
      </trkpt>
      <trkpt lat="48.71452" lon="1.73729">
        <ele>149.7</ele>
        <time>2015-04-01T09:17:16.000Z</time>
      </trkpt>
      <trkpt lat="48.71463" lon="1.73734">
        <ele>149.3</ele>
        <time>2015-04-01T09:17:23.000Z</time>
      </trkpt>
      <trkpt lat="48.71466" lon="1.73736">
        <ele>149.1</ele>
        <time>2015-04-01T09:17:25.000Z</time>
      </trkpt>
      <trkpt lat="48.71473" lon="1.73742">
        <ele>148.6</ele>
        <time>2015-04-01T09:17:29.000Z</time>
      </trkpt>
      <trkpt lat="48.71477" lon="1.73745">
        <ele>148.2</ele>
        <time>2015-04-01T09:17:32.000Z</time>
      </trkpt>
      <trkpt lat="48.71482" lon="1.73752">
        <ele>147.6</ele>
        <time>2015-04-01T09:17:38.000Z</time>
      </trkpt>
      <trkpt lat="48.71487" lon="1.73755">
        <ele>147.4</ele>
        <time>2015-04-01T09:17:44.000Z</time>
      </trkpt>
      <trkpt lat="48.71496" lon="1.73762">
        <ele>146.8</ele>
        <time>2015-04-01T09:18:03.000Z</time>
      </trkpt>
      <trkpt lat="48.71498" lon="1.73763">
        <ele>146.6</ele>
        <time>2015-04-01T09:18:04.000Z</time>
      </trkpt>
      <trkpt lat="48.71501" lon="1.73764">
        <ele>146.4</ele>
        <time>2015-04-01T09:18:07.000Z</time>
      </trkpt>
      <trkpt lat="48.71503" lon="1.73764">
        <ele>146.3</ele>
        <time>2015-04-01T09:18:11.000Z</time>
      </trkpt>
      <trkpt lat="48.71514" lon="1.73766">
        <ele>145.7</ele>
        <time>2015-04-01T09:18:42.000Z</time>
      </trkpt>
      <trkpt lat="48.71522" lon="1.73764">
        <ele>145.3</ele>
        <time>2015-04-01T09:18:48.000Z</time>
      </trkpt>
      <trkpt lat="48.71529" lon="1.73764">
        <ele>145</ele>
        <time>2015-04-01T09:18:53.000Z</time>
      </trkpt>
      <trkpt lat="48.71536" lon="1.73762">
        <ele>144.9</ele>
        <time>2015-04-01T09:18:59.000Z</time>
      </trkpt>
      <trkpt lat="48.71543" lon="1.73768">
        <ele>144.6</ele>
        <time>2015-04-01T09:19:05.000Z</time>
      </trkpt>
      <trkpt lat="48.71552" lon="1.73775">
        <ele>144.2</ele>
        <time>2015-04-01T09:19:11.000Z</time>
      </trkpt>
      <trkpt lat="48.71556" lon="1.73781">
        <ele>143.9</ele>
        <time>2015-04-01T09:19:14.000Z</time>
      </trkpt>
      <trkpt lat="48.71562" lon="1.73787">
        <ele>143.4</ele>
        <time>2015-04-01T09:19:18.000Z</time>
      </trkpt>
      <trkpt lat="48.71566" lon="1.73793">
        <ele>143.1</ele>
        <time>2015-04-01T09:19:22.000Z</time>
      </trkpt>
      <trkpt lat="48.71576" lon="1.73804">
        <ele>142.3</ele>
        <time>2015-04-01T09:19:29.000Z</time>
      </trkpt>
      <trkpt lat="48.71581" lon="1.73813">
        <ele>142.1</ele>
        <time>2015-04-01T09:19:35.000Z</time>
      </trkpt>
      <trkpt lat="48.71591" lon="1.73815">
        <ele>141.6</ele>
        <time>2015-04-01T09:19:41.000Z</time>
      </trkpt>
      <trkpt lat="48.71598" lon="1.7382">
        <ele>141.2</ele>
        <time>2015-04-01T09:19:46.000Z</time>
      </trkpt>
      <trkpt lat="48.71606" lon="1.73824">
        <ele>140.7</ele>
        <time>2015-04-01T09:19:51.000Z</time>
      </trkpt>
      <trkpt lat="48.71613" lon="1.73832">
        <ele>140</ele>
        <time>2015-04-01T09:19:57.000Z</time>
      </trkpt>
      <trkpt lat="48.71616" lon="1.73835">
        <ele>139.8</ele>
        <time>2015-04-01T09:20:00.000Z</time>
      </trkpt>
      <trkpt lat="48.7162" lon="1.73836">
        <ele>139.7</ele>
        <time>2015-04-01T09:20:04.000Z</time>
      </trkpt>
      <trkpt lat="48.71629" lon="1.73837">
        <ele>139.2</ele>
        <time>2015-04-01T09:20:11.000Z</time>
      </trkpt>
      <trkpt lat="48.71634" lon="1.73835">
        <ele>139.1</ele>
        <time>2015-04-01T09:20:14.000Z</time>
      </trkpt>
      <trkpt lat="48.7164" lon="1.73836">
        <ele>138.8</ele>
        <time>2015-04-01T09:20:18.000Z</time>
      </trkpt>
      <trkpt lat="48.71645" lon="1.73835">
        <ele>138.5</ele>
        <time>2015-04-01T09:20:22.000Z</time>
      </trkpt>
      <trkpt lat="48.71651" lon="1.73836">
        <ele>138.1</ele>
        <time>2015-04-01T09:20:26.000Z</time>
      </trkpt>
      <trkpt lat="48.71654" lon="1.73847">
        <ele>137.7</ele>
        <time>2015-04-01T09:20:34.000Z</time>
      </trkpt>
      <trkpt lat="48.71654" lon="1.73849">
        <ele>137.7</ele>
        <time>2015-04-01T09:20:35.000Z</time>
      </trkpt>
      <trkpt lat="48.71653" lon="1.7386">
        <ele>137.5</ele>
        <time>2015-04-01T09:20:40.000Z</time>
      </trkpt>
      <trkpt lat="48.71656" lon="1.73874">
        <ele>137.6</ele>
        <time>2015-04-01T09:20:46.000Z</time>
      </trkpt>
      <trkpt lat="48.71656" lon="1.73876">
        <ele>137.6</ele>
        <time>2015-04-01T09:20:47.000Z</time>
      </trkpt>
      <trkpt lat="48.71658" lon="1.73879">
        <ele>137.5</ele>
        <time>2015-04-01T09:20:50.000Z</time>
      </trkpt>
      <trkpt lat="48.71659" lon="1.73889">
        <ele>137.6</ele>
        <time>2015-04-01T09:20:56.000Z</time>
      </trkpt>
      <trkpt lat="48.71662" lon="1.73895">
        <ele>137.6</ele>
        <time>2015-04-01T09:21:00.000Z</time>
      </trkpt>
      <trkpt lat="48.71663" lon="1.73896">
        <ele>137.5</ele>
        <time>2015-04-01T09:21:02.000Z</time>
      </trkpt>
      <trkpt lat="48.71665" lon="1.73895">
        <ele>137.4</ele>
        <time>2015-04-01T09:21:04.000Z</time>
      </trkpt>
      <trkpt lat="48.71667" lon="1.73897">
        <ele>137.3</ele>
        <time>2015-04-01T09:21:09.000Z</time>
      </trkpt>
      <trkpt lat="48.71664" lon="1.73896">
        <ele>137.4</ele>
        <time>2015-04-01T09:25:54.000Z</time>
      </trkpt>
      <trkpt lat="48.71658" lon="1.73896">
        <ele>137.8</ele>
        <time>2015-04-01T09:25:57.000Z</time>
      </trkpt>
      <trkpt lat="48.71655" lon="1.73897">
        <ele>138</ele>
        <time>2015-04-01T09:26:00.000Z</time>
      </trkpt>
      <trkpt lat="48.7165" lon="1.73898">
        <ele>138.3</ele>
        <time>2015-04-01T09:26:05.000Z</time>
      </trkpt>
      <trkpt lat="48.7164" lon="1.73896">
        <ele>138.9</ele>
        <time>2015-04-01T09:26:13.000Z</time>
      </trkpt>
      <trkpt lat="48.71635" lon="1.73895">
        <ele>139.2</ele>
        <time>2015-04-01T09:26:16.000Z</time>
      </trkpt>
      <trkpt lat="48.71629" lon="1.73895">
        <ele>139.4</ele>
        <time>2015-04-01T09:26:20.000Z</time>
      </trkpt>
      <trkpt lat="48.71621" lon="1.7389">
        <ele>139.6</ele>
        <time>2015-04-01T09:26:27.000Z</time>
      </trkpt>
      <trkpt lat="48.7162" lon="1.73886">
        <ele>139.7</ele>
        <time>2015-04-01T09:26:29.000Z</time>
      </trkpt>
      <trkpt lat="48.71612" lon="1.73876">
        <ele>140</ele>
        <time>2015-04-01T09:26:37.000Z</time>
      </trkpt>
      <trkpt lat="48.71606" lon="1.73866">
        <ele>140.4</ele>
        <time>2015-04-01T09:26:42.000Z</time>
      </trkpt>
      <trkpt lat="48.716" lon="1.73857">
        <ele>140.8</ele>
        <time>2015-04-01T09:26:47.000Z</time>
      </trkpt>
      <trkpt lat="48.71597" lon="1.73849">
        <ele>141</ele>
        <time>2015-04-01T09:26:51.000Z</time>
      </trkpt>
      <trkpt lat="48.71597" lon="1.73844">
        <ele>141</ele>
        <time>2015-04-01T09:26:53.000Z</time>
      </trkpt>
      <trkpt lat="48.71594" lon="1.73834">
        <ele>141.2</ele>
        <time>2015-04-01T09:27:01.000Z</time>
      </trkpt>
      <trkpt lat="48.71594" lon="1.73834">
        <ele>141.2</ele>
        <time>2015-04-01T09:27:02.000Z</time>
      </trkpt>
      <trkpt lat="48.71597" lon="1.73819">
        <ele>141.3</ele>
        <time>2015-04-01T09:27:13.000Z</time>
      </trkpt>
      <trkpt lat="48.71599" lon="1.73811">
        <ele>141.3</ele>
        <time>2015-04-01T09:27:16.000Z</time>
      </trkpt>
      <trkpt lat="48.71598" lon="1.73803">
        <ele>141.6</ele>
        <time>2015-04-01T09:27:21.000Z</time>
      </trkpt>
      <trkpt lat="48.716" lon="1.73792">
        <ele>141.9</ele>
        <time>2015-04-01T09:27:26.000Z</time>
      </trkpt>
      <trkpt lat="48.71596" lon="1.73786">
        <ele>142.2</ele>
        <time>2015-04-01T09:27:30.000Z</time>
      </trkpt>
      <trkpt lat="48.71589" lon="1.73793">
        <ele>142.3</ele>
        <time>2015-04-01T09:27:37.000Z</time>
      </trkpt>
      <trkpt lat="48.71587" lon="1.73796">
        <ele>142.2</ele>
        <time>2015-04-01T09:27:39.000Z</time>
      </trkpt>
      <trkpt lat="48.71579" lon="1.73799">
        <ele>142.4</ele>
        <time>2015-04-01T09:27:46.000Z</time>
      </trkpt>
      <trkpt lat="48.71573" lon="1.738">
        <ele>142.6</ele>
        <time>2015-04-01T09:27:49.000Z</time>
      </trkpt>
      <trkpt lat="48.71565" lon="1.7379">
        <ele>143.2</ele>
        <time>2015-04-01T09:27:56.000Z</time>
      </trkpt>
      <trkpt lat="48.71558" lon="1.73781">
        <ele>143.8</ele>
        <time>2015-04-01T09:28:02.000Z</time>
      </trkpt>
      <trkpt lat="48.7155" lon="1.73772">
        <ele>144.4</ele>
        <time>2015-04-01T09:28:10.000Z</time>
      </trkpt>
      <trkpt lat="48.7154" lon="1.73765">
        <ele>144.7</ele>
        <time>2015-04-01T09:28:16.000Z</time>
      </trkpt>
      <trkpt lat="48.71539" lon="1.73764">
        <ele>144.8</ele>
        <time>2015-04-01T09:28:17.000Z</time>
      </trkpt>
      <trkpt lat="48.71537" lon="1.73754">
        <ele>144.9</ele>
        <time>2015-04-01T09:28:22.000Z</time>
      </trkpt>
      <trkpt lat="48.71534" lon="1.73744">
        <ele>145</ele>
        <time>2015-04-01T09:28:29.000Z</time>
      </trkpt>
      <trkpt lat="48.71535" lon="1.73738">
        <ele>145</ele>
        <time>2015-04-01T09:28:34.000Z</time>
      </trkpt>
      <trkpt lat="48.71531" lon="1.73724">
        <ele>145</ele>
        <time>2015-04-01T09:28:39.000Z</time>
      </trkpt>
      <trkpt lat="48.71528" lon="1.73709">
        <ele>145.5</ele>
        <time>2015-04-01T09:28:47.000Z</time>
      </trkpt>
      <trkpt lat="48.71529" lon="1.73696">
        <ele>145.9</ele>
        <time>2015-04-01T09:28:54.000Z</time>
      </trkpt>
      <trkpt lat="48.71523" lon="1.73687">
        <ele>147.1</ele>
        <time>2015-04-01T09:29:00.000Z</time>
      </trkpt>
      <trkpt lat="48.71523" lon="1.73678">
        <ele>147.7</ele>
        <time>2015-04-01T09:29:04.000Z</time>
      </trkpt>
      <trkpt lat="48.71522" lon="1.73675">
        <ele>147.9</ele>
        <time>2015-04-01T09:29:06.000Z</time>
      </trkpt>
      <trkpt lat="48.71517" lon="1.73662">
        <ele>148.7</ele>
        <time>2015-04-01T09:29:13.000Z</time>
      </trkpt>
      <trkpt lat="48.71515" lon="1.7366">
        <ele>148.9</ele>
        <time>2015-04-01T09:29:15.000Z</time>
      </trkpt>
      <trkpt lat="48.71512" lon="1.73656">
        <ele>149.1</ele>
        <time>2015-04-01T09:29:19.000Z</time>
      </trkpt>
      <trkpt lat="48.71507" lon="1.73647">
        <ele>149.5</ele>
        <time>2015-04-01T09:29:26.000Z</time>
      </trkpt>
      <trkpt lat="48.71502" lon="1.73634">
        <ele>149.9</ele>
        <time>2015-04-01T09:29:33.000Z</time>
      </trkpt>
      <trkpt lat="48.71495" lon="1.73626">
        <ele>150.4</ele>
        <time>2015-04-01T09:29:40.000Z</time>
      </trkpt>
      <trkpt lat="48.71494" lon="1.73626">
        <ele>150.5</ele>
        <time>2015-04-01T09:29:43.000Z</time>
      </trkpt>
      <trkpt lat="48.7149" lon="1.73612">
        <ele>151.1</ele>
        <time>2015-04-01T09:29:56.000Z</time>
      </trkpt>
      <trkpt lat="48.71486" lon="1.73604">
        <ele>151.4</ele>
        <time>2015-04-01T09:30:00.000Z</time>
      </trkpt>
      <trkpt lat="48.71482" lon="1.736">
        <ele>151.7</ele>
        <time>2015-04-01T09:30:03.000Z</time>
      </trkpt>
      <trkpt lat="48.71485" lon="1.73586">
        <ele>151.2</ele>
        <time>2015-04-01T09:30:10.000Z</time>
      </trkpt>
      <trkpt lat="48.7149" lon="1.73577">
        <ele>150.6</ele>
        <time>2015-04-01T09:30:16.000Z</time>
      </trkpt>
      <trkpt lat="48.71496" lon="1.73568">
        <ele>150.1</ele>
        <time>2015-04-01T09:30:23.000Z</time>
      </trkpt>
      <trkpt lat="48.71498" lon="1.73563">
        <ele>150</ele>
        <time>2015-04-01T09:30:27.000Z</time>
      </trkpt>
      <trkpt lat="48.71504" lon="1.7356">
        <ele>149.4</ele>
        <time>2015-04-01T09:30:31.000Z</time>
      </trkpt>
      <trkpt lat="48.71514" lon="1.73556">
        <ele>148.5</ele>
        <time>2015-04-01T09:30:37.000Z</time>
      </trkpt>
      <trkpt lat="48.71528" lon="1.73552">
        <ele>147.3</ele>
        <time>2015-04-01T09:30:45.000Z</time>
      </trkpt>
      <trkpt lat="48.71538" lon="1.73548">
        <ele>146.9</ele>
        <time>2015-04-01T09:30:52.000Z</time>
      </trkpt>
      <trkpt lat="48.71548" lon="1.73544">
        <ele>146.7</ele>
        <time>2015-04-01T09:30:59.000Z</time>
      </trkpt>
      <trkpt lat="48.71558" lon="1.7354">
        <ele>146.4</ele>
        <time>2015-04-01T09:31:05.000Z</time>
      </trkpt>
      <trkpt lat="48.71567" lon="1.73537">
        <ele>145.6</ele>
        <time>2015-04-01T09:31:11.000Z</time>
      </trkpt>
      <trkpt lat="48.71577" lon="1.73534">
        <ele>144.6</ele>
        <time>2015-04-01T09:31:18.000Z</time>
      </trkpt>
      <trkpt lat="48.71585" lon="1.73531">
        <ele>143.8</ele>
        <time>2015-04-01T09:31:23.000Z</time>
      </trkpt>
      <trkpt lat="48.71594" lon="1.73533">
        <ele>143</ele>
        <time>2015-04-01T09:31:28.000Z</time>
      </trkpt>
      <trkpt lat="48.71603" lon="1.73532">
        <ele>142.5</ele>
        <time>2015-04-01T09:31:34.000Z</time>
      </trkpt>
      <trkpt lat="48.71612" lon="1.73529">
        <ele>141.9</ele>
        <time>2015-04-01T09:31:40.000Z</time>
      </trkpt>
      <trkpt lat="48.71624" lon="1.73524">
        <ele>141.7</ele>
        <time>2015-04-01T09:31:48.000Z</time>
      </trkpt>
      <trkpt lat="48.71632" lon="1.7352">
        <ele>141.5</ele>
        <time>2015-04-01T09:31:53.000Z</time>
      </trkpt>
      <trkpt lat="48.71643" lon="1.73519">
        <ele>141.1</ele>
        <time>2015-04-01T09:32:00.000Z</time>
      </trkpt>
      <trkpt lat="48.71656" lon="1.73516">
        <ele>140.6</ele>
        <time>2015-04-01T09:32:08.000Z</time>
      </trkpt>
      <trkpt lat="48.71666" lon="1.73514">
        <ele>140</ele>
        <time>2015-04-01T09:32:15.000Z</time>
      </trkpt>
      <trkpt lat="48.71675" lon="1.73513">
        <ele>139.4</ele>
        <time>2015-04-01T09:32:22.000Z</time>
      </trkpt>
      <trkpt lat="48.71688" lon="1.73508">
        <ele>138.4</ele>
        <time>2015-04-01T09:32:30.000Z</time>
      </trkpt>
      <trkpt lat="48.71704" lon="1.73504">
        <ele>137</ele>
        <time>2015-04-01T09:32:40.000Z</time>
      </trkpt>
      <trkpt lat="48.71713" lon="1.73503">
        <ele>136.1</ele>
        <time>2015-04-01T09:32:46.000Z</time>
      </trkpt>
      <trkpt lat="48.71721" lon="1.735">
        <ele>135.2</ele>
        <time>2015-04-01T09:32:51.000Z</time>
      </trkpt>
      <trkpt lat="48.7173" lon="1.73499">
        <ele>134.5</ele>
        <time>2015-04-01T09:32:57.000Z</time>
      </trkpt>
      <trkpt lat="48.71739" lon="1.73496">
        <ele>134</ele>
        <time>2015-04-01T09:33:03.000Z</time>
      </trkpt>
      <trkpt lat="48.71741" lon="1.73495">
        <ele>133.9</ele>
        <time>2015-04-01T09:33:04.000Z</time>
      </trkpt>
      <trkpt lat="48.71755" lon="1.73493">
        <ele>133</ele>
        <time>2015-04-01T09:33:12.000Z</time>
      </trkpt>
      <trkpt lat="48.71761" lon="1.73493">
        <ele>132.7</ele>
        <time>2015-04-01T09:33:16.000Z</time>
      </trkpt>
      <trkpt lat="48.71772" lon="1.73488">
        <ele>132.3</ele>
        <time>2015-04-01T09:33:23.000Z</time>
      </trkpt>
      <trkpt lat="48.71782" lon="1.73485">
        <ele>131.9</ele>
        <time>2015-04-01T09:33:30.000Z</time>
      </trkpt>
      <trkpt lat="48.71793" lon="1.7348">
        <ele>131.6</ele>
        <time>2015-04-01T09:33:36.000Z</time>
      </trkpt>
      <trkpt lat="48.718" lon="1.73477">
        <ele>131.3</ele>
        <time>2015-04-01T09:33:41.000Z</time>
      </trkpt>
      <trkpt lat="48.71809" lon="1.73477">
        <ele>131.2</ele>
        <time>2015-04-01T09:33:47.000Z</time>
      </trkpt>
      <trkpt lat="48.71823" lon="1.73472">
        <ele>131</ele>
        <time>2015-04-01T09:33:55.000Z</time>
      </trkpt>
      <trkpt lat="48.71831" lon="1.73473">
        <ele>131</ele>
        <time>2015-04-01T09:34:00.000Z</time>
      </trkpt>
      <trkpt lat="48.7184" lon="1.73471">
        <ele>131</ele>
        <time>2015-04-01T09:34:06.000Z</time>
      </trkpt>
      <trkpt lat="48.7185" lon="1.7347">
        <ele>130.9</ele>
        <time>2015-04-01T09:34:13.000Z</time>
      </trkpt>
      <trkpt lat="48.71857" lon="1.73467">
        <ele>130.8</ele>
        <time>2015-04-01T09:34:18.000Z</time>
      </trkpt>
      <trkpt lat="48.7187" lon="1.73463">
        <ele>130.7</ele>
        <time>2015-04-01T09:34:27.000Z</time>
      </trkpt>
      <trkpt lat="48.71871" lon="1.73464">
        <ele>130.7</ele>
        <time>2015-04-01T09:34:28.000Z</time>
      </trkpt>
      <trkpt lat="48.71882" lon="1.73462">
        <ele>130.6</ele>
        <time>2015-04-01T09:34:36.000Z</time>
      </trkpt>
      <trkpt lat="48.71894" lon="1.73461">
        <ele>130.4</ele>
        <time>2015-04-01T09:34:43.000Z</time>
      </trkpt>
      <trkpt lat="48.71903" lon="1.73456">
        <ele>129.9</ele>
        <time>2015-04-01T09:34:50.000Z</time>
      </trkpt>
      <trkpt lat="48.71913" lon="1.73452">
        <ele>129.4</ele>
        <time>2015-04-01T09:34:57.000Z</time>
      </trkpt>
      <trkpt lat="48.71925" lon="1.73452">
        <ele>129</ele>
        <time>2015-04-01T09:35:02.000Z</time>
      </trkpt>
      <trkpt lat="48.71938" lon="1.73448">
        <ele>128.4</ele>
        <time>2015-04-01T09:35:07.000Z</time>
      </trkpt>
      <trkpt lat="48.71957" lon="1.73445">
        <ele>127.6</ele>
        <time>2015-04-01T09:35:13.000Z</time>
      </trkpt>
      <trkpt lat="48.71975" lon="1.73443">
        <ele>126.9</ele>
        <time>2015-04-01T09:35:19.000Z</time>
      </trkpt>
      <trkpt lat="48.71999" lon="1.73437">
        <ele>126.1</ele>
        <time>2015-04-01T09:35:25.000Z</time>
      </trkpt>
      <trkpt lat="48.72019" lon="1.73435">
        <ele>125.3</ele>
        <time>2015-04-01T09:35:30.000Z</time>
      </trkpt>
      <trkpt lat="48.72034" lon="1.73428">
        <ele>124.8</ele>
        <time>2015-04-01T09:35:34.000Z</time>
      </trkpt>
      <trkpt lat="48.72056" lon="1.73422">
        <ele>124</ele>
        <time>2015-04-01T09:35:40.000Z</time>
      </trkpt>
      <trkpt lat="48.72074" lon="1.73418">
        <ele>124</ele>
        <time>2015-04-01T09:35:45.000Z</time>
      </trkpt>
      <trkpt lat="48.72084" lon="1.73415">
        <ele>124</ele>
        <time>2015-04-01T09:35:50.000Z</time>
      </trkpt>
      <trkpt lat="48.72097" lon="1.73412">
        <ele>123.5</ele>
        <time>2015-04-01T09:35:57.000Z</time>
      </trkpt>
      <trkpt lat="48.72106" lon="1.73406">
        <ele>123.2</ele>
        <time>2015-04-01T09:36:03.000Z</time>
      </trkpt>
      <trkpt lat="48.72118" lon="1.73399">
        <ele>123</ele>
        <time>2015-04-01T09:36:10.000Z</time>
      </trkpt>
      <trkpt lat="48.72129" lon="1.73397">
        <ele>123</ele>
        <time>2015-04-01T09:36:17.000Z</time>
      </trkpt>
      <trkpt lat="48.72131" lon="1.73398">
        <ele>123</ele>
        <time>2015-04-01T09:36:20.000Z</time>
      </trkpt>
      <trkpt lat="48.72138" lon="1.73394">
        <ele>123</ele>
        <time>2015-04-01T09:36:25.000Z</time>
      </trkpt>
      <trkpt lat="48.72146" lon="1.73391">
        <ele>122.7</ele>
        <time>2015-04-01T09:36:30.000Z</time>
      </trkpt>
      <trkpt lat="48.72151" lon="1.7339">
        <ele>122.6</ele>
        <time>2015-04-01T09:36:33.000Z</time>
      </trkpt>
      <trkpt lat="48.72154" lon="1.73388">
        <ele>122.4</ele>
        <time>2015-04-01T09:36:35.000Z</time>
      </trkpt>
      <trkpt lat="48.72166" lon="1.73387">
        <ele>122</ele>
        <time>2015-04-01T09:36:42.000Z</time>
      </trkpt>
      <trkpt lat="48.72172" lon="1.73387">
        <ele>121.8</ele>
        <time>2015-04-01T09:36:46.000Z</time>
      </trkpt>
      <trkpt lat="48.72178" lon="1.73386">
        <ele>121.6</ele>
        <time>2015-04-01T09:36:50.000Z</time>
      </trkpt>
      <trkpt lat="48.72183" lon="1.73385">
        <ele>121.4</ele>
        <time>2015-04-01T09:36:55.000Z</time>
      </trkpt>
      <trkpt lat="48.72191" lon="1.73385">
        <ele>121.1</ele>
        <time>2015-04-01T09:37:01.000Z</time>
      </trkpt>
      <trkpt lat="48.72198" lon="1.73384">
        <ele>121</ele>
        <time>2015-04-01T09:37:05.000Z</time>
      </trkpt>
      <trkpt lat="48.72207" lon="1.73382">
        <ele>121</ele>
        <time>2015-04-01T09:37:11.000Z</time>
      </trkpt>
      <trkpt lat="48.72211" lon="1.73381">
        <ele>121</ele>
        <time>2015-04-01T09:37:13.000Z</time>
      </trkpt>
      <trkpt lat="48.72219" lon="1.73379">
        <ele>121</ele>
        <time>2015-04-01T09:37:19.000Z</time>
      </trkpt>
      <trkpt lat="48.72226" lon="1.73377">
        <ele>120.9</ele>
        <time>2015-04-01T09:37:23.000Z</time>
      </trkpt>
      <trkpt lat="48.72233" lon="1.73382">
        <ele>120.6</ele>
        <time>2015-04-01T09:37:29.000Z</time>
      </trkpt>
      <trkpt lat="48.72237" lon="1.73381">
        <ele>120.5</ele>
        <time>2015-04-01T09:37:32.000Z</time>
      </trkpt>
      <trkpt lat="48.7224" lon="1.73378">
        <ele>120.4</ele>
        <time>2015-04-01T09:37:35.000Z</time>
      </trkpt>
      <trkpt lat="48.72245" lon="1.73385">
        <ele>120.2</ele>
        <time>2015-04-01T09:37:42.000Z</time>
      </trkpt>
      <trkpt lat="48.72252" lon="1.73389">
        <ele>120</ele>
        <time>2015-04-01T09:37:47.000Z</time>
      </trkpt>
      <trkpt lat="48.72261" lon="1.73389">
        <ele>120</ele>
        <time>2015-04-01T09:37:53.000Z</time>
      </trkpt>
      <trkpt lat="48.72262" lon="1.7339">
        <ele>120</ele>
        <time>2015-04-01T09:37:54.000Z</time>
      </trkpt>
      <trkpt lat="48.72267" lon="1.73391">
        <ele>120</ele>
        <time>2015-04-01T09:37:57.000Z</time>
      </trkpt>
      <trkpt lat="48.72274" lon="1.73395">
        <ele>120</ele>
        <time>2015-04-01T09:38:02.000Z</time>
      </trkpt>
      <trkpt lat="48.72282" lon="1.73397">
        <ele>120</ele>
        <time>2015-04-01T09:38:08.000Z</time>
      </trkpt>
      <trkpt lat="48.72287" lon="1.73396">
        <ele>120</ele>
        <time>2015-04-01T09:38:12.000Z</time>
      </trkpt>
      <trkpt lat="48.72297" lon="1.73396">
        <ele>120</ele>
        <time>2015-04-01T09:38:18.000Z</time>
      </trkpt>
      <trkpt lat="48.7231" lon="1.73402">
        <ele>119.9</ele>
        <time>2015-04-01T09:38:23.000Z</time>
      </trkpt>
      <trkpt lat="48.72319" lon="1.73407">
        <ele>119.5</ele>
        <time>2015-04-01T09:38:28.000Z</time>
      </trkpt>
      <trkpt lat="48.72321" lon="1.73407">
        <ele>119.4</ele>
        <time>2015-04-01T09:38:29.000Z</time>
      </trkpt>
      <trkpt lat="48.72328" lon="1.73407">
        <ele>119.2</ele>
        <time>2015-04-01T09:38:33.000Z</time>
      </trkpt>
      <trkpt lat="48.72337" lon="1.73405">
        <ele>119.1</ele>
        <time>2015-04-01T09:38:39.000Z</time>
      </trkpt>
      <trkpt lat="48.72346" lon="1.73404">
        <ele>119.5</ele>
        <time>2015-04-01T09:38:44.000Z</time>
      </trkpt>
      <trkpt lat="48.72354" lon="1.73403">
        <ele>119.7</ele>
        <time>2015-04-01T09:38:49.000Z</time>
      </trkpt>
      <trkpt lat="48.72359" lon="1.73409">
        <ele>119.9</ele>
        <time>2015-04-01T09:38:52.000Z</time>
      </trkpt>
      <trkpt lat="48.72364" lon="1.73416">
        <ele>120</ele>
        <time>2015-04-01T09:38:56.000Z</time>
      </trkpt>
      <trkpt lat="48.72373" lon="1.73418">
        <ele>120</ele>
        <time>2015-04-01T09:39:03.000Z</time>
      </trkpt>
      <trkpt lat="48.72384" lon="1.73417">
        <ele>120</ele>
        <time>2015-04-01T09:39:08.000Z</time>
      </trkpt>
      <trkpt lat="48.72394" lon="1.73418">
        <ele>120.2</ele>
        <time>2015-04-01T09:39:12.000Z</time>
      </trkpt>
      <trkpt lat="48.72405" lon="1.7342">
        <ele>120.5</ele>
        <time>2015-04-01T09:39:19.000Z</time>
      </trkpt>
      <trkpt lat="48.72417" lon="1.73424">
        <ele>120.7</ele>
        <time>2015-04-01T09:39:27.000Z</time>
      </trkpt>
      <trkpt lat="48.72428" lon="1.73429">
        <ele>120.7</ele>
        <time>2015-04-01T09:39:34.000Z</time>
      </trkpt>
      <trkpt lat="48.72438" lon="1.73431">
        <ele>120.9</ele>
        <time>2015-04-01T09:39:41.000Z</time>
      </trkpt>
      <trkpt lat="48.72444" lon="1.73432">
        <ele>121</ele>
        <time>2015-04-01T09:39:45.000Z</time>
      </trkpt>
      <trkpt lat="48.72454" lon="1.73433">
        <ele>121.2</ele>
        <time>2015-04-01T09:39:52.000Z</time>
      </trkpt>
      <trkpt lat="48.72462" lon="1.73435">
        <ele>121.4</ele>
        <time>2015-04-01T09:39:58.000Z</time>
      </trkpt>
      <trkpt lat="48.72469" lon="1.73436">
        <ele>121.6</ele>
        <time>2015-04-01T09:40:03.000Z</time>
      </trkpt>
      <trkpt lat="48.72478" lon="1.73437">
        <ele>121.8</ele>
        <time>2015-04-01T09:40:09.000Z</time>
      </trkpt>
      <trkpt lat="48.72487" lon="1.73439">
        <ele>121.9</ele>
        <time>2015-04-01T09:40:16.000Z</time>
      </trkpt>
      <trkpt lat="48.72494" lon="1.73441">
        <ele>122</ele>
        <time>2015-04-01T09:40:21.000Z</time>
      </trkpt>
      <trkpt lat="48.72505" lon="1.73446">
        <ele>122.4</ele>
        <time>2015-04-01T09:40:29.000Z</time>
      </trkpt>
      <trkpt lat="48.72512" lon="1.73447">
        <ele>122.8</ele>
        <time>2015-04-01T09:40:34.000Z</time>
      </trkpt>
      <trkpt lat="48.72518" lon="1.73447">
        <ele>123.3</ele>
        <time>2015-04-01T09:40:38.000Z</time>
      </trkpt>
      <trkpt lat="48.72527" lon="1.7345">
        <ele>124</ele>
        <time>2015-04-01T09:40:45.000Z</time>
      </trkpt>
      <trkpt lat="48.72533" lon="1.73452">
        <ele>124</ele>
        <time>2015-04-01T09:40:50.000Z</time>
      </trkpt>
      <trkpt lat="48.72538" lon="1.73453">
        <ele>124.1</ele>
        <time>2015-04-01T09:40:54.000Z</time>
      </trkpt>
      <trkpt lat="48.72547" lon="1.73465">
        <ele>124.5</ele>
        <time>2015-04-01T09:41:01.000Z</time>
      </trkpt>
      <trkpt lat="48.72555" lon="1.73473">
        <ele>125</ele>
        <time>2015-04-01T09:41:06.000Z</time>
      </trkpt>
      <trkpt lat="48.72565" lon="1.73483">
        <ele>125.1</ele>
        <time>2015-04-01T09:41:14.000Z</time>
      </trkpt>
      <trkpt lat="48.72573" lon="1.73488">
        <ele>125.4</ele>
        <time>2015-04-01T09:41:21.000Z</time>
      </trkpt>
      <trkpt lat="48.7258" lon="1.73495">
        <ele>125.7</ele>
        <time>2015-04-01T09:41:28.000Z</time>
      </trkpt>
      <trkpt lat="48.7259" lon="1.73507">
        <ele>126</ele>
        <time>2015-04-01T09:41:37.000Z</time>
      </trkpt>
      <trkpt lat="48.72595" lon="1.73517">
        <ele>126</ele>
        <time>2015-04-01T09:41:44.000Z</time>
      </trkpt>
      <trkpt lat="48.726" lon="1.73525">
        <ele>126</ele>
        <time>2015-04-01T09:41:49.000Z</time>
      </trkpt>
      <trkpt lat="48.72608" lon="1.73532">
        <ele>126</ele>
        <time>2015-04-01T09:41:55.000Z</time>
      </trkpt>
      <trkpt lat="48.72618" lon="1.7354">
        <ele>125.8</ele>
        <time>2015-04-01T09:42:02.000Z</time>
      </trkpt>
      <trkpt lat="48.72622" lon="1.73546">
        <ele>125.6</ele>
        <time>2015-04-01T09:42:05.000Z</time>
      </trkpt>
      <trkpt lat="48.72627" lon="1.73552">
        <ele>125.4</ele>
        <time>2015-04-01T09:42:09.000Z</time>
      </trkpt>
      <trkpt lat="48.72636" lon="1.73564">
        <ele>125.4</ele>
        <time>2015-04-01T09:42:15.000Z</time>
      </trkpt>
      <trkpt lat="48.72644" lon="1.73569">
        <ele>125.6</ele>
        <time>2015-04-01T09:42:21.000Z</time>
      </trkpt>
      <trkpt lat="48.72653" lon="1.73575">
        <ele>125.8</ele>
        <time>2015-04-01T09:42:27.000Z</time>
      </trkpt>
      <trkpt lat="48.72659" lon="1.73579">
        <ele>126</ele>
        <time>2015-04-01T09:42:32.000Z</time>
      </trkpt>
      <trkpt lat="48.72661" lon="1.73581">
        <ele>126</ele>
        <time>2015-04-01T09:42:34.000Z</time>
      </trkpt>
      <trkpt lat="48.72666" lon="1.73584">
        <ele>126</ele>
        <time>2015-04-01T09:42:37.000Z</time>
      </trkpt>
      <trkpt lat="48.72672" lon="1.73592">
        <ele>126.4</ele>
        <time>2015-04-01T09:42:44.000Z</time>
      </trkpt>
      <trkpt lat="48.72673" lon="1.73593">
        <ele>126.5</ele>
        <time>2015-04-01T09:42:45.000Z</time>
      </trkpt>
      <trkpt lat="48.72676" lon="1.73597">
        <ele>126.6</ele>
        <time>2015-04-01T09:42:47.000Z</time>
      </trkpt>
      <trkpt lat="48.72679" lon="1.73599">
        <ele>126.8</ele>
        <time>2015-04-01T09:42:51.000Z</time>
      </trkpt>
      <trkpt lat="48.7268" lon="1.736">
        <ele>126.8</ele>
        <time>2015-04-01T09:42:56.000Z</time>
      </trkpt>
      <trkpt lat="48.72691" lon="1.7361">
        <ele>127</ele>
        <time>2015-04-01T09:43:15.000Z</time>
      </trkpt>
      <trkpt lat="48.72692" lon="1.73613">
        <ele>127.1</ele>
        <time>2015-04-01T09:43:16.000Z</time>
      </trkpt>
      <trkpt lat="48.727" lon="1.73619">
        <ele>127.3</ele>
        <time>2015-04-01T09:43:22.000Z</time>
      </trkpt>
      <trkpt lat="48.72705" lon="1.73623">
        <ele>127.4</ele>
        <time>2015-04-01T09:43:26.000Z</time>
      </trkpt>
      <trkpt lat="48.72708" lon="1.73625">
        <ele>127.5</ele>
        <time>2015-04-01T09:43:29.000Z</time>
      </trkpt>
      <trkpt lat="48.72713" lon="1.73636">
        <ele>127.9</ele>
        <time>2015-04-01T09:43:36.000Z</time>
      </trkpt>
      <trkpt lat="48.72721" lon="1.73642">
        <ele>128.1</ele>
        <time>2015-04-01T09:43:42.000Z</time>
      </trkpt>
      <trkpt lat="48.7273" lon="1.73653">
        <ele>128.5</ele>
        <time>2015-04-01T09:43:50.000Z</time>
      </trkpt>
      <trkpt lat="48.72737" lon="1.73661">
        <ele>128.8</ele>
        <time>2015-04-01T09:43:54.000Z</time>
      </trkpt>
      <trkpt lat="48.7274" lon="1.73664">
        <ele>128.9</ele>
        <time>2015-04-01T09:43:55.000Z</time>
      </trkpt>
      <trkpt lat="48.72756" lon="1.7368">
        <ele>129.5</ele>
        <time>2015-04-01T09:44:02.000Z</time>
      </trkpt>
      <trkpt lat="48.72768" lon="1.73694">
        <ele>130</ele>
        <time>2015-04-01T09:44:07.000Z</time>
      </trkpt>
      <trkpt lat="48.72783" lon="1.7371">
        <ele>130.5</ele>
        <time>2015-04-01T09:44:13.000Z</time>
      </trkpt>
      <trkpt lat="48.72799" lon="1.73724">
        <ele>130.3</ele>
        <time>2015-04-01T09:44:19.000Z</time>
      </trkpt>
      <trkpt lat="48.72812" lon="1.7374">
        <ele>130.7</ele>
        <time>2015-04-01T09:44:24.000Z</time>
      </trkpt>
      <trkpt lat="48.72824" lon="1.73754">
        <ele>131.2</ele>
        <time>2015-04-01T09:44:29.000Z</time>
      </trkpt>
      <trkpt lat="48.72839" lon="1.73771">
        <ele>132</ele>
        <time>2015-04-01T09:44:34.000Z</time>
      </trkpt>
      <trkpt lat="48.72858" lon="1.7379">
        <ele>132.9</ele>
        <time>2015-04-01T09:44:40.000Z</time>
      </trkpt>
      <trkpt lat="48.72874" lon="1.73806">
        <ele>133.5</ele>
        <time>2015-04-01T09:44:45.000Z</time>
      </trkpt>
      <trkpt lat="48.72889" lon="1.73823">
        <ele>134</ele>
        <time>2015-04-01T09:44:50.000Z</time>
      </trkpt>
      <trkpt lat="48.72901" lon="1.73839">
        <ele>134.1</ele>
        <time>2015-04-01T09:44:55.000Z</time>
      </trkpt>
      <trkpt lat="48.72917" lon="1.73855">
        <ele>134</ele>
        <time>2015-04-01T09:45:00.000Z</time>
      </trkpt>
      <trkpt lat="48.72939" lon="1.73875">
        <ele>132.9</ele>
        <time>2015-04-01T09:45:07.000Z</time>
      </trkpt>
      <trkpt lat="48.72956" lon="1.73894">
        <ele>132.8</ele>
        <time>2015-04-01T09:45:13.000Z</time>
      </trkpt>
      <trkpt lat="48.72958" lon="1.73897">
        <ele>132.8</ele>
        <time>2015-04-01T09:45:14.000Z</time>
      </trkpt>
      <trkpt lat="48.72979" lon="1.73914">
        <ele>131.7</ele>
        <time>2015-04-01T09:45:20.000Z</time>
      </trkpt>
      <trkpt lat="48.72994" lon="1.73927">
        <ele>131.3</ele>
        <time>2015-04-01T09:45:25.000Z</time>
      </trkpt>
      <trkpt lat="48.73008" lon="1.73939">
        <ele>130.9</ele>
        <time>2015-04-01T09:45:30.000Z</time>
      </trkpt>
      <trkpt lat="48.73022" lon="1.73955">
        <ele>131.1</ele>
        <time>2015-04-01T09:45:36.000Z</time>
      </trkpt>
      <trkpt lat="48.73033" lon="1.73966">
        <ele>131</ele>
        <time>2015-04-01T09:45:41.000Z</time>
      </trkpt>
      <trkpt lat="48.73046" lon="1.73982">
        <ele>131</ele>
        <time>2015-04-01T09:45:46.000Z</time>
      </trkpt>
      <trkpt lat="48.7306" lon="1.73997">
        <ele>130.8</ele>
        <time>2015-04-01T09:45:51.000Z</time>
      </trkpt>
      <trkpt lat="48.73066" lon="1.74002">
        <ele>130.7</ele>
        <time>2015-04-01T09:45:56.000Z</time>
      </trkpt>
      <trkpt lat="48.73068" lon="1.74003">
        <ele>130.7</ele>
        <time>2015-04-01T09:46:00.000Z</time>
      </trkpt>
      <trkpt lat="48.73073" lon="1.74034">
        <ele>131.4</ele>
        <time>2015-04-01T09:46:57.000Z</time>
      </trkpt>
      <trkpt lat="48.73076" lon="1.74038">
        <ele>131.3</ele>
        <time>2015-04-01T09:47:01.000Z</time>
      </trkpt>
      <trkpt lat="48.7308" lon="1.74035">
        <ele>131.1</ele>
        <time>2015-04-01T09:47:05.000Z</time>
      </trkpt>
      <trkpt lat="48.73081" lon="1.74035">
        <ele>131.1</ele>
        <time>2015-04-01T09:47:08.000Z</time>
      </trkpt>
      <trkpt lat="48.73083" lon="1.74026">
        <ele>131</ele>
        <time>2015-04-01T09:47:19.000Z</time>
      </trkpt>
      <trkpt lat="48.73086" lon="1.74023">
        <ele>130.9</ele>
        <time>2015-04-01T09:47:23.000Z</time>
      </trkpt>
      <trkpt lat="48.73086" lon="1.74023">
        <ele>130.9</ele>
        <time>2015-04-01T09:47:24.000Z</time>
      </trkpt>
      <trkpt lat="48.73099" lon="1.74032">
        <ele>131.6</ele>
        <time>2015-04-01T09:47:50.000Z</time>
      </trkpt>
      <trkpt lat="48.73105" lon="1.7404">
        <ele>131.8</ele>
        <time>2015-04-01T09:47:55.000Z</time>
      </trkpt>
      <trkpt lat="48.73112" lon="1.74046">
        <ele>132.1</ele>
        <time>2015-04-01T09:48:00.000Z</time>
      </trkpt>
      <trkpt lat="48.73113" lon="1.74048">
        <ele>132.4</ele>
        <time>2015-04-01T09:48:02.000Z</time>
      </trkpt>
      <trkpt lat="48.73119" lon="1.74058">
        <ele>133.6</ele>
        <time>2015-04-01T09:48:09.000Z</time>
      </trkpt>
      <trkpt lat="48.73123" lon="1.7406">
        <ele>134.3</ele>
        <time>2015-04-01T09:48:12.000Z</time>
      </trkpt>
      <trkpt lat="48.7313" lon="1.74065">
        <ele>135.9</ele>
        <time>2015-04-01T09:48:17.000Z</time>
      </trkpt>
      <trkpt lat="48.73139" lon="1.74078">
        <ele>138.6</ele>
        <time>2015-04-01T09:48:23.000Z</time>
      </trkpt>
      <trkpt lat="48.73143" lon="1.74085">
        <ele>139.2</ele>
        <time>2015-04-01T09:48:28.000Z</time>
      </trkpt>
      <trkpt lat="48.7315" lon="1.7409">
        <ele>139.6</ele>
        <time>2015-04-01T09:48:33.000Z</time>
      </trkpt>
      <trkpt lat="48.73155" lon="1.74094">
        <ele>139.9</ele>
        <time>2015-04-01T09:48:37.000Z</time>
      </trkpt>
      <trkpt lat="48.73163" lon="1.74104">
        <ele>140.6</ele>
        <time>2015-04-01T09:48:45.000Z</time>
      </trkpt>
      <trkpt lat="48.7317" lon="1.74111">
        <ele>141</ele>
        <time>2015-04-01T09:48:51.000Z</time>
      </trkpt>
      <trkpt lat="48.73173" lon="1.74115">
        <ele>141</ele>
        <time>2015-04-01T09:48:55.000Z</time>
      </trkpt>
      <trkpt lat="48.7318" lon="1.74122">
        <ele>141</ele>
        <time>2015-04-01T09:49:01.000Z</time>
      </trkpt>
      <trkpt lat="48.73188" lon="1.74128">
        <ele>141</ele>
        <time>2015-04-01T09:49:07.000Z</time>
      </trkpt>
      <trkpt lat="48.73196" lon="1.74135">
        <ele>141</ele>
        <time>2015-04-01T09:49:15.000Z</time>
      </trkpt>
      <trkpt lat="48.73204" lon="1.74143">
        <ele>141.1</ele>
        <time>2015-04-01T09:49:22.000Z</time>
      </trkpt>
      <trkpt lat="48.7321" lon="1.74149">
        <ele>141.2</ele>
        <time>2015-04-01T09:49:27.000Z</time>
      </trkpt>
      <trkpt lat="48.73219" lon="1.74159">
        <ele>141.1</ele>
        <time>2015-04-01T09:49:34.000Z</time>
      </trkpt>
      <trkpt lat="48.73227" lon="1.74167">
        <ele>140.8</ele>
        <time>2015-04-01T09:49:41.000Z</time>
      </trkpt>
      <trkpt lat="48.73229" lon="1.74171">
        <ele>140.8</ele>
        <time>2015-04-01T09:49:43.000Z</time>
      </trkpt>
      <trkpt lat="48.73238" lon="1.74182">
        <ele>140.4</ele>
        <time>2015-04-01T09:49:49.000Z</time>
      </trkpt>
      <trkpt lat="48.73253" lon="1.74198">
        <ele>139.8</ele>
        <time>2015-04-01T09:49:55.000Z</time>
      </trkpt>
      <trkpt lat="48.7327" lon="1.74214">
        <ele>138.6</ele>
        <time>2015-04-01T09:50:01.000Z</time>
      </trkpt>
      <trkpt lat="48.73284" lon="1.74228">
        <ele>138.4</ele>
        <time>2015-04-01T09:50:06.000Z</time>
      </trkpt>
      <trkpt lat="48.73293" lon="1.74242">
        <ele>138.9</ele>
        <time>2015-04-01T09:50:11.000Z</time>
      </trkpt>
      <trkpt lat="48.73301" lon="1.74252">
        <ele>139.1</ele>
        <time>2015-04-01T09:50:16.000Z</time>
      </trkpt>
      <trkpt lat="48.73314" lon="1.74266">
        <ele>139.8</ele>
        <time>2015-04-01T09:50:21.000Z</time>
      </trkpt>
      <trkpt lat="48.73335" lon="1.74286">
        <ele>140.1</ele>
        <time>2015-04-01T09:50:28.000Z</time>
      </trkpt>
      <trkpt lat="48.73352" lon="1.74303">
        <ele>140.8</ele>
        <time>2015-04-01T09:50:34.000Z</time>
      </trkpt>
      <trkpt lat="48.73368" lon="1.7432">
        <ele>140.4</ele>
        <time>2015-04-01T09:50:40.000Z</time>
      </trkpt>
      <trkpt lat="48.73383" lon="1.74336">
        <ele>139.9</ele>
        <time>2015-04-01T09:50:45.000Z</time>
      </trkpt>
      <trkpt lat="48.73403" lon="1.74355">
        <ele>139.1</ele>
        <time>2015-04-01T09:50:51.000Z</time>
      </trkpt>
      <trkpt lat="48.73425" lon="1.74379">
        <ele>138.9</ele>
        <time>2015-04-01T09:50:58.000Z</time>
      </trkpt>
      <trkpt lat="48.73443" lon="1.74395">
        <ele>139</ele>
        <time>2015-04-01T09:51:03.000Z</time>
      </trkpt>
      <trkpt lat="48.73465" lon="1.74418">
        <ele>139</ele>
        <time>2015-04-01T09:51:09.000Z</time>
      </trkpt>
      <trkpt lat="48.73479" lon="1.74431">
        <ele>139.6</ele>
        <time>2015-04-01T09:51:12.000Z</time>
      </trkpt>
      <trkpt lat="48.73498" lon="1.74451">
        <ele>140</ele>
        <time>2015-04-01T09:51:16.000Z</time>
      </trkpt>
      <trkpt lat="48.73519" lon="1.74474">
        <ele>140.7</ele>
        <time>2015-04-01T09:51:20.000Z</time>
      </trkpt>
      <trkpt lat="48.73547" lon="1.74501">
        <ele>141</ele>
        <time>2015-04-01T09:51:26.000Z</time>
      </trkpt>
      <trkpt lat="48.73554" lon="1.74509">
        <ele>141.3</ele>
        <time>2015-04-01T09:51:28.000Z</time>
      </trkpt>
      <trkpt lat="48.73564" lon="1.7452">
        <ele>141.8</ele>
        <time>2015-04-01T09:51:31.000Z</time>
      </trkpt>
      <trkpt lat="48.7357" lon="1.74528">
        <ele>142</ele>
        <time>2015-04-01T09:51:33.000Z</time>
      </trkpt>
      <trkpt lat="48.73593" lon="1.74551">
        <ele>143.2</ele>
        <time>2015-04-01T09:51:40.000Z</time>
      </trkpt>
      <trkpt lat="48.73616" lon="1.74575">
        <ele>144.1</ele>
        <time>2015-04-01T09:51:47.000Z</time>
      </trkpt>
      <trkpt lat="48.73641" lon="1.746">
        <ele>145</ele>
        <time>2015-04-01T09:51:53.000Z</time>
      </trkpt>
      <trkpt lat="48.73686" lon="1.74645">
        <ele>147.2</ele>
        <time>2015-04-01T09:52:02.000Z</time>
      </trkpt>
      <trkpt lat="48.73712" lon="1.74671">
        <ele>148.1</ele>
        <time>2015-04-01T09:52:08.000Z</time>
      </trkpt>
      <trkpt lat="48.73738" lon="1.74699">
        <ele>149.2</ele>
        <time>2015-04-01T09:52:14.000Z</time>
      </trkpt>
      <trkpt lat="48.73768" lon="1.74731">
        <ele>150.6</ele>
        <time>2015-04-01T09:52:20.000Z</time>
      </trkpt>
      <trkpt lat="48.73806" lon="1.74771">
        <ele>152.5</ele>
        <time>2015-04-01T09:52:28.000Z</time>
      </trkpt>
      <trkpt lat="48.73836" lon="1.748">
        <ele>154.8</ele>
        <time>2015-04-01T09:52:34.000Z</time>
      </trkpt>
      <trkpt lat="48.73866" lon="1.7483">
        <ele>156.7</ele>
        <time>2015-04-01T09:52:41.000Z</time>
      </trkpt>
      <trkpt lat="48.73879" lon="1.74844">
        <ele>157.1</ele>
        <time>2015-04-01T09:52:44.000Z</time>
      </trkpt>
      <trkpt lat="48.73898" lon="1.74863">
        <ele>159.1</ele>
        <time>2015-04-01T09:52:48.000Z</time>
      </trkpt>
      <trkpt lat="48.7391" lon="1.74877">
        <ele>160.1</ele>
        <time>2015-04-01T09:52:51.000Z</time>
      </trkpt>
      <trkpt lat="48.73927" lon="1.74899">
        <ele>162.2</ele>
        <time>2015-04-01T09:52:55.000Z</time>
      </trkpt>
      <trkpt lat="48.73949" lon="1.74922">
        <ele>165.1</ele>
        <time>2015-04-01T09:53:01.000Z</time>
      </trkpt>
      <trkpt lat="48.73958" lon="1.74935">
        <ele>167</ele>
        <time>2015-04-01T09:53:06.000Z</time>
      </trkpt>
      <trkpt lat="48.73961" lon="1.74938">
        <ele>167.5</ele>
        <time>2015-04-01T09:53:09.000Z</time>
      </trkpt>
      <trkpt lat="48.73968" lon="1.74945">
        <ele>168.5</ele>
        <time>2015-04-01T09:53:16.000Z</time>
      </trkpt>
      <trkpt lat="48.73974" lon="1.74952">
        <ele>169.9</ele>
        <time>2015-04-01T09:53:20.000Z</time>
      </trkpt>
      <trkpt lat="48.73975" lon="1.74953">
        <ele>170.3</ele>
        <time>2015-04-01T09:53:21.000Z</time>
      </trkpt>
      <trkpt lat="48.73983" lon="1.74959">
        <ele>172.3</ele>
        <time>2015-04-01T09:53:28.000Z</time>
      </trkpt>
      <trkpt lat="48.73991" lon="1.74965">
        <ele>174.1</ele>
        <time>2015-04-01T09:53:34.000Z</time>
      </trkpt>
      <trkpt lat="48.73993" lon="1.74968">
        <ele>174.6</ele>
        <time>2015-04-01T09:53:36.000Z</time>
      </trkpt>
      <trkpt lat="48.73999" lon="1.74976">
        <ele>176.1</ele>
        <time>2015-04-01T09:53:43.000Z</time>
      </trkpt>
      <trkpt lat="48.74008" lon="1.74984">
        <ele>177.4</ele>
        <time>2015-04-01T09:53:51.000Z</time>
      </trkpt>
      <trkpt lat="48.74014" lon="1.74989">
        <ele>178.1</ele>
        <time>2015-04-01T09:53:56.000Z</time>
      </trkpt>
      <trkpt lat="48.7402" lon="1.74992">
        <ele>178.5</ele>
        <time>2015-04-01T09:54:00.000Z</time>
      </trkpt>
      <trkpt lat="48.74028" lon="1.7499">
        <ele>179</ele>
        <time>2015-04-01T09:54:05.000Z</time>
      </trkpt>
      <trkpt lat="48.74032" lon="1.74989">
        <ele>179</ele>
        <time>2015-04-01T09:54:08.000Z</time>
      </trkpt>
      <trkpt lat="48.74039" lon="1.75004">
        <ele>179</ele>
        <time>2015-04-01T09:54:13.000Z</time>
      </trkpt>
      <trkpt lat="48.74046" lon="1.75022">
        <ele>179</ele>
        <time>2015-04-01T09:54:18.000Z</time>
      </trkpt>
      <trkpt lat="48.74049" lon="1.75036">
        <ele>179</ele>
        <time>2015-04-01T09:54:24.000Z</time>
      </trkpt>
      <trkpt lat="48.74054" lon="1.75044">
        <ele>179</ele>
        <time>2015-04-01T09:54:29.000Z</time>
      </trkpt>
      <trkpt lat="48.74061" lon="1.75051">
        <ele>179.2</ele>
        <time>2015-04-01T09:54:34.000Z</time>
      </trkpt>
      <trkpt lat="48.74068" lon="1.75059">
        <ele>179.5</ele>
        <time>2015-04-01T09:54:39.000Z</time>
      </trkpt>
      <trkpt lat="48.74074" lon="1.75064">
        <ele>179.8</ele>
        <time>2015-04-01T09:54:44.000Z</time>
      </trkpt>
      <trkpt lat="48.74079" lon="1.75069">
        <ele>179.9</ele>
        <time>2015-04-01T09:54:48.000Z</time>
      </trkpt>
      <trkpt lat="48.74081" lon="1.75072">
        <ele>180</ele>
        <time>2015-04-01T09:54:50.000Z</time>
      </trkpt>
      <trkpt lat="48.74084" lon="1.75076">
        <ele>180</ele>
        <time>2015-04-01T09:54:53.000Z</time>
      </trkpt>
      <trkpt lat="48.74084" lon="1.75078">
        <ele>180</ele>
        <time>2015-04-01T09:54:56.000Z</time>
      </trkpt>
      <trkpt lat="48.74093" lon="1.75093">
        <ele>180</ele>
        <time>2015-04-01T09:55:19.000Z</time>
      </trkpt>
      <trkpt lat="48.74101" lon="1.75102">
        <ele>180</ele>
        <time>2015-04-01T09:55:24.000Z</time>
      </trkpt>
      <trkpt lat="48.74101" lon="1.75104">
        <ele>180</ele>
        <time>2015-04-01T09:55:25.000Z</time>
      </trkpt>
      <trkpt lat="48.74105" lon="1.75109">
        <ele>180</ele>
        <time>2015-04-01T09:55:29.000Z</time>
      </trkpt>
      <trkpt lat="48.74114" lon="1.75124">
        <ele>180</ele>
        <time>2015-04-01T09:55:37.000Z</time>
      </trkpt>
      <trkpt lat="48.74117" lon="1.75129">
        <ele>180</ele>
        <time>2015-04-01T09:55:40.000Z</time>
      </trkpt>
      <trkpt lat="48.74125" lon="1.75131">
        <ele>180</ele>
        <time>2015-04-01T09:55:48.000Z</time>
      </trkpt>
      <trkpt lat="48.74128" lon="1.7513">
        <ele>180</ele>
        <time>2015-04-01T09:55:50.000Z</time>
      </trkpt>
      <trkpt lat="48.74137" lon="1.75131">
        <ele>180</ele>
        <time>2015-04-01T09:55:55.000Z</time>
      </trkpt>
      <trkpt lat="48.74144" lon="1.75129">
        <ele>179.9</ele>
        <time>2015-04-01T09:56:01.000Z</time>
      </trkpt>
      <trkpt lat="48.74151" lon="1.75128">
        <ele>179.7</ele>
        <time>2015-04-01T09:56:07.000Z</time>
      </trkpt>
      <trkpt lat="48.74159" lon="1.75128">
        <ele>179.6</ele>
        <time>2015-04-01T09:56:12.000Z</time>
      </trkpt>
      <trkpt lat="48.74163" lon="1.75126">
        <ele>179.5</ele>
        <time>2015-04-01T09:56:15.000Z</time>
      </trkpt>
      <trkpt lat="48.74169" lon="1.75125">
        <ele>179.5</ele>
        <time>2015-04-01T09:56:19.000Z</time>
      </trkpt>
      <trkpt lat="48.74184" lon="1.75124">
        <ele>179.5</ele>
        <time>2015-04-01T09:56:28.000Z</time>
      </trkpt>
      <trkpt lat="48.74194" lon="1.75125">
        <ele>179.5</ele>
        <time>2015-04-01T09:56:34.000Z</time>
      </trkpt>
      <trkpt lat="48.74203" lon="1.75123">
        <ele>179.4</ele>
        <time>2015-04-01T09:56:40.000Z</time>
      </trkpt>
      <trkpt lat="48.74204" lon="1.75123">
        <ele>179.4</ele>
        <time>2015-04-01T09:56:43.000Z</time>
      </trkpt>
      <trkpt lat="48.74216" lon="1.75124">
        <ele>179.1</ele>
        <time>2015-04-01T09:57:27.000Z</time>
      </trkpt>
      <trkpt lat="48.74227" lon="1.75122">
        <ele>178.8</ele>
        <time>2015-04-01T09:57:33.000Z</time>
      </trkpt>
      <trkpt lat="48.74236" lon="1.75119">
        <ele>178.5</ele>
        <time>2015-04-01T09:57:39.000Z</time>
      </trkpt>
      <trkpt lat="48.74244" lon="1.75119">
        <ele>178.2</ele>
        <time>2015-04-01T09:57:45.000Z</time>
      </trkpt>
      <trkpt lat="48.74256" lon="1.75118">
        <ele>177.8</ele>
        <time>2015-04-01T09:57:54.000Z</time>
      </trkpt>
      <trkpt lat="48.74268" lon="1.75117">
        <ele>177.5</ele>
        <time>2015-04-01T09:58:03.000Z</time>
      </trkpt>
      <trkpt lat="48.74279" lon="1.75116">
        <ele>177.2</ele>
        <time>2015-04-01T09:58:11.000Z</time>
      </trkpt>
      <trkpt lat="48.74293" lon="1.75114">
        <ele>177.1</ele>
        <time>2015-04-01T09:58:21.000Z</time>
      </trkpt>
      <trkpt lat="48.74305" lon="1.75114">
        <ele>177</ele>
        <time>2015-04-01T09:58:29.000Z</time>
      </trkpt>
      <trkpt lat="48.74321" lon="1.75113">
        <ele>176.5</ele>
        <time>2015-04-01T09:58:39.000Z</time>
      </trkpt>
      <trkpt lat="48.74328" lon="1.75113">
        <ele>176.2</ele>
        <time>2015-04-01T09:58:44.000Z</time>
      </trkpt>
      <trkpt lat="48.74334" lon="1.75112">
        <ele>176</ele>
        <time>2015-04-01T09:58:48.000Z</time>
      </trkpt>
      <trkpt lat="48.74337" lon="1.75104">
        <ele>176.1</ele>
        <time>2015-04-01T09:58:53.000Z</time>
      </trkpt>
      <trkpt lat="48.7434" lon="1.75089">
        <ele>176.5</ele>
        <time>2015-04-01T09:58:59.000Z</time>
      </trkpt>
      <trkpt lat="48.74345" lon="1.75075">
        <ele>176.6</ele>
        <time>2015-04-01T09:59:05.000Z</time>
      </trkpt>
      <trkpt lat="48.74345" lon="1.75064">
        <ele>176.6</ele>
        <time>2015-04-01T09:59:11.000Z</time>
      </trkpt>
      <trkpt lat="48.74346" lon="1.75061">
        <ele>176.6</ele>
        <time>2015-04-01T09:59:12.000Z</time>
      </trkpt>
      <trkpt lat="48.74351" lon="1.75051">
        <ele>176.4</ele>
        <time>2015-04-01T09:59:18.000Z</time>
      </trkpt>
      <trkpt lat="48.74356" lon="1.75035">
        <ele>176.2</ele>
        <time>2015-04-01T09:59:26.000Z</time>
      </trkpt>
      <trkpt lat="48.74359" lon="1.75018">
        <ele>176.1</ele>
        <time>2015-04-01T09:59:34.000Z</time>
      </trkpt>
      <trkpt lat="48.74363" lon="1.75">
        <ele>176</ele>
        <time>2015-04-01T09:59:42.000Z</time>
      </trkpt>
      <trkpt lat="48.74364" lon="1.7499">
        <ele>176.3</ele>
        <time>2015-04-01T09:59:47.000Z</time>
      </trkpt>
      <trkpt lat="48.74366" lon="1.74986">
        <ele>176.4</ele>
        <time>2015-04-01T09:59:49.000Z</time>
      </trkpt>
      <trkpt lat="48.74369" lon="1.74973">
        <ele>176.7</ele>
        <time>2015-04-01T09:59:55.000Z</time>
      </trkpt>
      <trkpt lat="48.74371" lon="1.74957">
        <ele>176.6</ele>
        <time>2015-04-01T10:00:03.000Z</time>
      </trkpt>
      <trkpt lat="48.74375" lon="1.74944">
        <ele>176.5</ele>
        <time>2015-04-01T10:00:10.000Z</time>
      </trkpt>
      <trkpt lat="48.74378" lon="1.7493">
        <ele>176.4</ele>
        <time>2015-04-01T10:00:17.000Z</time>
      </trkpt>
      <trkpt lat="48.74381" lon="1.74916">
        <ele>176.3</ele>
        <time>2015-04-01T10:00:23.000Z</time>
      </trkpt>
      <trkpt lat="48.74382" lon="1.74915">
        <ele>176.3</ele>
        <time>2015-04-01T10:00:24.000Z</time>
      </trkpt>
      <trkpt lat="48.74383" lon="1.74903">
        <ele>176.6</ele>
        <time>2015-04-01T10:00:29.000Z</time>
      </trkpt>
      <trkpt lat="48.74385" lon="1.7489">
        <ele>177</ele>
        <time>2015-04-01T10:00:35.000Z</time>
      </trkpt>
      <trkpt lat="48.74388" lon="1.74879">
        <ele>177</ele>
        <time>2015-04-01T10:00:40.000Z</time>
      </trkpt>
      <trkpt lat="48.74388" lon="1.74875">
        <ele>177</ele>
        <time>2015-04-01T10:00:42.000Z</time>
      </trkpt>
      <trkpt lat="48.74391" lon="1.74858">
        <ele>176.9</ele>
        <time>2015-04-01T10:00:50.000Z</time>
      </trkpt>
      <trkpt lat="48.74396" lon="1.74849">
        <ele>176.7</ele>
        <time>2015-04-01T10:00:55.000Z</time>
      </trkpt>
      <trkpt lat="48.74397" lon="1.74847">
        <ele>176.7</ele>
        <time>2015-04-01T10:00:56.000Z</time>
      </trkpt>
      <trkpt lat="48.744" lon="1.74833">
        <ele>176.6</ele>
        <time>2015-04-01T10:01:03.000Z</time>
      </trkpt>
      <trkpt lat="48.74402" lon="1.74828">
        <ele>176.5</ele>
        <time>2015-04-01T10:01:06.000Z</time>
      </trkpt>
      <trkpt lat="48.74405" lon="1.74815">
        <ele>176.4</ele>
        <time>2015-04-01T10:01:13.000Z</time>
      </trkpt>
      <trkpt lat="48.74407" lon="1.74811">
        <ele>176.4</ele>
        <time>2015-04-01T10:01:15.000Z</time>
      </trkpt>
      <trkpt lat="48.74408" lon="1.74799">
        <ele>176.5</ele>
        <time>2015-04-01T10:01:21.000Z</time>
      </trkpt>
      <trkpt lat="48.74409" lon="1.74793">
        <ele>176.6</ele>
        <time>2015-04-01T10:01:24.000Z</time>
      </trkpt>
      <trkpt lat="48.74411" lon="1.74778">
        <ele>177</ele>
        <time>2015-04-01T10:01:31.000Z</time>
      </trkpt>
      <trkpt lat="48.74413" lon="1.74773">
        <ele>177</ele>
        <time>2015-04-01T10:01:34.000Z</time>
      </trkpt>
      <trkpt lat="48.74416" lon="1.74767">
        <ele>177</ele>
        <time>2015-04-01T10:01:38.000Z</time>
      </trkpt>
      <trkpt lat="48.74417" lon="1.74764">
        <ele>177</ele>
        <time>2015-04-01T10:01:40.000Z</time>
      </trkpt>
      <trkpt lat="48.74418" lon="1.74755">
        <ele>176.9</ele>
        <time>2015-04-01T10:01:44.000Z</time>
      </trkpt>
      <trkpt lat="48.7442" lon="1.74746">
        <ele>176.9</ele>
        <time>2015-04-01T10:01:48.000Z</time>
      </trkpt>
      <trkpt lat="48.74425" lon="1.74724">
        <ele>176.7</ele>
        <time>2015-04-01T10:01:58.000Z</time>
      </trkpt>
      <trkpt lat="48.74426" lon="1.7472">
        <ele>176.7</ele>
        <time>2015-04-01T10:02:00.000Z</time>
      </trkpt>
      <trkpt lat="48.74429" lon="1.74705">
        <ele>176.6</ele>
        <time>2015-04-01T10:02:07.000Z</time>
      </trkpt>
      <trkpt lat="48.74431" lon="1.74696">
        <ele>176.5</ele>
        <time>2015-04-01T10:02:11.000Z</time>
      </trkpt>
      <trkpt lat="48.74432" lon="1.74688">
        <ele>176.6</ele>
        <time>2015-04-01T10:02:15.000Z</time>
      </trkpt>
      <trkpt lat="48.74434" lon="1.74676">
        <ele>176.8</ele>
        <time>2015-04-01T10:02:20.000Z</time>
      </trkpt>
      <trkpt lat="48.74435" lon="1.74675">
        <ele>176.8</ele>
        <time>2015-04-01T10:02:21.000Z</time>
      </trkpt>
      <trkpt lat="48.74439" lon="1.74665">
        <ele>177</ele>
        <time>2015-04-01T10:02:28.000Z</time>
      </trkpt>
      <trkpt lat="48.74443" lon="1.74654">
        <ele>177</ele>
        <time>2015-04-01T10:02:34.000Z</time>
      </trkpt>
      <trkpt lat="48.74444" lon="1.74652">
        <ele>177</ele>
        <time>2015-04-01T10:02:35.000Z</time>
      </trkpt>
      <trkpt lat="48.74446" lon="1.74645">
        <ele>177</ele>
        <time>2015-04-01T10:02:39.000Z</time>
      </trkpt>
      <trkpt lat="48.74447" lon="1.74637">
        <ele>176.9</ele>
        <time>2015-04-01T10:02:43.000Z</time>
      </trkpt>
      <trkpt lat="48.74451" lon="1.74621">
        <ele>176.8</ele>
        <time>2015-04-01T10:02:51.000Z</time>
      </trkpt>
      <trkpt lat="48.74454" lon="1.7461">
        <ele>176.7</ele>
        <time>2015-04-01T10:02:56.000Z</time>
      </trkpt>
      <trkpt lat="48.74455" lon="1.74607">
        <ele>176.6</ele>
        <time>2015-04-01T10:02:58.000Z</time>
      </trkpt>
      <trkpt lat="48.74457" lon="1.74598">
        <ele>176.5</ele>
        <time>2015-04-01T10:03:02.000Z</time>
      </trkpt>
      <trkpt lat="48.74459" lon="1.74585">
        <ele>176.5</ele>
        <time>2015-04-01T10:03:08.000Z</time>
      </trkpt>
      <trkpt lat="48.74463" lon="1.74568">
        <ele>176.3</ele>
        <time>2015-04-01T10:03:16.000Z</time>
      </trkpt>
      <trkpt lat="48.74468" lon="1.74555">
        <ele>176.2</ele>
        <time>2015-04-01T10:03:23.000Z</time>
      </trkpt>
      <trkpt lat="48.74468" lon="1.74552">
        <ele>176.1</ele>
        <time>2015-04-01T10:03:24.000Z</time>
      </trkpt>
      <trkpt lat="48.74469" lon="1.74543">
        <ele>176.1</ele>
        <time>2015-04-01T10:03:28.000Z</time>
      </trkpt>
      <trkpt lat="48.74473" lon="1.74528">
        <ele>176</ele>
        <time>2015-04-01T10:03:35.000Z</time>
      </trkpt>
      <trkpt lat="48.74476" lon="1.74516">
        <ele>175.9</ele>
        <time>2015-04-01T10:03:41.000Z</time>
      </trkpt>
      <trkpt lat="48.74478" lon="1.74506">
        <ele>175.8</ele>
        <time>2015-04-01T10:03:46.000Z</time>
      </trkpt>
      <trkpt lat="48.74481" lon="1.74494">
        <ele>175.7</ele>
        <time>2015-04-01T10:03:52.000Z</time>
      </trkpt>
      <trkpt lat="48.74485" lon="1.74483">
        <ele>175.5</ele>
        <time>2015-04-01T10:03:58.000Z</time>
      </trkpt>
      <trkpt lat="48.7449" lon="1.7447">
        <ele>175.4</ele>
        <time>2015-04-01T10:04:05.000Z</time>
      </trkpt>
      <trkpt lat="48.74492" lon="1.74456">
        <ele>175.3</ele>
        <time>2015-04-01T10:04:11.000Z</time>
      </trkpt>
      <trkpt lat="48.74495" lon="1.74443">
        <ele>175.2</ele>
        <time>2015-04-01T10:04:17.000Z</time>
      </trkpt>
      <trkpt lat="48.74499" lon="1.74426">
        <ele>175.7</ele>
        <time>2015-04-01T10:04:26.000Z</time>
      </trkpt>
      <trkpt lat="48.74503" lon="1.74413">
        <ele>175.8</ele>
        <time>2015-04-01T10:04:32.000Z</time>
      </trkpt>
      <trkpt lat="48.74504" lon="1.7441">
        <ele>175.8</ele>
        <time>2015-04-01T10:04:34.000Z</time>
      </trkpt>
      <trkpt lat="48.74503" lon="1.74402">
        <ele>175.8</ele>
        <time>2015-04-01T10:04:38.000Z</time>
      </trkpt>
      <trkpt lat="48.74507" lon="1.74389">
        <ele>175.7</ele>
        <time>2015-04-01T10:04:45.000Z</time>
      </trkpt>
      <trkpt lat="48.74512" lon="1.74374">
        <ele>175.6</ele>
        <time>2015-04-01T10:04:53.000Z</time>
      </trkpt>
      <trkpt lat="48.74514" lon="1.74369">
        <ele>175.5</ele>
        <time>2015-04-01T10:04:56.000Z</time>
      </trkpt>
      <trkpt lat="48.74514" lon="1.74351">
        <ele>175.5</ele>
        <time>2015-04-01T10:05:03.000Z</time>
      </trkpt>
      <trkpt lat="48.7452" lon="1.74338">
        <ele>175.3</ele>
        <time>2015-04-01T10:05:10.000Z</time>
      </trkpt>
      <trkpt lat="48.74524" lon="1.74326">
        <ele>175.1</ele>
        <time>2015-04-01T10:05:17.000Z</time>
      </trkpt>
      <trkpt lat="48.74527" lon="1.74314">
        <ele>175</ele>
        <time>2015-04-01T10:05:22.000Z</time>
      </trkpt>
      <trkpt lat="48.7453" lon="1.74302">
        <ele>174.9</ele>
        <time>2015-04-01T10:05:28.000Z</time>
      </trkpt>
      <trkpt lat="48.74536" lon="1.74291">
        <ele>174.7</ele>
        <time>2015-04-01T10:05:34.000Z</time>
      </trkpt>
      <trkpt lat="48.74539" lon="1.74284">
        <ele>174.6</ele>
        <time>2015-04-01T10:05:38.000Z</time>
      </trkpt>
      <trkpt lat="48.74547" lon="1.74265">
        <ele>174.3</ele>
        <time>2015-04-01T10:05:48.000Z</time>
      </trkpt>
      <trkpt lat="48.74551" lon="1.7425">
        <ele>174.2</ele>
        <time>2015-04-01T10:05:56.000Z</time>
      </trkpt>
      <trkpt lat="48.74551" lon="1.74232">
        <ele>174.2</ele>
        <time>2015-04-01T10:06:02.000Z</time>
      </trkpt>
      <trkpt lat="48.74551" lon="1.7423">
        <ele>174.2</ele>
        <time>2015-04-01T10:06:03.000Z</time>
      </trkpt>
      <trkpt lat="48.74551" lon="1.7422">
        <ele>174.1</ele>
        <time>2015-04-01T10:06:07.000Z</time>
      </trkpt>
      <trkpt lat="48.74552" lon="1.742">
        <ele>173.3</ele>
        <time>2015-04-01T10:06:16.000Z</time>
      </trkpt>
      <trkpt lat="48.74556" lon="1.74185">
        <ele>172.3</ele>
        <time>2015-04-01T10:06:23.000Z</time>
      </trkpt>
      <trkpt lat="48.74557" lon="1.74181">
        <ele>172</ele>
        <time>2015-04-01T10:06:25.000Z</time>
      </trkpt>
      <trkpt lat="48.74562" lon="1.74177">
        <ele>171.5</ele>
        <time>2015-04-01T10:06:30.000Z</time>
      </trkpt>
      <trkpt lat="48.74562" lon="1.74177">
        <ele>171.5</ele>
        <time>2015-04-01T10:06:31.000Z</time>
      </trkpt>
      <trkpt lat="48.7456" lon="1.74169">
        <ele>171</ele>
        <time>2015-04-01T10:06:38.000Z</time>
      </trkpt>
      <trkpt lat="48.74561" lon="1.74164">
        <ele>170.4</ele>
        <time>2015-04-01T10:06:40.000Z</time>
      </trkpt>
      <trkpt lat="48.74564" lon="1.7415">
        <ele>167.8</ele>
        <time>2015-04-01T10:06:48.000Z</time>
      </trkpt>
      <trkpt lat="48.74567" lon="1.74139">
        <ele>165.6</ele>
        <time>2015-04-01T10:06:55.000Z</time>
      </trkpt>
      <trkpt lat="48.7457" lon="1.74126">
        <ele>163.7</ele>
        <time>2015-04-01T10:07:00.000Z</time>
      </trkpt>
      <trkpt lat="48.74575" lon="1.74111">
        <ele>160.9</ele>
        <time>2015-04-01T10:07:06.000Z</time>
      </trkpt>
      <trkpt lat="48.74577" lon="1.74101">
        <ele>161.2</ele>
        <time>2015-04-01T10:07:10.000Z</time>
      </trkpt>
      <trkpt lat="48.7458" lon="1.74089">
        <ele>161.4</ele>
        <time>2015-04-01T10:07:16.000Z</time>
      </trkpt>
      <trkpt lat="48.74585" lon="1.74079">
        <ele>160.6</ele>
        <time>2015-04-01T10:07:22.000Z</time>
      </trkpt>
      <trkpt lat="48.74589" lon="1.74068">
        <ele>159.8</ele>
        <time>2015-04-01T10:07:28.000Z</time>
      </trkpt>
      <trkpt lat="48.74593" lon="1.74052">
        <ele>158.7</ele>
        <time>2015-04-01T10:07:34.000Z</time>
      </trkpt>
      <trkpt lat="48.74593" lon="1.74047">
        <ele>158.4</ele>
        <time>2015-04-01T10:07:35.000Z</time>
      </trkpt>
      <trkpt lat="48.74596" lon="1.74032">
        <ele>157.3</ele>
        <time>2015-04-01T10:07:40.000Z</time>
      </trkpt>
      <trkpt lat="48.74602" lon="1.74017">
        <ele>157.3</ele>
        <time>2015-04-01T10:07:47.000Z</time>
      </trkpt>
      <trkpt lat="48.74604" lon="1.73998">
        <ele>158.4</ele>
        <time>2015-04-01T10:07:55.000Z</time>
      </trkpt>
      <trkpt lat="48.74609" lon="1.73988">
        <ele>158.6</ele>
        <time>2015-04-01T10:08:02.000Z</time>
      </trkpt>
      <trkpt lat="48.74609" lon="1.73983">
        <ele>158.7</ele>
        <time>2015-04-01T10:08:04.000Z</time>
      </trkpt>
      <trkpt lat="48.74615" lon="1.73969">
        <ele>158.6</ele>
        <time>2015-04-01T10:08:12.000Z</time>
      </trkpt>
      <trkpt lat="48.74617" lon="1.73954">
        <ele>158.5</ele>
        <time>2015-04-01T10:08:18.000Z</time>
      </trkpt>
      <trkpt lat="48.7462" lon="1.7393">
        <ele>158.5</ele>
        <time>2015-04-01T10:08:24.000Z</time>
      </trkpt>
      <trkpt lat="48.74622" lon="1.73921">
        <ele>158.5</ele>
        <time>2015-04-01T10:08:28.000Z</time>
      </trkpt>
      <trkpt lat="48.74625" lon="1.73914">
        <ele>158.8</ele>
        <time>2015-04-01T10:08:32.000Z</time>
      </trkpt>
      <trkpt lat="48.7463" lon="1.73904">
        <ele>159.4</ele>
        <time>2015-04-01T10:08:39.000Z</time>
      </trkpt>
      <trkpt lat="48.74629" lon="1.73901">
        <ele>159.7</ele>
        <time>2015-04-01T10:08:41.000Z</time>
      </trkpt>
      <trkpt lat="48.74625" lon="1.73898">
        <ele>160.2</ele>
        <time>2015-04-01T10:08:48.000Z</time>
      </trkpt>
      <trkpt lat="48.74626" lon="1.73893">
        <ele>160.6</ele>
        <time>2015-04-01T10:08:53.000Z</time>
      </trkpt>
      <trkpt lat="48.74624" lon="1.7389">
        <ele>160.9</ele>
        <time>2015-04-01T10:08:58.000Z</time>
      </trkpt>
      <trkpt lat="48.74624" lon="1.7389">
        <ele>161</ele>
        <time>2015-04-01T10:08:59.000Z</time>
      </trkpt>
      <trkpt lat="48.74621" lon="1.73885">
        <ele>161.8</ele>
        <time>2015-04-01T10:09:07.000Z</time>
      </trkpt>
      <trkpt lat="48.74623" lon="1.73879">
        <ele>162.3</ele>
        <time>2015-04-01T10:09:11.000Z</time>
      </trkpt>
      <trkpt lat="48.74624" lon="1.73877">
        <ele>162.5</ele>
        <time>2015-04-01T10:09:13.000Z</time>
      </trkpt>
      <trkpt lat="48.7463" lon="1.73867">
        <ele>162.4</ele>
        <time>2015-04-01T10:09:19.000Z</time>
      </trkpt>
      <trkpt lat="48.74633" lon="1.73864">
        <ele>162.1</ele>
        <time>2015-04-01T10:09:21.000Z</time>
      </trkpt>
      <trkpt lat="48.74642" lon="1.73854">
        <ele>162.1</ele>
        <time>2015-04-01T10:09:26.000Z</time>
      </trkpt>
      <trkpt lat="48.74646" lon="1.73838">
        <ele>164.3</ele>
        <time>2015-04-01T10:09:32.000Z</time>
      </trkpt>
      <trkpt lat="48.7465" lon="1.73824">
        <ele>166.1</ele>
        <time>2015-04-01T10:09:38.000Z</time>
      </trkpt>
      <trkpt lat="48.74652" lon="1.73811">
        <ele>167.6</ele>
        <time>2015-04-01T10:09:44.000Z</time>
      </trkpt>
      <trkpt lat="48.74657" lon="1.73796">
        <ele>169.9</ele>
        <time>2015-04-01T10:09:49.000Z</time>
      </trkpt>
      <trkpt lat="48.7466" lon="1.73788">
        <ele>171.3</ele>
        <time>2015-04-01T10:09:55.000Z</time>
      </trkpt>
      <trkpt lat="48.74663" lon="1.73777">
        <ele>172.6</ele>
        <time>2015-04-01T10:10:01.000Z</time>
      </trkpt>
      <trkpt lat="48.74666" lon="1.73771">
        <ele>173.2</ele>
        <time>2015-04-01T10:10:05.000Z</time>
      </trkpt>
      <trkpt lat="48.74669" lon="1.7376">
        <ele>173.7</ele>
        <time>2015-04-01T10:10:11.000Z</time>
      </trkpt>
      <trkpt lat="48.74671" lon="1.73748">
        <ele>174</ele>
        <time>2015-04-01T10:10:17.000Z</time>
      </trkpt>
      <trkpt lat="48.74673" lon="1.7374">
        <ele>174</ele>
        <time>2015-04-01T10:10:22.000Z</time>
      </trkpt>
      <trkpt lat="48.74674" lon="1.73735">
        <ele>174</ele>
        <time>2015-04-01T10:10:25.000Z</time>
      </trkpt>
      <trkpt lat="48.74673" lon="1.7372">
        <ele>174.1</ele>
        <time>2015-04-01T10:10:31.000Z</time>
      </trkpt>
      <trkpt lat="48.74678" lon="1.73705">
        <ele>174.6</ele>
        <time>2015-04-01T10:10:37.000Z</time>
      </trkpt>
      <trkpt lat="48.74678" lon="1.73702">
        <ele>174.7</ele>
        <time>2015-04-01T10:10:38.000Z</time>
      </trkpt>
      <trkpt lat="48.74679" lon="1.73684">
        <ele>175</ele>
        <time>2015-04-01T10:10:45.000Z</time>
      </trkpt>
      <trkpt lat="48.74683" lon="1.73675">
        <ele>175</ele>
        <time>2015-04-01T10:10:50.000Z</time>
      </trkpt>
      <trkpt lat="48.74686" lon="1.7366">
        <ele>175.1</ele>
        <time>2015-04-01T10:10:57.000Z</time>
      </trkpt>
      <trkpt lat="48.7469" lon="1.7365">
        <ele>175.1</ele>
        <time>2015-04-01T10:11:03.000Z</time>
      </trkpt>
      <trkpt lat="48.7469" lon="1.73648">
        <ele>175.1</ele>
        <time>2015-04-01T10:11:04.000Z</time>
      </trkpt>
      <trkpt lat="48.74694" lon="1.73632">
        <ele>175</ele>
        <time>2015-04-01T10:11:12.000Z</time>
      </trkpt>
      <trkpt lat="48.74699" lon="1.73618">
        <ele>175</ele>
        <time>2015-04-01T10:11:20.000Z</time>
      </trkpt>
      <trkpt lat="48.74701" lon="1.73614">
        <ele>175</ele>
        <time>2015-04-01T10:11:25.000Z</time>
      </trkpt>
      <trkpt lat="48.74705" lon="1.73604">
        <ele>175.2</ele>
        <time>2015-04-01T10:11:58.000Z</time>
      </trkpt>
      <trkpt lat="48.74706" lon="1.73603">
        <ele>175.2</ele>
        <time>2015-04-01T10:11:59.000Z</time>
      </trkpt>
      <trkpt lat="48.7471" lon="1.73594">
        <ele>175.3</ele>
        <time>2015-04-01T10:12:03.000Z</time>
      </trkpt>
      <trkpt lat="48.74711" lon="1.7358">
        <ele>175.4</ele>
        <time>2015-04-01T10:12:09.000Z</time>
      </trkpt>
      <trkpt lat="48.74717" lon="1.73566">
        <ele>175.2</ele>
        <time>2015-04-01T10:12:16.000Z</time>
      </trkpt>
      <trkpt lat="48.74718" lon="1.73564">
        <ele>175.2</ele>
        <time>2015-04-01T10:12:19.000Z</time>
      </trkpt>
      <trkpt lat="48.74717" lon="1.73544">
        <ele>175.5</ele>
        <time>2015-04-01T10:12:50.000Z</time>
      </trkpt>
      <trkpt lat="48.74718" lon="1.7354">
        <ele>175.6</ele>
        <time>2015-04-01T10:12:51.000Z</time>
      </trkpt>
      <trkpt lat="48.7472" lon="1.73525">
        <ele>176</ele>
        <time>2015-04-01T10:12:58.000Z</time>
      </trkpt>
      <trkpt lat="48.74726" lon="1.73513">
        <ele>175.9</ele>
        <time>2015-04-01T10:13:05.000Z</time>
      </trkpt>
      <trkpt lat="48.74729" lon="1.73508">
        <ele>175.8</ele>
        <time>2015-04-01T10:13:08.000Z</time>
      </trkpt>
      <trkpt lat="48.74733" lon="1.73488">
        <ele>175.6</ele>
        <time>2015-04-01T10:13:18.000Z</time>
      </trkpt>
      <trkpt lat="48.74735" lon="1.73477">
        <ele>175.5</ele>
        <time>2015-04-01T10:13:24.000Z</time>
      </trkpt>
      <trkpt lat="48.74738" lon="1.73467">
        <ele>175.4</ele>
        <time>2015-04-01T10:13:29.000Z</time>
      </trkpt>
      <trkpt lat="48.74743" lon="1.73457">
        <ele>175.2</ele>
        <time>2015-04-01T10:13:35.000Z</time>
      </trkpt>
      <trkpt lat="48.74746" lon="1.73443">
        <ele>175.2</ele>
        <time>2015-04-01T10:13:42.000Z</time>
      </trkpt>
      <trkpt lat="48.7475" lon="1.73428">
        <ele>175.6</ele>
        <time>2015-04-01T10:13:49.000Z</time>
      </trkpt>
      <trkpt lat="48.74756" lon="1.73411">
        <ele>175.8</ele>
        <time>2015-04-01T10:13:56.000Z</time>
      </trkpt>
      <trkpt lat="48.74761" lon="1.73396">
        <ele>175.6</ele>
        <time>2015-04-01T10:14:03.000Z</time>
      </trkpt>
      <trkpt lat="48.74768" lon="1.73378">
        <ele>175.4</ele>
        <time>2015-04-01T10:14:12.000Z</time>
      </trkpt>
      <trkpt lat="48.74773" lon="1.73363">
        <ele>175.2</ele>
        <time>2015-04-01T10:14:19.000Z</time>
      </trkpt>
      <trkpt lat="48.7478" lon="1.73347">
        <ele>175.5</ele>
        <time>2015-04-01T10:14:27.000Z</time>
      </trkpt>
      <trkpt lat="48.74784" lon="1.73325">
        <ele>175.8</ele>
        <time>2015-04-01T10:14:36.000Z</time>
      </trkpt>
      <trkpt lat="48.74783" lon="1.73318">
        <ele>175.8</ele>
        <time>2015-04-01T10:14:38.000Z</time>
      </trkpt>
      <trkpt lat="48.74784" lon="1.73305">
        <ele>175.8</ele>
        <time>2015-04-01T10:14:44.000Z</time>
      </trkpt>
      <trkpt lat="48.74783" lon="1.73299">
        <ele>175.8</ele>
        <time>2015-04-01T10:14:51.000Z</time>
      </trkpt>
      <trkpt lat="48.74787" lon="1.73293">
        <ele>175.7</ele>
        <time>2015-04-01T10:14:58.000Z</time>
      </trkpt>
      <trkpt lat="48.74791" lon="1.73292">
        <ele>175.5</ele>
        <time>2015-04-01T10:15:00.000Z</time>
      </trkpt>
      <trkpt lat="48.74801" lon="1.73295">
        <ele>175.2</ele>
        <time>2015-04-01T10:15:07.000Z</time>
      </trkpt>
      <trkpt lat="48.74811" lon="1.73299">
        <ele>174.9</ele>
        <time>2015-04-01T10:15:13.000Z</time>
      </trkpt>
      <trkpt lat="48.74821" lon="1.73301">
        <ele>174.5</ele>
        <time>2015-04-01T10:15:19.000Z</time>
      </trkpt>
      <trkpt lat="48.74825" lon="1.73303">
        <ele>174.4</ele>
        <time>2015-04-01T10:15:22.000Z</time>
      </trkpt>
      <trkpt lat="48.74834" lon="1.73308">
        <ele>174.1</ele>
        <time>2015-04-01T10:15:29.000Z</time>
      </trkpt>
      <trkpt lat="48.74844" lon="1.73311">
        <ele>174.1</ele>
        <time>2015-04-01T10:15:36.000Z</time>
      </trkpt>
      <trkpt lat="48.74852" lon="1.73314">
        <ele>173.9</ele>
        <time>2015-04-01T10:15:41.000Z</time>
      </trkpt>
      <trkpt lat="48.7486" lon="1.73318">
        <ele>173.6</ele>
        <time>2015-04-01T10:15:48.000Z</time>
      </trkpt>
      <trkpt lat="48.74866" lon="1.73321">
        <ele>173.3</ele>
        <time>2015-04-01T10:15:51.000Z</time>
      </trkpt>
      <trkpt lat="48.74869" lon="1.73321">
        <ele>173.2</ele>
        <time>2015-04-01T10:15:53.000Z</time>
      </trkpt>
      <trkpt lat="48.74877" lon="1.73317">
        <ele>173</ele>
        <time>2015-04-01T10:16:01.000Z</time>
      </trkpt>
      <trkpt lat="48.74883" lon="1.7332">
        <ele>172.7</ele>
        <time>2015-04-01T10:16:04.000Z</time>
      </trkpt>
      <trkpt lat="48.74891" lon="1.73327">
        <ele>172.2</ele>
        <time>2015-04-01T10:16:10.000Z</time>
      </trkpt>
      <trkpt lat="48.74897" lon="1.73329">
        <ele>172.1</ele>
        <time>2015-04-01T10:16:15.000Z</time>
      </trkpt>
      <trkpt lat="48.74902" lon="1.7333">
        <ele>172.1</ele>
        <time>2015-04-01T10:16:19.000Z</time>
      </trkpt>
      <trkpt lat="48.74907" lon="1.73332">
        <ele>172</ele>
        <time>2015-04-01T10:16:22.000Z</time>
      </trkpt>
      <trkpt lat="48.74915" lon="1.73333">
        <ele>172</ele>
        <time>2015-04-01T10:16:28.000Z</time>
      </trkpt>
      <trkpt lat="48.74926" lon="1.73336">
        <ele>171.3</ele>
        <time>2015-04-01T10:16:35.000Z</time>
      </trkpt>
      <trkpt lat="48.74934" lon="1.7334">
        <ele>170.6</ele>
        <time>2015-04-01T10:16:41.000Z</time>
      </trkpt>
      <trkpt lat="48.74938" lon="1.7334">
        <ele>170.4</ele>
        <time>2015-04-01T10:16:43.000Z</time>
      </trkpt>
      <trkpt lat="48.74949" lon="1.73346">
        <ele>169.9</ele>
        <time>2015-04-01T10:16:49.000Z</time>
      </trkpt>
      <trkpt lat="48.74961" lon="1.73351">
        <ele>169.6</ele>
        <time>2015-04-01T10:16:56.000Z</time>
      </trkpt>
      <trkpt lat="48.74971" lon="1.73355">
        <ele>169.3</ele>
        <time>2015-04-01T10:17:03.000Z</time>
      </trkpt>
      <trkpt lat="48.74979" lon="1.73359">
        <ele>168.8</ele>
        <time>2015-04-01T10:17:07.000Z</time>
      </trkpt>
      <trkpt lat="48.74984" lon="1.7336">
        <ele>168.6</ele>
        <time>2015-04-01T10:17:09.000Z</time>
      </trkpt>
      <trkpt lat="48.74995" lon="1.73365">
        <ele>168</ele>
        <time>2015-04-01T10:17:16.000Z</time>
      </trkpt>
      <trkpt lat="48.75003" lon="1.7337">
        <ele>167.5</ele>
        <time>2015-04-01T10:17:21.000Z</time>
      </trkpt>
      <trkpt lat="48.75013" lon="1.73371">
        <ele>166.9</ele>
        <time>2015-04-01T10:17:29.000Z</time>
      </trkpt>
      <trkpt lat="48.75025" lon="1.73375">
        <ele>166.2</ele>
        <time>2015-04-01T10:17:35.000Z</time>
      </trkpt>
      <trkpt lat="48.7503" lon="1.7338">
        <ele>165.8</ele>
        <time>2015-04-01T10:17:41.000Z</time>
      </trkpt>
      <trkpt lat="48.75033" lon="1.73382">
        <ele>165.7</ele>
        <time>2015-04-01T10:17:43.000Z</time>
      </trkpt>
      <trkpt lat="48.7504" lon="1.73384">
        <ele>165.2</ele>
        <time>2015-04-01T10:17:47.000Z</time>
      </trkpt>
      <trkpt lat="48.7505" lon="1.73395">
        <ele>164.2</ele>
        <time>2015-04-01T10:17:55.000Z</time>
      </trkpt>
      <trkpt lat="48.75056" lon="1.73399">
        <ele>163.6</ele>
        <time>2015-04-01T10:18:00.000Z</time>
      </trkpt>
      <trkpt lat="48.75064" lon="1.73406">
        <ele>162.8</ele>
        <time>2015-04-01T10:18:05.000Z</time>
      </trkpt>
      <trkpt lat="48.75069" lon="1.7341">
        <ele>162.3</ele>
        <time>2015-04-01T10:18:10.000Z</time>
      </trkpt>
      <trkpt lat="48.75071" lon="1.73412">
        <ele>162</ele>
        <time>2015-04-01T10:18:12.000Z</time>
      </trkpt>
      <trkpt lat="48.75076" lon="1.73416">
        <ele>161.5</ele>
        <time>2015-04-01T10:18:15.000Z</time>
      </trkpt>
      <trkpt lat="48.75078" lon="1.73417">
        <ele>161.4</ele>
        <time>2015-04-01T10:18:17.000Z</time>
      </trkpt>
      <trkpt lat="48.75085" lon="1.73422">
        <ele>160.5</ele>
        <time>2015-04-01T10:18:23.000Z</time>
      </trkpt>
      <trkpt lat="48.75094" lon="1.73436">
        <ele>159.3</ele>
        <time>2015-04-01T10:18:30.000Z</time>
      </trkpt>
      <trkpt lat="48.75103" lon="1.73445">
        <ele>158.2</ele>
        <time>2015-04-01T10:18:37.000Z</time>
      </trkpt>
      <trkpt lat="48.75104" lon="1.73446">
        <ele>157.9</ele>
        <time>2015-04-01T10:18:38.000Z</time>
      </trkpt>
      <trkpt lat="48.75106" lon="1.73449">
        <ele>157.4</ele>
        <time>2015-04-01T10:18:41.000Z</time>
      </trkpt>
      <trkpt lat="48.7511" lon="1.73454">
        <ele>156.3</ele>
        <time>2015-04-01T10:18:46.000Z</time>
      </trkpt>
      <trkpt lat="48.75117" lon="1.73463">
        <ele>154.9</ele>
        <time>2015-04-01T10:18:51.000Z</time>
      </trkpt>
      <trkpt lat="48.75127" lon="1.73476">
        <ele>153.3</ele>
        <time>2015-04-01T10:18:59.000Z</time>
      </trkpt>
      <trkpt lat="48.75129" lon="1.73478">
        <ele>153.1</ele>
        <time>2015-04-01T10:19:01.000Z</time>
      </trkpt>
      <trkpt lat="48.7513" lon="1.73481">
        <ele>152.6</ele>
        <time>2015-04-01T10:19:03.000Z</time>
      </trkpt>
      <trkpt lat="48.75141" lon="1.73491">
        <ele>151.9</ele>
        <time>2015-04-01T10:19:09.000Z</time>
      </trkpt>
      <trkpt lat="48.75145" lon="1.73495">
        <ele>151.7</ele>
        <time>2015-04-01T10:19:12.000Z</time>
      </trkpt>
      <trkpt lat="48.75152" lon="1.73504">
        <ele>151.3</ele>
        <time>2015-04-01T10:19:17.000Z</time>
      </trkpt>
      <trkpt lat="48.75159" lon="1.73513">
        <ele>151.2</ele>
        <time>2015-04-01T10:19:24.000Z</time>
      </trkpt>
      <trkpt lat="48.7516" lon="1.73514">
        <ele>151.2</ele>
        <time>2015-04-01T10:19:25.000Z</time>
      </trkpt>
      <trkpt lat="48.75166" lon="1.73522">
        <ele>151.6</ele>
        <time>2015-04-01T10:19:30.000Z</time>
      </trkpt>
      <trkpt lat="48.75173" lon="1.7353">
        <ele>150.7</ele>
        <time>2015-04-01T10:19:35.000Z</time>
      </trkpt>
      <trkpt lat="48.75174" lon="1.73532">
        <ele>150.4</ele>
        <time>2015-04-01T10:19:36.000Z</time>
      </trkpt>
      <trkpt lat="48.75177" lon="1.73537">
        <ele>149.8</ele>
        <time>2015-04-01T10:19:39.000Z</time>
      </trkpt>
      <trkpt lat="48.75183" lon="1.73547">
        <ele>148.7</ele>
        <time>2015-04-01T10:19:45.000Z</time>
      </trkpt>
      <trkpt lat="48.75185" lon="1.73555">
        <ele>147.8</ele>
        <time>2015-04-01T10:19:50.000Z</time>
      </trkpt>
      <trkpt lat="48.75189" lon="1.73565">
        <ele>146.7</ele>
        <time>2015-04-01T10:19:54.000Z</time>
      </trkpt>
      <trkpt lat="48.7519" lon="1.7358">
        <ele>145.1</ele>
        <time>2015-04-01T10:20:00.000Z</time>
      </trkpt>
      <trkpt lat="48.75191" lon="1.73594">
        <ele>143.6</ele>
        <time>2015-04-01T10:20:05.000Z</time>
      </trkpt>
      <trkpt lat="48.75195" lon="1.73613">
        <ele>141.8</ele>
        <time>2015-04-01T10:20:10.000Z</time>
      </trkpt>
      <trkpt lat="48.75195" lon="1.73616">
        <ele>141.5</ele>
        <time>2015-04-01T10:20:11.000Z</time>
      </trkpt>
      <trkpt lat="48.752" lon="1.73628">
        <ele>140.4</ele>
        <time>2015-04-01T10:20:16.000Z</time>
      </trkpt>
      <trkpt lat="48.75202" lon="1.73631">
        <ele>140.1</ele>
        <time>2015-04-01T10:20:18.000Z</time>
      </trkpt>
      <trkpt lat="48.75206" lon="1.73643">
        <ele>139</ele>
        <time>2015-04-01T10:20:25.000Z</time>
      </trkpt>
      <trkpt lat="48.75211" lon="1.73655">
        <ele>138</ele>
        <time>2015-04-01T10:20:30.000Z</time>
      </trkpt>
      <trkpt lat="48.75213" lon="1.73666">
        <ele>137</ele>
        <time>2015-04-01T10:20:35.000Z</time>
      </trkpt>
      <trkpt lat="48.75215" lon="1.73672">
        <ele>136.7</ele>
        <time>2015-04-01T10:20:38.000Z</time>
      </trkpt>
      <trkpt lat="48.75217" lon="1.7368">
        <ele>136.1</ele>
        <time>2015-04-01T10:20:42.000Z</time>
      </trkpt>
      <trkpt lat="48.75219" lon="1.73691">
        <ele>135.4</ele>
        <time>2015-04-01T10:20:48.000Z</time>
      </trkpt>
      <trkpt lat="48.75222" lon="1.73696">
        <ele>135</ele>
        <time>2015-04-01T10:20:50.000Z</time>
      </trkpt>
      <trkpt lat="48.75229" lon="1.73712">
        <ele>134.2</ele>
        <time>2015-04-01T10:20:57.000Z</time>
      </trkpt>
      <trkpt lat="48.75232" lon="1.73718">
        <ele>133.8</ele>
        <time>2015-04-01T10:21:00.000Z</time>
      </trkpt>
      <trkpt lat="48.75237" lon="1.73729">
        <ele>133.3</ele>
        <time>2015-04-01T10:21:06.000Z</time>
      </trkpt>
      <trkpt lat="48.75238" lon="1.73732">
        <ele>133.3</ele>
        <time>2015-04-01T10:21:07.000Z</time>
      </trkpt>
      <trkpt lat="48.75239" lon="1.73737">
        <ele>133.2</ele>
        <time>2015-04-01T10:21:10.000Z</time>
      </trkpt>
      <trkpt lat="48.75242" lon="1.73744">
        <ele>133.1</ele>
        <time>2015-04-01T10:21:14.000Z</time>
      </trkpt>
      <trkpt lat="48.75247" lon="1.73759">
        <ele>133</ele>
        <time>2015-04-01T10:21:22.000Z</time>
      </trkpt>
      <trkpt lat="48.75247" lon="1.73761">
        <ele>133</ele>
        <time>2015-04-01T10:21:23.000Z</time>
      </trkpt>
      <trkpt lat="48.7525" lon="1.73773">
        <ele>133</ele>
        <time>2015-04-01T10:21:29.000Z</time>
      </trkpt>
      <trkpt lat="48.75251" lon="1.73779">
        <ele>133</ele>
        <time>2015-04-01T10:21:32.000Z</time>
      </trkpt>
      <trkpt lat="48.75256" lon="1.73797">
        <ele>132.7</ele>
        <time>2015-04-01T10:21:41.000Z</time>
      </trkpt>
      <trkpt lat="48.75263" lon="1.73801">
        <ele>132.2</ele>
        <time>2015-04-01T10:21:46.000Z</time>
      </trkpt>
      <trkpt lat="48.75264" lon="1.738">
        <ele>132.2</ele>
        <time>2015-04-01T10:21:49.000Z</time>
      </trkpt>
      <trkpt lat="48.75268" lon="1.738">
        <ele>132</ele>
        <time>2015-04-01T10:21:52.000Z</time>
      </trkpt>
      <trkpt lat="48.75274" lon="1.73799">
        <ele>131.7</ele>
        <time>2015-04-01T10:21:58.000Z</time>
      </trkpt>
      <trkpt lat="48.75278" lon="1.73802">
        <ele>131.3</ele>
        <time>2015-04-01T10:22:06.000Z</time>
      </trkpt>
      <trkpt lat="48.75279" lon="1.73804">
        <ele>131.1</ele>
        <time>2015-04-01T10:22:13.000Z</time>
      </trkpt>
      <trkpt lat="48.75278" lon="1.73804">
        <ele>131.1</ele>
        <time>2015-04-01T10:22:17.000Z</time>
      </trkpt>
      <trkpt lat="48.75276" lon="1.73815">
        <ele>131.7</ele>
        <time>2015-04-01T10:25:27.000Z</time>
      </trkpt>
      <trkpt lat="48.75278" lon="1.73827">
        <ele>132.6</ele>
        <time>2015-04-01T10:25:30.000Z</time>
      </trkpt>
      <trkpt lat="48.75278" lon="1.73832">
        <ele>132.9</ele>
        <time>2015-04-01T10:25:32.000Z</time>
      </trkpt>
      <trkpt lat="48.75283" lon="1.7384">
        <ele>132.8</ele>
        <time>2015-04-01T10:25:36.000Z</time>
      </trkpt>
      <trkpt lat="48.75289" lon="1.73852">
        <ele>132.6</ele>
        <time>2015-04-01T10:25:42.000Z</time>
      </trkpt>
      <trkpt lat="48.75292" lon="1.73858">
        <ele>132.4</ele>
        <time>2015-04-01T10:25:47.000Z</time>
      </trkpt>
      <trkpt lat="48.75292" lon="1.73859">
        <ele>132.5</ele>
        <time>2015-04-01T10:25:48.000Z</time>
      </trkpt>
      <trkpt lat="48.75293" lon="1.73864">
        <ele>132.8</ele>
        <time>2015-04-01T10:25:54.000Z</time>
      </trkpt>
      <trkpt lat="48.7529" lon="1.73869">
        <ele>134</ele>
        <time>2015-04-01T10:26:02.000Z</time>
      </trkpt>
      <trkpt lat="48.75285" lon="1.73871">
        <ele>135.1</ele>
        <time>2015-04-01T10:26:04.000Z</time>
      </trkpt>
      <trkpt lat="48.75282" lon="1.73873">
        <ele>135.8</ele>
        <time>2015-04-01T10:26:06.000Z</time>
      </trkpt>
      <trkpt lat="48.75276" lon="1.73877">
        <ele>137.4</ele>
        <time>2015-04-01T10:26:11.000Z</time>
      </trkpt>
      <trkpt lat="48.75274" lon="1.73877">
        <ele>137.4</ele>
        <time>2015-04-01T10:26:12.000Z</time>
      </trkpt>
      <trkpt lat="48.75263" lon="1.7388">
        <ele>138.4</ele>
        <time>2015-04-01T10:26:19.000Z</time>
      </trkpt>
      <trkpt lat="48.75253" lon="1.73885">
        <ele>139.9</ele>
        <time>2015-04-01T10:26:26.000Z</time>
      </trkpt>
      <trkpt lat="48.75246" lon="1.73891">
        <ele>140.9</ele>
        <time>2015-04-01T10:26:31.000Z</time>
      </trkpt>
      <trkpt lat="48.75238" lon="1.73895">
        <ele>141.2</ele>
        <time>2015-04-01T10:26:36.000Z</time>
      </trkpt>
      <trkpt lat="48.75228" lon="1.73901">
        <ele>142.2</ele>
        <time>2015-04-01T10:26:43.000Z</time>
      </trkpt>
      <trkpt lat="48.75226" lon="1.73902">
        <ele>142</ele>
        <time>2015-04-01T10:26:45.000Z</time>
      </trkpt>
      <trkpt lat="48.75215" lon="1.73908">
        <ele>143</ele>
        <time>2015-04-01T10:26:51.000Z</time>
      </trkpt>
      <trkpt lat="48.75211" lon="1.7391">
        <ele>143.4</ele>
        <time>2015-04-01T10:26:53.000Z</time>
      </trkpt>
      <trkpt lat="48.75205" lon="1.73914">
        <ele>144.1</ele>
        <time>2015-04-01T10:26:57.000Z</time>
      </trkpt>
      <trkpt lat="48.75196" lon="1.73919">
        <ele>144.9</ele>
        <time>2015-04-01T10:27:05.000Z</time>
      </trkpt>
      <trkpt lat="48.75187" lon="1.73924">
        <ele>144.1</ele>
        <time>2015-04-01T10:27:11.000Z</time>
      </trkpt>
      <trkpt lat="48.75178" lon="1.73931">
        <ele>144.2</ele>
        <time>2015-04-01T10:27:18.000Z</time>
      </trkpt>
      <trkpt lat="48.75168" lon="1.73938">
        <ele>144.3</ele>
        <time>2015-04-01T10:27:25.000Z</time>
      </trkpt>
      <trkpt lat="48.75157" lon="1.73943">
        <ele>144.6</ele>
        <time>2015-04-01T10:27:32.000Z</time>
      </trkpt>
      <trkpt lat="48.7515" lon="1.73948">
        <ele>144.2</ele>
        <time>2015-04-01T10:27:38.000Z</time>
      </trkpt>
      <trkpt lat="48.75143" lon="1.73953">
        <ele>144</ele>
        <time>2015-04-01T10:27:44.000Z</time>
      </trkpt>
      <trkpt lat="48.75141" lon="1.73954">
        <ele>143.9</ele>
        <time>2015-04-01T10:27:45.000Z</time>
      </trkpt>
      <trkpt lat="48.7513" lon="1.73962">
        <ele>142.7</ele>
        <time>2015-04-01T10:27:52.000Z</time>
      </trkpt>
      <trkpt lat="48.75127" lon="1.73967">
        <ele>142.4</ele>
        <time>2015-04-01T10:27:55.000Z</time>
      </trkpt>
      <trkpt lat="48.75119" lon="1.73978">
        <ele>142.2</ele>
        <time>2015-04-01T10:28:03.000Z</time>
      </trkpt>
      <trkpt lat="48.75119" lon="1.7398">
        <ele>142.3</ele>
        <time>2015-04-01T10:28:04.000Z</time>
      </trkpt>
      <trkpt lat="48.75112" lon="1.73991">
        <ele>142.4</ele>
        <time>2015-04-01T10:28:09.000Z</time>
      </trkpt>
      <trkpt lat="48.75106" lon="1.74003">
        <ele>142.2</ele>
        <time>2015-04-01T10:28:17.000Z</time>
      </trkpt>
      <trkpt lat="48.75105" lon="1.74004">
        <ele>142.1</ele>
        <time>2015-04-01T10:28:18.000Z</time>
      </trkpt>
      <trkpt lat="48.751" lon="1.74016">
        <ele>141.6</ele>
        <time>2015-04-01T10:28:24.000Z</time>
      </trkpt>
      <trkpt lat="48.75098" lon="1.74024">
        <ele>141.5</ele>
        <time>2015-04-01T10:28:27.000Z</time>
      </trkpt>
      <trkpt lat="48.75095" lon="1.74036">
        <ele>140.1</ele>
        <time>2015-04-01T10:28:33.000Z</time>
      </trkpt>
      <trkpt lat="48.75095" lon="1.74048">
        <ele>140</ele>
        <time>2015-04-01T10:28:39.000Z</time>
      </trkpt>
      <trkpt lat="48.75097" lon="1.7406">
        <ele>140.4</ele>
        <time>2015-04-01T10:28:44.000Z</time>
      </trkpt>
      <trkpt lat="48.75097" lon="1.74078">
        <ele>139</ele>
        <time>2015-04-01T10:28:50.000Z</time>
      </trkpt>
      <trkpt lat="48.75097" lon="1.74092">
        <ele>138.7</ele>
        <time>2015-04-01T10:28:56.000Z</time>
      </trkpt>
      <trkpt lat="48.75096" lon="1.74107">
        <ele>138.6</ele>
        <time>2015-04-01T10:29:02.000Z</time>
      </trkpt>
      <trkpt lat="48.75094" lon="1.74122">
        <ele>137.8</ele>
        <time>2015-04-01T10:29:09.000Z</time>
      </trkpt>
      <trkpt lat="48.75088" lon="1.74138">
        <ele>136.2</ele>
        <time>2015-04-01T10:29:17.000Z</time>
      </trkpt>
      <trkpt lat="48.75085" lon="1.74147">
        <ele>135.6</ele>
        <time>2015-04-01T10:29:23.000Z</time>
      </trkpt>
      <trkpt lat="48.75082" lon="1.74155">
        <ele>135.6</ele>
        <time>2015-04-01T10:29:28.000Z</time>
      </trkpt>
      <trkpt lat="48.75078" lon="1.74165">
        <ele>136.2</ele>
        <time>2015-04-01T10:29:34.000Z</time>
      </trkpt>
      <trkpt lat="48.75074" lon="1.74186">
        <ele>137.3</ele>
        <time>2015-04-01T10:29:40.000Z</time>
      </trkpt>
      <trkpt lat="48.7507" lon="1.74194">
        <ele>137.1</ele>
        <time>2015-04-01T10:29:43.000Z</time>
      </trkpt>
      <trkpt lat="48.75064" lon="1.74204">
        <ele>136.8</ele>
        <time>2015-04-01T10:29:49.000Z</time>
      </trkpt>
      <trkpt lat="48.75058" lon="1.74213">
        <ele>136.5</ele>
        <time>2015-04-01T10:29:55.000Z</time>
      </trkpt>
      <trkpt lat="48.7505" lon="1.74221">
        <ele>136.3</ele>
        <time>2015-04-01T10:30:01.000Z</time>
      </trkpt>
      <trkpt lat="48.75044" lon="1.74229">
        <ele>136.2</ele>
        <time>2015-04-01T10:30:05.000Z</time>
      </trkpt>
      <trkpt lat="48.75045" lon="1.74232">
        <ele>136.4</ele>
        <time>2015-04-01T10:30:08.000Z</time>
      </trkpt>
      <trkpt lat="48.7504" lon="1.74239">
        <ele>136.2</ele>
        <time>2015-04-01T10:30:14.000Z</time>
      </trkpt>
      <trkpt lat="48.75038" lon="1.74245">
        <ele>136.2</ele>
        <time>2015-04-01T10:30:18.000Z</time>
      </trkpt>
      <trkpt lat="48.75035" lon="1.74265">
        <ele>136.9</ele>
        <time>2015-04-01T10:30:25.000Z</time>
      </trkpt>
      <trkpt lat="48.75032" lon="1.74277">
        <ele>137</ele>
        <time>2015-04-01T10:30:29.000Z</time>
      </trkpt>
      <trkpt lat="48.75029" lon="1.74288">
        <ele>137.2</ele>
        <time>2015-04-01T10:30:34.000Z</time>
      </trkpt>
      <trkpt lat="48.75026" lon="1.74298">
        <ele>137.3</ele>
        <time>2015-04-01T10:30:38.000Z</time>
      </trkpt>
      <trkpt lat="48.75019" lon="1.74319">
        <ele>138</ele>
        <time>2015-04-01T10:30:45.000Z</time>
      </trkpt>
      <trkpt lat="48.75015" lon="1.74329">
        <ele>138.1</ele>
        <time>2015-04-01T10:30:49.000Z</time>
      </trkpt>
      <trkpt lat="48.75012" lon="1.74347">
        <ele>138.1</ele>
        <time>2015-04-01T10:30:58.000Z</time>
      </trkpt>
      <trkpt lat="48.75006" lon="1.74364">
        <ele>137.1</ele>
        <time>2015-04-01T10:31:04.000Z</time>
      </trkpt>
      <trkpt lat="48.75002" lon="1.74377">
        <ele>136.4</ele>
        <time>2015-04-01T10:31:10.000Z</time>
      </trkpt>
      <trkpt lat="48.75002" lon="1.74384">
        <ele>136.8</ele>
        <time>2015-04-01T10:31:13.000Z</time>
      </trkpt>
      <trkpt lat="48.75001" lon="1.744">
        <ele>138.2</ele>
        <time>2015-04-01T10:31:20.000Z</time>
      </trkpt>
      <trkpt lat="48.74997" lon="1.74413">
        <ele>139</ele>
        <time>2015-04-01T10:31:26.000Z</time>
      </trkpt>
      <trkpt lat="48.74994" lon="1.74422">
        <ele>139.7</ele>
        <time>2015-04-01T10:31:31.000Z</time>
      </trkpt>
      <trkpt lat="48.7499" lon="1.74436">
        <ele>140.4</ele>
        <time>2015-04-01T10:31:38.000Z</time>
      </trkpt>
      <trkpt lat="48.74987" lon="1.74449">
        <ele>140.9</ele>
        <time>2015-04-01T10:31:45.000Z</time>
      </trkpt>
      <trkpt lat="48.74983" lon="1.74461">
        <ele>140.4</ele>
        <time>2015-04-01T10:31:51.000Z</time>
      </trkpt>
      <trkpt lat="48.74979" lon="1.74472">
        <ele>140</ele>
        <time>2015-04-01T10:31:57.000Z</time>
      </trkpt>
      <trkpt lat="48.74977" lon="1.74485">
        <ele>140.1</ele>
        <time>2015-04-01T10:32:03.000Z</time>
      </trkpt>
      <trkpt lat="48.74972" lon="1.74499">
        <ele>139.9</ele>
        <time>2015-04-01T10:32:10.000Z</time>
      </trkpt>
      <trkpt lat="48.74967" lon="1.74516">
        <ele>140.1</ele>
        <time>2015-04-01T10:32:17.000Z</time>
      </trkpt>
      <trkpt lat="48.74963" lon="1.74527">
        <ele>139.9</ele>
        <time>2015-04-01T10:32:23.000Z</time>
      </trkpt>
      <trkpt lat="48.74959" lon="1.74538">
        <ele>139.5</ele>
        <time>2015-04-01T10:32:29.000Z</time>
      </trkpt>
      <trkpt lat="48.74955" lon="1.74547">
        <ele>139</ele>
        <time>2015-04-01T10:32:35.000Z</time>
      </trkpt>
      <trkpt lat="48.74955" lon="1.74556">
        <ele>139.3</ele>
        <time>2015-04-01T10:32:39.000Z</time>
      </trkpt>
      <trkpt lat="48.74954" lon="1.74567">
        <ele>139.5</ele>
        <time>2015-04-01T10:32:44.000Z</time>
      </trkpt>
      <trkpt lat="48.74954" lon="1.74569">
        <ele>139.5</ele>
        <time>2015-04-01T10:32:48.000Z</time>
      </trkpt>
      <trkpt lat="48.74949" lon="1.74583">
        <ele>139.5</ele>
        <time>2015-04-01T10:33:22.000Z</time>
      </trkpt>
      <trkpt lat="48.74942" lon="1.74589">
        <ele>139.5</ele>
        <time>2015-04-01T10:33:26.000Z</time>
      </trkpt>
      <trkpt lat="48.7494" lon="1.74592">
        <ele>139.8</ele>
        <time>2015-04-01T10:33:28.000Z</time>
      </trkpt>
      <trkpt lat="48.74937" lon="1.74601">
        <ele>140.6</ele>
        <time>2015-04-01T10:33:34.000Z</time>
      </trkpt>
      <trkpt lat="48.74933" lon="1.7461">
        <ele>140.9</ele>
        <time>2015-04-01T10:33:39.000Z</time>
      </trkpt>
      <trkpt lat="48.74931" lon="1.74613">
        <ele>140.7</ele>
        <time>2015-04-01T10:33:41.000Z</time>
      </trkpt>
      <trkpt lat="48.74926" lon="1.74622">
        <ele>140.5</ele>
        <time>2015-04-01T10:33:46.000Z</time>
      </trkpt>
      <trkpt lat="48.74925" lon="1.74626">
        <ele>140.5</ele>
        <time>2015-04-01T10:33:48.000Z</time>
      </trkpt>
      <trkpt lat="48.74919" lon="1.74641">
        <ele>140.6</ele>
        <time>2015-04-01T10:33:54.000Z</time>
      </trkpt>
      <trkpt lat="48.74912" lon="1.74655">
        <ele>140.7</ele>
        <time>2015-04-01T10:34:00.000Z</time>
      </trkpt>
      <trkpt lat="48.7491" lon="1.74667">
        <ele>141.3</ele>
        <time>2015-04-01T10:34:07.000Z</time>
      </trkpt>
      <trkpt lat="48.74909" lon="1.74668">
        <ele>141.3</ele>
        <time>2015-04-01T10:34:08.000Z</time>
      </trkpt>
      <trkpt lat="48.74901" lon="1.74688">
        <ele>141</ele>
        <time>2015-04-01T10:34:16.000Z</time>
      </trkpt>
      <trkpt lat="48.74896" lon="1.74698">
        <ele>140.4</ele>
        <time>2015-04-01T10:34:21.000Z</time>
      </trkpt>
      <trkpt lat="48.7489" lon="1.74711">
        <ele>139.3</ele>
        <time>2015-04-01T10:34:27.000Z</time>
      </trkpt>
      <trkpt lat="48.74884" lon="1.74722">
        <ele>138.8</ele>
        <time>2015-04-01T10:34:33.000Z</time>
      </trkpt>
      <trkpt lat="48.74883" lon="1.74724">
        <ele>138.9</ele>
        <time>2015-04-01T10:34:34.000Z</time>
      </trkpt>
      <trkpt lat="48.74879" lon="1.7474">
        <ele>139.7</ele>
        <time>2015-04-01T10:34:41.000Z</time>
      </trkpt>
      <trkpt lat="48.74873" lon="1.74762">
        <ele>140.6</ele>
        <time>2015-04-01T10:34:47.000Z</time>
      </trkpt>
      <trkpt lat="48.74866" lon="1.74788">
        <ele>141.2</ele>
        <time>2015-04-01T10:34:53.000Z</time>
      </trkpt>
      <trkpt lat="48.74856" lon="1.74817">
        <ele>141</ele>
        <time>2015-04-01T10:35:00.000Z</time>
      </trkpt>
      <trkpt lat="48.74848" lon="1.74839">
        <ele>140.8</ele>
        <time>2015-04-01T10:35:06.000Z</time>
      </trkpt>
      <trkpt lat="48.74841" lon="1.74862">
        <ele>140.4</ele>
        <time>2015-04-01T10:35:12.000Z</time>
      </trkpt>
      <trkpt lat="48.74825" lon="1.74894">
        <ele>139.1</ele>
        <time>2015-04-01T10:35:20.000Z</time>
      </trkpt>
      <trkpt lat="48.74813" lon="1.74925">
        <ele>140</ele>
        <time>2015-04-01T10:35:27.000Z</time>
      </trkpt>
      <trkpt lat="48.74799" lon="1.7495">
        <ele>139.5</ele>
        <time>2015-04-01T10:35:33.000Z</time>
      </trkpt>
      <trkpt lat="48.74787" lon="1.74973">
        <ele>139.3</ele>
        <time>2015-04-01T10:35:39.000Z</time>
      </trkpt>
      <trkpt lat="48.74777" lon="1.74993">
        <ele>138.5</ele>
        <time>2015-04-01T10:35:44.000Z</time>
      </trkpt>
      <trkpt lat="48.74766" lon="1.75019">
        <ele>139.8</ele>
        <time>2015-04-01T10:35:50.000Z</time>
      </trkpt>
      <trkpt lat="48.74759" lon="1.75044">
        <ele>139.8</ele>
        <time>2015-04-01T10:35:54.000Z</time>
      </trkpt>
      <trkpt lat="48.74757" lon="1.75051">
        <ele>139.6</ele>
        <time>2015-04-01T10:35:55.000Z</time>
      </trkpt>
      <trkpt lat="48.74746" lon="1.75091">
        <ele>139.3</ele>
        <time>2015-04-01T10:36:02.000Z</time>
      </trkpt>
      <trkpt lat="48.74745" lon="1.75119">
        <ele>140.7</ele>
        <time>2015-04-01T10:36:08.000Z</time>
      </trkpt>
      <trkpt lat="48.74751" lon="1.75139">
        <ele>142.2</ele>
        <time>2015-04-01T10:36:13.000Z</time>
      </trkpt>
      <trkpt lat="48.74758" lon="1.7516">
        <ele>143.2</ele>
        <time>2015-04-01T10:36:18.000Z</time>
      </trkpt>
      <trkpt lat="48.74766" lon="1.75174">
        <ele>143.7</ele>
        <time>2015-04-01T10:36:24.000Z</time>
      </trkpt>
      <trkpt lat="48.74774" lon="1.75195">
        <ele>143.4</ele>
        <time>2015-04-01T10:36:29.000Z</time>
      </trkpt>
      <trkpt lat="48.7478" lon="1.75209">
        <ele>143.2</ele>
        <time>2015-04-01T10:36:34.000Z</time>
      </trkpt>
      <trkpt lat="48.74781" lon="1.75211">
        <ele>143.1</ele>
        <time>2015-04-01T10:36:35.000Z</time>
      </trkpt>
      <trkpt lat="48.74791" lon="1.75226">
        <ele>142.7</ele>
        <time>2015-04-01T10:36:40.000Z</time>
      </trkpt>
      <trkpt lat="48.74799" lon="1.75233">
        <ele>142.7</ele>
        <time>2015-04-01T10:36:43.000Z</time>
      </trkpt>
      <trkpt lat="48.74807" lon="1.75257">
        <ele>141.9</ele>
        <time>2015-04-01T10:36:49.000Z</time>
      </trkpt>
      <trkpt lat="48.74811" lon="1.75283">
        <ele>141.2</ele>
        <time>2015-04-01T10:36:54.000Z</time>
      </trkpt>
      <trkpt lat="48.74815" lon="1.75303">
        <ele>140.8</ele>
        <time>2015-04-01T10:36:59.000Z</time>
      </trkpt>
      <trkpt lat="48.74818" lon="1.75327">
        <ele>140.9</ele>
        <time>2015-04-01T10:37:04.000Z</time>
      </trkpt>
      <trkpt lat="48.74821" lon="1.7536">
        <ele>141.7</ele>
        <time>2015-04-01T10:37:10.000Z</time>
      </trkpt>
      <trkpt lat="48.74825" lon="1.75385">
        <ele>142.7</ele>
        <time>2015-04-01T10:37:15.000Z</time>
      </trkpt>
      <trkpt lat="48.74824" lon="1.75413">
        <ele>142.7</ele>
        <time>2015-04-01T10:37:20.000Z</time>
      </trkpt>
      <trkpt lat="48.74821" lon="1.75438">
        <ele>141.8</ele>
        <time>2015-04-01T10:37:25.000Z</time>
      </trkpt>
      <trkpt lat="48.74821" lon="1.75459">
        <ele>141.7</ele>
        <time>2015-04-01T10:37:30.000Z</time>
      </trkpt>
      <trkpt lat="48.74817" lon="1.75494">
        <ele>142.1</ele>
        <time>2015-04-01T10:37:37.000Z</time>
      </trkpt>
      <trkpt lat="48.74811" lon="1.75518">
        <ele>143</ele>
        <time>2015-04-01T10:37:43.000Z</time>
      </trkpt>
      <trkpt lat="48.74797" lon="1.75549">
        <ele>143.9</ele>
        <time>2015-04-01T10:37:51.000Z</time>
      </trkpt>
      <trkpt lat="48.74787" lon="1.7557">
        <ele>144</ele>
        <time>2015-04-01T10:37:57.000Z</time>
      </trkpt>
      <trkpt lat="48.74776" lon="1.75594">
        <ele>143.6</ele>
        <time>2015-04-01T10:38:03.000Z</time>
      </trkpt>
      <trkpt lat="48.74769" lon="1.7562">
        <ele>144.1</ele>
        <time>2015-04-01T10:38:09.000Z</time>
      </trkpt>
      <trkpt lat="48.74763" lon="1.75633">
        <ele>143.6</ele>
        <time>2015-04-01T10:38:14.000Z</time>
      </trkpt>
      <trkpt lat="48.74759" lon="1.75641">
        <ele>143</ele>
        <time>2015-04-01T10:38:17.000Z</time>
      </trkpt>
      <trkpt lat="48.74757" lon="1.75656">
        <ele>143.1</ele>
        <time>2015-04-01T10:38:22.000Z</time>
      </trkpt>
      <trkpt lat="48.74753" lon="1.75673">
        <ele>143</ele>
        <time>2015-04-01T10:38:30.000Z</time>
      </trkpt>
      <trkpt lat="48.74753" lon="1.75675">
        <ele>143</ele>
        <time>2015-04-01T10:38:31.000Z</time>
      </trkpt>
      <trkpt lat="48.74753" lon="1.75687">
        <ele>143.4</ele>
        <time>2015-04-01T10:38:36.000Z</time>
      </trkpt>
      <trkpt lat="48.74751" lon="1.75698">
        <ele>143.4</ele>
        <time>2015-04-01T10:38:40.000Z</time>
      </trkpt>
      <trkpt lat="48.74751" lon="1.75718">
        <ele>143.9</ele>
        <time>2015-04-01T10:38:49.000Z</time>
      </trkpt>
      <trkpt lat="48.74753" lon="1.7573">
        <ele>144.4</ele>
        <time>2015-04-01T10:38:54.000Z</time>
      </trkpt>
      <trkpt lat="48.74755" lon="1.75734">
        <ele>144.5</ele>
        <time>2015-04-01T10:38:56.000Z</time>
      </trkpt>
      <trkpt lat="48.74759" lon="1.75753">
        <ele>144.6</ele>
        <time>2015-04-01T10:39:04.000Z</time>
      </trkpt>
      <trkpt lat="48.74765" lon="1.75771">
        <ele>143.9</ele>
        <time>2015-04-01T10:39:13.000Z</time>
      </trkpt>
      <trkpt lat="48.74773" lon="1.75785">
        <ele>143.6</ele>
        <time>2015-04-01T10:39:20.000Z</time>
      </trkpt>
      <trkpt lat="48.74775" lon="1.75791">
        <ele>143.5</ele>
        <time>2015-04-01T10:39:23.000Z</time>
      </trkpt>
      <trkpt lat="48.74778" lon="1.75811">
        <ele>143</ele>
        <time>2015-04-01T10:39:31.000Z</time>
      </trkpt>
      <trkpt lat="48.74778" lon="1.75825">
        <ele>143</ele>
        <time>2015-04-01T10:39:36.000Z</time>
      </trkpt>
      <trkpt lat="48.74777" lon="1.75839">
        <ele>143</ele>
        <time>2015-04-01T10:39:42.000Z</time>
      </trkpt>
      <trkpt lat="48.74777" lon="1.75839">
        <ele>143</ele>
        <time>2015-04-01T10:39:43.000Z</time>
      </trkpt>
      <trkpt lat="48.74783" lon="1.75844">
        <ele>143.9</ele>
        <time>2015-04-01T10:39:53.000Z</time>
      </trkpt>
      <trkpt lat="48.74784" lon="1.75848">
        <ele>144.1</ele>
        <time>2015-04-01T10:39:55.000Z</time>
      </trkpt>
      <trkpt lat="48.74783" lon="1.75861">
        <ele>144</ele>
        <time>2015-04-01T10:40:00.000Z</time>
      </trkpt>
      <trkpt lat="48.74781" lon="1.75871">
        <ele>143.5</ele>
        <time>2015-04-01T10:40:04.000Z</time>
      </trkpt>
      <trkpt lat="48.74778" lon="1.75887">
        <ele>143</ele>
        <time>2015-04-01T10:40:10.000Z</time>
      </trkpt>
      <trkpt lat="48.74777" lon="1.75901">
        <ele>143.4</ele>
        <time>2015-04-01T10:40:14.000Z</time>
      </trkpt>
      <trkpt lat="48.74775" lon="1.75921">
        <ele>143.9</ele>
        <time>2015-04-01T10:40:20.000Z</time>
      </trkpt>
      <trkpt lat="48.74774" lon="1.75931">
        <ele>144.2</ele>
        <time>2015-04-01T10:40:24.000Z</time>
      </trkpt>
      <trkpt lat="48.74772" lon="1.75946">
        <ele>144.5</ele>
        <time>2015-04-01T10:40:30.000Z</time>
      </trkpt>
      <trkpt lat="48.7477" lon="1.75959">
        <ele>145.4</ele>
        <time>2015-04-01T10:40:36.000Z</time>
      </trkpt>
      <trkpt lat="48.74769" lon="1.75965">
        <ele>145.8</ele>
        <time>2015-04-01T10:40:38.000Z</time>
      </trkpt>
      <trkpt lat="48.74765" lon="1.75972">
        <ele>145.7</ele>
        <time>2015-04-01T10:40:42.000Z</time>
      </trkpt>
      <trkpt lat="48.74757" lon="1.75986">
        <ele>145.4</ele>
        <time>2015-04-01T10:40:47.000Z</time>
      </trkpt>
      <trkpt lat="48.74751" lon="1.75997">
        <ele>145.1</ele>
        <time>2015-04-01T10:40:52.000Z</time>
      </trkpt>
      <trkpt lat="48.74742" lon="1.76006">
        <ele>144.8</ele>
        <time>2015-04-01T10:40:59.000Z</time>
      </trkpt>
      <trkpt lat="48.74735" lon="1.76012">
        <ele>144.5</ele>
        <time>2015-04-01T10:41:04.000Z</time>
      </trkpt>
      <trkpt lat="48.74723" lon="1.76023">
        <ele>143.9</ele>
        <time>2015-04-01T10:41:13.000Z</time>
      </trkpt>
      <trkpt lat="48.74718" lon="1.76027">
        <ele>144</ele>
        <time>2015-04-01T10:41:16.000Z</time>
      </trkpt>
      <trkpt lat="48.74708" lon="1.76036">
        <ele>144.6</ele>
        <time>2015-04-01T10:41:22.000Z</time>
      </trkpt>
      <trkpt lat="48.74699" lon="1.76043">
        <ele>144.7</ele>
        <time>2015-04-01T10:41:28.000Z</time>
      </trkpt>
      <trkpt lat="48.74689" lon="1.76049">
        <ele>144.6</ele>
        <time>2015-04-01T10:41:35.000Z</time>
      </trkpt>
      <trkpt lat="48.74681" lon="1.76055">
        <ele>144.5</ele>
        <time>2015-04-01T10:41:39.000Z</time>
      </trkpt>
      <trkpt lat="48.74672" lon="1.76061">
        <ele>144.6</ele>
        <time>2015-04-01T10:41:45.000Z</time>
      </trkpt>
      <trkpt lat="48.74662" lon="1.76066">
        <ele>144.8</ele>
        <time>2015-04-01T10:41:52.000Z</time>
      </trkpt>
      <trkpt lat="48.74653" lon="1.76068">
        <ele>145.1</ele>
        <time>2015-04-01T10:41:58.000Z</time>
      </trkpt>
      <trkpt lat="48.74648" lon="1.76071">
        <ele>145.5</ele>
        <time>2015-04-01T10:42:01.000Z</time>
      </trkpt>
      <trkpt lat="48.74641" lon="1.76076">
        <ele>146.1</ele>
        <time>2015-04-01T10:42:05.000Z</time>
      </trkpt>
      <trkpt lat="48.74636" lon="1.76077">
        <ele>146.3</ele>
        <time>2015-04-01T10:42:07.000Z</time>
      </trkpt>
      <trkpt lat="48.74623" lon="1.76079">
        <ele>146.5</ele>
        <time>2015-04-01T10:42:15.000Z</time>
      </trkpt>
      <trkpt lat="48.7461" lon="1.7608">
        <ele>146.6</ele>
        <time>2015-04-01T10:42:23.000Z</time>
      </trkpt>
      <trkpt lat="48.74598" lon="1.76081">
        <ele>145.9</ele>
        <time>2015-04-01T10:42:30.000Z</time>
      </trkpt>
      <trkpt lat="48.74586" lon="1.76087">
        <ele>145.7</ele>
        <time>2015-04-01T10:42:38.000Z</time>
      </trkpt>
      <trkpt lat="48.74575" lon="1.76091">
        <ele>145.6</ele>
        <time>2015-04-01T10:42:45.000Z</time>
      </trkpt>
      <trkpt lat="48.74573" lon="1.76094">
        <ele>145.8</ele>
        <time>2015-04-01T10:42:47.000Z</time>
      </trkpt>
      <trkpt lat="48.74567" lon="1.76103">
        <ele>146.4</ele>
        <time>2015-04-01T10:42:52.000Z</time>
      </trkpt>
      <trkpt lat="48.74554" lon="1.76106">
        <ele>145.5</ele>
        <time>2015-04-01T10:42:59.000Z</time>
      </trkpt>
      <trkpt lat="48.74546" lon="1.76106">
        <ele>145.1</ele>
        <time>2015-04-01T10:43:04.000Z</time>
      </trkpt>
      <trkpt lat="48.74541" lon="1.76107">
        <ele>144.8</ele>
        <time>2015-04-01T10:43:07.000Z</time>
      </trkpt>
      <trkpt lat="48.74536" lon="1.7611">
        <ele>144.6</ele>
        <time>2015-04-01T10:43:15.000Z</time>
      </trkpt>
      <trkpt lat="48.74536" lon="1.76111">
        <ele>144.6</ele>
        <time>2015-04-01T10:43:16.000Z</time>
      </trkpt>
      <trkpt lat="48.74529" lon="1.7612">
        <ele>144.7</ele>
        <time>2015-04-01T10:43:30.000Z</time>
      </trkpt>
      <trkpt lat="48.74523" lon="1.76119">
        <ele>144.5</ele>
        <time>2015-04-01T10:43:32.000Z</time>
      </trkpt>
      <trkpt lat="48.74519" lon="1.76117">
        <ele>144.3</ele>
        <time>2015-04-01T10:43:35.000Z</time>
      </trkpt>
      <trkpt lat="48.7451" lon="1.76121">
        <ele>144.3</ele>
        <time>2015-04-01T10:43:41.000Z</time>
      </trkpt>
      <trkpt lat="48.745" lon="1.76126">
        <ele>144</ele>
        <time>2015-04-01T10:43:47.000Z</time>
      </trkpt>
      <trkpt lat="48.7449" lon="1.76133">
        <ele>144.1</ele>
        <time>2015-04-01T10:43:53.000Z</time>
      </trkpt>
      <trkpt lat="48.74488" lon="1.76133">
        <ele>144.1</ele>
        <time>2015-04-01T10:43:55.000Z</time>
      </trkpt>
      <trkpt lat="48.74485" lon="1.76135">
        <ele>144.1</ele>
        <time>2015-04-01T10:43:57.000Z</time>
      </trkpt>
      <trkpt lat="48.74473" lon="1.76138">
        <ele>144</ele>
        <time>2015-04-01T10:44:04.000Z</time>
      </trkpt>
      <trkpt lat="48.74466" lon="1.76142">
        <ele>144.2</ele>
        <time>2015-04-01T10:44:09.000Z</time>
      </trkpt>
      <trkpt lat="48.7446" lon="1.76146">
        <ele>144.4</ele>
        <time>2015-04-01T10:44:13.000Z</time>
      </trkpt>
      <trkpt lat="48.74453" lon="1.76145">
        <ele>144.7</ele>
        <time>2015-04-01T10:44:17.000Z</time>
      </trkpt>
      <trkpt lat="48.74448" lon="1.76144">
        <ele>144.9</ele>
        <time>2015-04-01T10:44:21.000Z</time>
      </trkpt>
      <trkpt lat="48.74442" lon="1.76147">
        <ele>145.1</ele>
        <time>2015-04-01T10:44:26.000Z</time>
      </trkpt>
      <trkpt lat="48.74432" lon="1.76151">
        <ele>145.4</ele>
        <time>2015-04-01T10:44:32.000Z</time>
      </trkpt>
      <trkpt lat="48.74422" lon="1.76155">
        <ele>145.8</ele>
        <time>2015-04-01T10:44:38.000Z</time>
      </trkpt>
      <trkpt lat="48.74412" lon="1.76161">
        <ele>146</ele>
        <time>2015-04-01T10:44:45.000Z</time>
      </trkpt>
      <trkpt lat="48.744" lon="1.76164">
        <ele>146</ele>
        <time>2015-04-01T10:44:51.000Z</time>
      </trkpt>
      <trkpt lat="48.74386" lon="1.76166">
        <ele>146</ele>
        <time>2015-04-01T10:44:57.000Z</time>
      </trkpt>
      <trkpt lat="48.74381" lon="1.76167">
        <ele>146</ele>
        <time>2015-04-01T10:45:01.000Z</time>
      </trkpt>
      <trkpt lat="48.74372" lon="1.76173">
        <ele>145.9</ele>
        <time>2015-04-01T10:45:08.000Z</time>
      </trkpt>
      <trkpt lat="48.74363" lon="1.76176">
        <ele>146</ele>
        <time>2015-04-01T10:45:14.000Z</time>
      </trkpt>
      <trkpt lat="48.74357" lon="1.76178">
        <ele>146</ele>
        <time>2015-04-01T10:45:18.000Z</time>
      </trkpt>
      <trkpt lat="48.74348" lon="1.76182">
        <ele>146</ele>
        <time>2015-04-01T10:45:23.000Z</time>
      </trkpt>
      <trkpt lat="48.74336" lon="1.76185">
        <ele>146</ele>
        <time>2015-04-01T10:45:30.000Z</time>
      </trkpt>
      <trkpt lat="48.74333" lon="1.76188">
        <ele>146</ele>
        <time>2015-04-01T10:45:32.000Z</time>
      </trkpt>
      <trkpt lat="48.74321" lon="1.76194">
        <ele>146.4</ele>
        <time>2015-04-01T10:45:40.000Z</time>
      </trkpt>
      <trkpt lat="48.74309" lon="1.76201">
        <ele>146.9</ele>
        <time>2015-04-01T10:45:49.000Z</time>
      </trkpt>
      <trkpt lat="48.74298" lon="1.76207">
        <ele>147.4</ele>
        <time>2015-04-01T10:45:56.000Z</time>
      </trkpt>
      <trkpt lat="48.74291" lon="1.76215">
        <ele>147.7</ele>
        <time>2015-04-01T10:46:02.000Z</time>
      </trkpt>
      <trkpt lat="48.7428" lon="1.76227">
        <ele>147.9</ele>
        <time>2015-04-01T10:46:11.000Z</time>
      </trkpt>
      <trkpt lat="48.74274" lon="1.76239">
        <ele>148.3</ele>
        <time>2015-04-01T10:46:17.000Z</time>
      </trkpt>
      <trkpt lat="48.74268" lon="1.76249">
        <ele>148.7</ele>
        <time>2015-04-01T10:46:22.000Z</time>
      </trkpt>
      <trkpt lat="48.74262" lon="1.76262">
        <ele>148.7</ele>
        <time>2015-04-01T10:46:29.000Z</time>
      </trkpt>
      <trkpt lat="48.74259" lon="1.7627">
        <ele>148.7</ele>
        <time>2015-04-01T10:46:34.000Z</time>
      </trkpt>
      <trkpt lat="48.74252" lon="1.7628">
        <ele>148.7</ele>
        <time>2015-04-01T10:46:40.000Z</time>
      </trkpt>
      <trkpt lat="48.74247" lon="1.763">
        <ele>148.6</ele>
        <time>2015-04-01T10:46:47.000Z</time>
      </trkpt>
      <trkpt lat="48.74247" lon="1.76305">
        <ele>148.4</ele>
        <time>2015-04-01T10:46:50.000Z</time>
      </trkpt>
      <trkpt lat="48.74248" lon="1.7632">
        <ele>148.2</ele>
        <time>2015-04-01T10:46:56.000Z</time>
      </trkpt>
      <trkpt lat="48.74244" lon="1.76336">
        <ele>148.4</ele>
        <time>2015-04-01T10:47:02.000Z</time>
      </trkpt>
      <trkpt lat="48.74243" lon="1.76338">
        <ele>148.5</ele>
        <time>2015-04-01T10:47:03.000Z</time>
      </trkpt>
      <trkpt lat="48.74242" lon="1.76349">
        <ele>148.6</ele>
        <time>2015-04-01T10:47:08.000Z</time>
      </trkpt>
      <trkpt lat="48.74236" lon="1.76359">
        <ele>149</ele>
        <time>2015-04-01T10:47:13.000Z</time>
      </trkpt>
      <trkpt lat="48.74231" lon="1.76366">
        <ele>149.2</ele>
        <time>2015-04-01T10:47:18.000Z</time>
      </trkpt>
      <trkpt lat="48.74227" lon="1.76381">
        <ele>149.1</ele>
        <time>2015-04-01T10:47:25.000Z</time>
      </trkpt>
      <trkpt lat="48.74222" lon="1.76391">
        <ele>148.9</ele>
        <time>2015-04-01T10:47:31.000Z</time>
      </trkpt>
      <trkpt lat="48.74219" lon="1.764">
        <ele>148.8</ele>
        <time>2015-04-01T10:47:34.000Z</time>
      </trkpt>
      <trkpt lat="48.74214" lon="1.76412">
        <ele>148.8</ele>
        <time>2015-04-01T10:47:40.000Z</time>
      </trkpt>
      <trkpt lat="48.74212" lon="1.76422">
        <ele>148.9</ele>
        <time>2015-04-01T10:47:45.000Z</time>
      </trkpt>
      <trkpt lat="48.74211" lon="1.76434">
        <ele>149.4</ele>
        <time>2015-04-01T10:47:52.000Z</time>
      </trkpt>
      <trkpt lat="48.74209" lon="1.76447">
        <ele>149.9</ele>
        <time>2015-04-01T10:47:58.000Z</time>
      </trkpt>
      <trkpt lat="48.7421" lon="1.76452">
        <ele>149.9</ele>
        <time>2015-04-01T10:48:00.000Z</time>
      </trkpt>
      <trkpt lat="48.74213" lon="1.76457">
        <ele>149.6</ele>
        <time>2015-04-01T10:48:03.000Z</time>
      </trkpt>
      <trkpt lat="48.74216" lon="1.76463">
        <ele>149.4</ele>
        <time>2015-04-01T10:48:06.000Z</time>
      </trkpt>
      <trkpt lat="48.74224" lon="1.76476">
        <ele>149</ele>
        <time>2015-04-01T10:48:12.000Z</time>
      </trkpt>
      <trkpt lat="48.7423" lon="1.76493">
        <ele>148.8</ele>
        <time>2015-04-01T10:48:17.000Z</time>
      </trkpt>
      <trkpt lat="48.74238" lon="1.76515">
        <ele>148.4</ele>
        <time>2015-04-01T10:48:22.000Z</time>
      </trkpt>
      <trkpt lat="48.74241" lon="1.76541">
        <ele>148.8</ele>
        <time>2015-04-01T10:48:27.000Z</time>
      </trkpt>
      <trkpt lat="48.74241" lon="1.76561">
        <ele>149.3</ele>
        <time>2015-04-01T10:48:31.000Z</time>
      </trkpt>
      <trkpt lat="48.74235" lon="1.76593">
        <ele>149.5</ele>
        <time>2015-04-01T10:48:37.000Z</time>
      </trkpt>
      <trkpt lat="48.74229" lon="1.76625">
        <ele>149.8</ele>
        <time>2015-04-01T10:48:43.000Z</time>
      </trkpt>
      <trkpt lat="48.74221" lon="1.76664">
        <ele>150</ele>
        <time>2015-04-01T10:48:50.000Z</time>
      </trkpt>
      <trkpt lat="48.74213" lon="1.76704">
        <ele>149.5</ele>
        <time>2015-04-01T10:48:57.000Z</time>
      </trkpt>
      <trkpt lat="48.74205" lon="1.76745">
        <ele>148.8</ele>
        <time>2015-04-01T10:49:04.000Z</time>
      </trkpt>
      <trkpt lat="48.74203" lon="1.76756">
        <ele>148.7</ele>
        <time>2015-04-01T10:49:06.000Z</time>
      </trkpt>
      <trkpt lat="48.74196" lon="1.76789">
        <ele>148.6</ele>
        <time>2015-04-01T10:49:12.000Z</time>
      </trkpt>
      <trkpt lat="48.7418" lon="1.76829">
        <ele>148.6</ele>
        <time>2015-04-01T10:49:20.000Z</time>
      </trkpt>
      <trkpt lat="48.74164" lon="1.76862">
        <ele>148.1</ele>
        <time>2015-04-01T10:49:27.000Z</time>
      </trkpt>
      <trkpt lat="48.74151" lon="1.76893">
        <ele>148</ele>
        <time>2015-04-01T10:49:33.000Z</time>
      </trkpt>
      <trkpt lat="48.74141" lon="1.76919">
        <ele>148</ele>
        <time>2015-04-01T10:49:38.000Z</time>
      </trkpt>
      <trkpt lat="48.74139" lon="1.76924">
        <ele>148</ele>
        <time>2015-04-01T10:49:39.000Z</time>
      </trkpt>
      <trkpt lat="48.74128" lon="1.7695">
        <ele>148</ele>
        <time>2015-04-01T10:49:44.000Z</time>
      </trkpt>
      <trkpt lat="48.7411" lon="1.7698">
        <ele>148.1</ele>
        <time>2015-04-01T10:49:51.000Z</time>
      </trkpt>
      <trkpt lat="48.74093" lon="1.77012">
        <ele>149.3</ele>
        <time>2015-04-01T10:49:58.000Z</time>
      </trkpt>
      <trkpt lat="48.74079" lon="1.77038">
        <ele>150.3</ele>
        <time>2015-04-01T10:50:04.000Z</time>
      </trkpt>
      <trkpt lat="48.74062" lon="1.7707">
        <ele>150.8</ele>
        <time>2015-04-01T10:50:11.000Z</time>
      </trkpt>
      <trkpt lat="48.74051" lon="1.7709">
        <ele>150.9</ele>
        <time>2015-04-01T10:50:15.000Z</time>
      </trkpt>
      <trkpt lat="48.74045" lon="1.771">
        <ele>150.8</ele>
        <time>2015-04-01T10:50:17.000Z</time>
      </trkpt>
      <trkpt lat="48.7404" lon="1.77109">
        <ele>150.6</ele>
        <time>2015-04-01T10:50:19.000Z</time>
      </trkpt>
      <trkpt lat="48.74021" lon="1.77139">
        <ele>150.5</ele>
        <time>2015-04-01T10:50:26.000Z</time>
      </trkpt>
      <trkpt lat="48.73997" lon="1.77177">
        <ele>151.5</ele>
        <time>2015-04-01T10:50:35.000Z</time>
      </trkpt>
      <trkpt lat="48.73981" lon="1.77195">
        <ele>151.3</ele>
        <time>2015-04-01T10:50:40.000Z</time>
      </trkpt>
      <trkpt lat="48.73973" lon="1.77201">
        <ele>151.3</ele>
        <time>2015-04-01T10:50:42.000Z</time>
      </trkpt>
      <trkpt lat="48.73951" lon="1.77216">
        <ele>153</ele>
        <time>2015-04-01T10:50:47.000Z</time>
      </trkpt>
      <trkpt lat="48.73929" lon="1.77227">
        <ele>154</ele>
        <time>2015-04-01T10:50:53.000Z</time>
      </trkpt>
      <trkpt lat="48.73925" lon="1.77229">
        <ele>154.2</ele>
        <time>2015-04-01T10:50:54.000Z</time>
      </trkpt>
      <trkpt lat="48.73912" lon="1.77236">
        <ele>154.7</ele>
        <time>2015-04-01T10:50:58.000Z</time>
      </trkpt>
      <trkpt lat="48.73893" lon="1.77247">
        <ele>155.1</ele>
        <time>2015-04-01T10:51:03.000Z</time>
      </trkpt>
      <trkpt lat="48.73879" lon="1.77263">
        <ele>155.6</ele>
        <time>2015-04-01T10:51:07.000Z</time>
      </trkpt>
      <trkpt lat="48.73876" lon="1.77272">
        <ele>155.7</ele>
        <time>2015-04-01T10:51:09.000Z</time>
      </trkpt>
      <trkpt lat="48.73865" lon="1.77295">
        <ele>156.1</ele>
        <time>2015-04-01T10:51:15.000Z</time>
      </trkpt>
      <trkpt lat="48.73856" lon="1.77316">
        <ele>156.2</ele>
        <time>2015-04-01T10:51:22.000Z</time>
      </trkpt>
      <trkpt lat="48.73852" lon="1.77323">
        <ele>156.4</ele>
        <time>2015-04-01T10:51:25.000Z</time>
      </trkpt>
      <trkpt lat="48.73849" lon="1.7733">
        <ele>156.5</ele>
        <time>2015-04-01T10:51:29.000Z</time>
      </trkpt>
      <trkpt lat="48.73845" lon="1.7734">
        <ele>156.4</ele>
        <time>2015-04-01T10:51:35.000Z</time>
      </trkpt>
      <trkpt lat="48.7384" lon="1.77351">
        <ele>156.2</ele>
        <time>2015-04-01T10:51:41.000Z</time>
      </trkpt>
      <trkpt lat="48.73834" lon="1.77367">
        <ele>155.8</ele>
        <time>2015-04-01T10:51:49.000Z</time>
      </trkpt>
      <trkpt lat="48.73826" lon="1.77373">
        <ele>156.3</ele>
        <time>2015-04-01T10:51:55.000Z</time>
      </trkpt>
      <trkpt lat="48.73823" lon="1.7738">
        <ele>156.2</ele>
        <time>2015-04-01T10:52:00.000Z</time>
      </trkpt>
      <trkpt lat="48.73826" lon="1.77391">
        <ele>155.5</ele>
        <time>2015-04-01T10:52:07.000Z</time>
      </trkpt>
      <trkpt lat="48.73836" lon="1.77398">
        <ele>154.9</ele>
        <time>2015-04-01T10:52:13.000Z</time>
      </trkpt>
      <trkpt lat="48.73842" lon="1.77406">
        <ele>154.7</ele>
        <time>2015-04-01T10:52:19.000Z</time>
      </trkpt>
      <trkpt lat="48.73844" lon="1.77411">
        <ele>154.6</ele>
        <time>2015-04-01T10:52:22.000Z</time>
      </trkpt>
      <trkpt lat="48.73855" lon="1.77417">
        <ele>154.2</ele>
        <time>2015-04-01T10:52:29.000Z</time>
      </trkpt>
      <trkpt lat="48.73856" lon="1.77418">
        <ele>154.2</ele>
        <time>2015-04-01T10:52:34.000Z</time>
      </trkpt>
      <trkpt lat="48.73859" lon="1.77425">
        <ele>154.1</ele>
        <time>2015-04-01T10:52:42.000Z</time>
      </trkpt>
      <trkpt lat="48.73859" lon="1.77433">
        <ele>154</ele>
        <time>2015-04-01T10:52:46.000Z</time>
      </trkpt>
      <trkpt lat="48.73859" lon="1.77437">
        <ele>154</ele>
        <time>2015-04-01T10:52:50.000Z</time>
      </trkpt>
      <trkpt lat="48.7385" lon="1.77448">
        <ele>154</ele>
        <time>2015-04-01T10:54:03.000Z</time>
      </trkpt>
      <trkpt lat="48.73849" lon="1.77448">
        <ele>154</ele>
        <time>2015-04-01T10:54:04.000Z</time>
      </trkpt>
      <trkpt lat="48.73846" lon="1.77451">
        <ele>154</ele>
        <time>2015-04-01T10:54:08.000Z</time>
      </trkpt>
      <trkpt lat="48.73846" lon="1.77451">
        <ele>154</ele>
        <time>2015-04-01T10:54:11.000Z</time>
      </trkpt>
      <trkpt lat="48.73855" lon="1.77441">
        <ele>154</ele>
        <time>2015-04-01T10:58:14.000Z</time>
      </trkpt>
      <trkpt lat="48.73858" lon="1.77438">
        <ele>154</ele>
        <time>2015-04-01T10:58:17.000Z</time>
      </trkpt>
      <trkpt lat="48.73859" lon="1.77438">
        <ele>154</ele>
        <time>2015-04-01T10:58:20.000Z</time>
      </trkpt>
      <trkpt lat="48.73866" lon="1.77445">
        <ele>154</ele>
        <time>2015-04-01T10:58:31.000Z</time>
      </trkpt>
      <trkpt lat="48.73874" lon="1.77453">
        <ele>154.1</ele>
        <time>2015-04-01T10:58:36.000Z</time>
      </trkpt>
      <trkpt lat="48.73878" lon="1.77462">
        <ele>154.4</ele>
        <time>2015-04-01T10:58:39.000Z</time>
      </trkpt>
      <trkpt lat="48.73883" lon="1.77465">
        <ele>154.6</ele>
        <time>2015-04-01T10:58:41.000Z</time>
      </trkpt>
      <trkpt lat="48.73891" lon="1.77476">
        <ele>155.3</ele>
        <time>2015-04-01T10:58:49.000Z</time>
      </trkpt>
      <trkpt lat="48.73896" lon="1.77486">
        <ele>155.8</ele>
        <time>2015-04-01T10:58:54.000Z</time>
      </trkpt>
      <trkpt lat="48.73895" lon="1.77499">
        <ele>156</ele>
        <time>2015-04-01T10:59:00.000Z</time>
      </trkpt>
      <trkpt lat="48.73891" lon="1.77503">
        <ele>156.2</ele>
        <time>2015-04-01T10:59:02.000Z</time>
      </trkpt>
      <trkpt lat="48.73881" lon="1.77513">
        <ele>156.9</ele>
        <time>2015-04-01T10:59:09.000Z</time>
      </trkpt>
      <trkpt lat="48.73877" lon="1.77521">
        <ele>157.5</ele>
        <time>2015-04-01T10:59:14.000Z</time>
      </trkpt>
      <trkpt lat="48.73876" lon="1.77523">
        <ele>157.6</ele>
        <time>2015-04-01T10:59:15.000Z</time>
      </trkpt>
      <trkpt lat="48.73875" lon="1.77531">
        <ele>158.5</ele>
        <time>2015-04-01T10:59:21.000Z</time>
      </trkpt>
      <trkpt lat="48.73873" lon="1.77545">
        <ele>160.5</ele>
        <time>2015-04-01T10:59:28.000Z</time>
      </trkpt>
      <trkpt lat="48.7387" lon="1.77556">
        <ele>162</ele>
        <time>2015-04-01T10:59:34.000Z</time>
      </trkpt>
      <trkpt lat="48.73866" lon="1.77566">
        <ele>162.8</ele>
        <time>2015-04-01T10:59:40.000Z</time>
      </trkpt>
      <trkpt lat="48.73863" lon="1.7758">
        <ele>163.8</ele>
        <time>2015-04-01T10:59:47.000Z</time>
      </trkpt>
      <trkpt lat="48.73861" lon="1.77584">
        <ele>164</ele>
        <time>2015-04-01T10:59:50.000Z</time>
      </trkpt>
      <trkpt lat="48.73861" lon="1.77595">
        <ele>164.4</ele>
        <time>2015-04-01T10:59:57.000Z</time>
      </trkpt>
      <trkpt lat="48.73861" lon="1.77595">
        <ele>164.4</ele>
        <time>2015-04-01T10:59:59.000Z</time>
      </trkpt>
      <trkpt lat="48.73861" lon="1.77603">
        <ele>164.6</ele>
        <time>2015-04-01T11:00:05.000Z</time>
      </trkpt>
      <trkpt lat="48.73854" lon="1.77614">
        <ele>164.4</ele>
        <time>2015-04-01T11:00:10.000Z</time>
      </trkpt>
      <trkpt lat="48.73849" lon="1.77625">
        <ele>164.7</ele>
        <time>2015-04-01T11:00:16.000Z</time>
      </trkpt>
      <trkpt lat="48.73847" lon="1.77629">
        <ele>164.8</ele>
        <time>2015-04-01T11:00:19.000Z</time>
      </trkpt>
      <trkpt lat="48.73847" lon="1.77635">
        <ele>165.2</ele>
        <time>2015-04-01T11:00:23.000Z</time>
      </trkpt>
      <trkpt lat="48.73848" lon="1.77647">
        <ele>165.9</ele>
        <time>2015-04-01T11:00:29.000Z</time>
      </trkpt>
      <trkpt lat="48.73847" lon="1.7766">
        <ele>166.2</ele>
        <time>2015-04-01T11:00:35.000Z</time>
      </trkpt>
      <trkpt lat="48.73842" lon="1.77676">
        <ele>166.2</ele>
        <time>2015-04-01T11:00:43.000Z</time>
      </trkpt>
      <trkpt lat="48.73839" lon="1.77695">
        <ele>166.4</ele>
        <time>2015-04-01T11:00:51.000Z</time>
      </trkpt>
      <trkpt lat="48.73838" lon="1.77702">
        <ele>166.4</ele>
        <time>2015-04-01T11:00:54.000Z</time>
      </trkpt>
      <trkpt lat="48.73835" lon="1.77717">
        <ele>166.2</ele>
        <time>2015-04-01T11:01:01.000Z</time>
      </trkpt>
      <trkpt lat="48.73832" lon="1.77735">
        <ele>165.8</ele>
        <time>2015-04-01T11:01:09.000Z</time>
      </trkpt>
      <trkpt lat="48.7383" lon="1.77752">
        <ele>165.6</ele>
        <time>2015-04-01T11:01:16.000Z</time>
      </trkpt>
      <trkpt lat="48.73828" lon="1.77772">
        <ele>165.5</ele>
        <time>2015-04-01T11:01:24.000Z</time>
      </trkpt>
      <trkpt lat="48.73827" lon="1.77787">
        <ele>165.3</ele>
        <time>2015-04-01T11:01:31.000Z</time>
      </trkpt>
      <trkpt lat="48.73825" lon="1.77806">
        <ele>165.1</ele>
        <time>2015-04-01T11:01:40.000Z</time>
      </trkpt>
      <trkpt lat="48.73823" lon="1.77823">
        <ele>165.3</ele>
        <time>2015-04-01T11:01:47.000Z</time>
      </trkpt>
      <trkpt lat="48.73822" lon="1.7783">
        <ele>165.3</ele>
        <time>2015-04-01T11:01:50.000Z</time>
      </trkpt>
      <trkpt lat="48.73821" lon="1.77842">
        <ele>165.4</ele>
        <time>2015-04-01T11:01:56.000Z</time>
      </trkpt>
      <trkpt lat="48.73821" lon="1.77858">
        <ele>165.6</ele>
        <time>2015-04-01T11:02:04.000Z</time>
      </trkpt>
      <trkpt lat="48.73822" lon="1.77861">
        <ele>165.8</ele>
        <time>2015-04-01T11:02:06.000Z</time>
      </trkpt>
      <trkpt lat="48.73823" lon="1.77873">
        <ele>166.5</ele>
        <time>2015-04-01T11:02:12.000Z</time>
      </trkpt>
      <trkpt lat="48.73825" lon="1.77884">
        <ele>167.1</ele>
        <time>2015-04-01T11:02:17.000Z</time>
      </trkpt>
      <trkpt lat="48.73823" lon="1.77896">
        <ele>167.7</ele>
        <time>2015-04-01T11:02:20.000Z</time>
      </trkpt>
      <trkpt lat="48.73822" lon="1.77906">
        <ele>168.1</ele>
        <time>2015-04-01T11:02:25.000Z</time>
      </trkpt>
      <trkpt lat="48.73816" lon="1.77918">
        <ele>168.3</ele>
        <time>2015-04-01T11:02:32.000Z</time>
      </trkpt>
      <trkpt lat="48.73805" lon="1.77935">
        <ele>168.3</ele>
        <time>2015-04-01T11:02:42.000Z</time>
      </trkpt>
      <trkpt lat="48.73799" lon="1.77944">
        <ele>168</ele>
        <time>2015-04-01T11:02:48.000Z</time>
      </trkpt>
      <trkpt lat="48.73795" lon="1.77955">
        <ele>168</ele>
        <time>2015-04-01T11:02:53.000Z</time>
      </trkpt>
      <trkpt lat="48.7379" lon="1.77973">
        <ele>168.3</ele>
        <time>2015-04-01T11:02:59.000Z</time>
      </trkpt>
      <trkpt lat="48.73787" lon="1.77984">
        <ele>168.4</ele>
        <time>2015-04-01T11:03:04.000Z</time>
      </trkpt>
      <trkpt lat="48.73784" lon="1.78001">
        <ele>168.7</ele>
        <time>2015-04-01T11:03:13.000Z</time>
      </trkpt>
      <trkpt lat="48.73781" lon="1.78016">
        <ele>168.9</ele>
        <time>2015-04-01T11:03:21.000Z</time>
      </trkpt>
      <trkpt lat="48.73776" lon="1.78039">
        <ele>169.7</ele>
        <time>2015-04-01T11:03:32.000Z</time>
      </trkpt>
      <trkpt lat="48.73776" lon="1.78043">
        <ele>169.9</ele>
        <time>2015-04-01T11:03:34.000Z</time>
      </trkpt>
      <trkpt lat="48.73774" lon="1.7805">
        <ele>170.2</ele>
        <time>2015-04-01T11:03:38.000Z</time>
      </trkpt>
      <trkpt lat="48.73772" lon="1.78067">
        <ele>170.9</ele>
        <time>2015-04-01T11:03:45.000Z</time>
      </trkpt>
      <trkpt lat="48.73772" lon="1.78073">
        <ele>171.1</ele>
        <time>2015-04-01T11:03:48.000Z</time>
      </trkpt>
      <trkpt lat="48.73771" lon="1.78086">
        <ele>171.6</ele>
        <time>2015-04-01T11:03:54.000Z</time>
      </trkpt>
      <trkpt lat="48.7377" lon="1.78089">
        <ele>171.7</ele>
        <time>2015-04-01T11:03:58.000Z</time>
      </trkpt>
      <trkpt lat="48.73767" lon="1.78115">
        <ele>172.3</ele>
        <time>2015-04-01T11:11:48.000Z</time>
      </trkpt>
      <trkpt lat="48.73765" lon="1.78127">
        <ele>172.4</ele>
        <time>2015-04-01T11:11:53.000Z</time>
      </trkpt>
      <trkpt lat="48.73761" lon="1.7814">
        <ele>172.2</ele>
        <time>2015-04-01T11:12:00.000Z</time>
      </trkpt>
      <trkpt lat="48.73759" lon="1.78146">
        <ele>172.1</ele>
        <time>2015-04-01T11:12:03.000Z</time>
      </trkpt>
      <trkpt lat="48.73757" lon="1.78154">
        <ele>172.2</ele>
        <time>2015-04-01T11:12:07.000Z</time>
      </trkpt>
      <trkpt lat="48.73756" lon="1.78172">
        <ele>172.5</ele>
        <time>2015-04-01T11:12:16.000Z</time>
      </trkpt>
      <trkpt lat="48.73756" lon="1.78181">
        <ele>172.5</ele>
        <time>2015-04-01T11:12:20.000Z</time>
      </trkpt>
      <trkpt lat="48.73755" lon="1.78196">
        <ele>172.6</ele>
        <time>2015-04-01T11:12:27.000Z</time>
      </trkpt>
      <trkpt lat="48.73755" lon="1.78204">
        <ele>172.9</ele>
        <time>2015-04-01T11:12:31.000Z</time>
      </trkpt>
      <trkpt lat="48.73757" lon="1.78216">
        <ele>173.3</ele>
        <time>2015-04-01T11:12:37.000Z</time>
      </trkpt>
      <trkpt lat="48.73759" lon="1.78232">
        <ele>173.7</ele>
        <time>2015-04-01T11:12:45.000Z</time>
      </trkpt>
      <trkpt lat="48.73759" lon="1.78234">
        <ele>173.7</ele>
        <time>2015-04-01T11:12:46.000Z</time>
      </trkpt>
      <trkpt lat="48.73758" lon="1.78247">
        <ele>173.6</ele>
        <time>2015-04-01T11:12:52.000Z</time>
      </trkpt>
      <trkpt lat="48.73756" lon="1.78253">
        <ele>173.6</ele>
        <time>2015-04-01T11:12:55.000Z</time>
      </trkpt>
      <trkpt lat="48.7375" lon="1.78264">
        <ele>174</ele>
        <time>2015-04-01T11:13:02.000Z</time>
      </trkpt>
      <trkpt lat="48.73747" lon="1.78269">
        <ele>174.3</ele>
        <time>2015-04-01T11:13:06.000Z</time>
      </trkpt>
      <trkpt lat="48.7374" lon="1.78288">
        <ele>175.4</ele>
        <time>2015-04-01T11:13:15.000Z</time>
      </trkpt>
      <trkpt lat="48.73738" lon="1.78305">
        <ele>176</ele>
        <time>2015-04-01T11:13:22.000Z</time>
      </trkpt>
      <trkpt lat="48.73736" lon="1.7832">
        <ele>176.5</ele>
        <time>2015-04-01T11:13:29.000Z</time>
      </trkpt>
      <trkpt lat="48.73734" lon="1.78333">
        <ele>177</ele>
        <time>2015-04-01T11:13:35.000Z</time>
      </trkpt>
      <trkpt lat="48.73732" lon="1.78347">
        <ele>177.5</ele>
        <time>2015-04-01T11:13:41.000Z</time>
      </trkpt>
      <trkpt lat="48.73728" lon="1.78369">
        <ele>178.3</ele>
        <time>2015-04-01T11:13:50.000Z</time>
      </trkpt>
      <trkpt lat="48.73726" lon="1.78389">
        <ele>179</ele>
        <time>2015-04-01T11:13:55.000Z</time>
      </trkpt>
      <trkpt lat="48.7372" lon="1.78416">
        <ele>179</ele>
        <time>2015-04-01T11:14:00.000Z</time>
      </trkpt>
      <trkpt lat="48.73715" lon="1.78442">
        <ele>179.7</ele>
        <time>2015-04-01T11:14:05.000Z</time>
      </trkpt>
      <trkpt lat="48.73705" lon="1.78492">
        <ele>180</ele>
        <time>2015-04-01T11:14:14.000Z</time>
      </trkpt>
      <trkpt lat="48.737" lon="1.78521">
        <ele>180</ele>
        <time>2015-04-01T11:14:19.000Z</time>
      </trkpt>
      <trkpt lat="48.73696" lon="1.78543">
        <ele>180</ele>
        <time>2015-04-01T11:14:23.000Z</time>
      </trkpt>
      <trkpt lat="48.73687" lon="1.78582">
        <ele>179.7</ele>
        <time>2015-04-01T11:14:30.000Z</time>
      </trkpt>
      <trkpt lat="48.7368" lon="1.7862">
        <ele>179.5</ele>
        <time>2015-04-01T11:14:37.000Z</time>
      </trkpt>
      <trkpt lat="48.73672" lon="1.78653">
        <ele>179.6</ele>
        <time>2015-04-01T11:14:43.000Z</time>
      </trkpt>
      <trkpt lat="48.73662" lon="1.7869">
        <ele>180.7</ele>
        <time>2015-04-01T11:14:50.000Z</time>
      </trkpt>
      <trkpt lat="48.73656" lon="1.78722">
        <ele>181</ele>
        <time>2015-04-01T11:14:56.000Z</time>
      </trkpt>
      <trkpt lat="48.73646" lon="1.78772">
        <ele>181.9</ele>
        <time>2015-04-01T11:15:05.000Z</time>
      </trkpt>
      <trkpt lat="48.73635" lon="1.78825">
        <ele>182</ele>
        <time>2015-04-01T11:15:15.000Z</time>
      </trkpt>
      <trkpt lat="48.7363" lon="1.78843">
        <ele>182.2</ele>
        <time>2015-04-01T11:15:20.000Z</time>
      </trkpt>
      <trkpt lat="48.73621" lon="1.78848">
        <ele>182.2</ele>
        <time>2015-04-01T11:15:26.000Z</time>
      </trkpt>
      <trkpt lat="48.73619" lon="1.78847">
        <ele>182.1</ele>
        <time>2015-04-01T11:15:29.000Z</time>
      </trkpt>
      <trkpt lat="48.73619" lon="1.7885">
        <ele>182.2</ele>
        <time>2015-04-01T11:15:31.000Z</time>
      </trkpt>
      <trkpt lat="48.73628" lon="1.78858">
        <ele>182.5</ele>
        <time>2015-04-01T11:15:39.000Z</time>
      </trkpt>
      <trkpt lat="48.73638" lon="1.78866">
        <ele>183</ele>
        <time>2015-04-01T11:15:46.000Z</time>
      </trkpt>
      <trkpt lat="48.73647" lon="1.78872">
        <ele>183</ele>
        <time>2015-04-01T11:15:52.000Z</time>
      </trkpt>
      <trkpt lat="48.73649" lon="1.78871">
        <ele>183</ele>
        <time>2015-04-01T11:15:57.000Z</time>
      </trkpt>
      <trkpt lat="48.73647" lon="1.78868">
        <ele>183</ele>
        <time>2015-04-01T11:15:59.000Z</time>
      </trkpt>
      <trkpt lat="48.73634" lon="1.78855">
        <ele>182.7</ele>
        <time>2015-04-01T11:16:09.000Z</time>
      </trkpt>
      <trkpt lat="48.73625" lon="1.78845">
        <ele>182.2</ele>
        <time>2015-04-01T11:16:15.000Z</time>
      </trkpt>
      <trkpt lat="48.73616" lon="1.78839">
        <ele>182</ele>
        <time>2015-04-01T11:16:20.000Z</time>
      </trkpt>
      <trkpt lat="48.73614" lon="1.78838">
        <ele>182</ele>
        <time>2015-04-01T11:16:21.000Z</time>
      </trkpt>
      <trkpt lat="48.7361" lon="1.78838">
        <ele>182</ele>
        <time>2015-04-01T11:16:26.000Z</time>
      </trkpt>
      <trkpt lat="48.7361" lon="1.78838">
        <ele>182</ele>
        <time>2015-04-01T11:16:27.000Z</time>
      </trkpt>
      <trkpt lat="48.736" lon="1.7883">
        <ele>181.6</ele>
        <time>2015-04-01T11:17:47.000Z</time>
      </trkpt>
      <trkpt lat="48.73593" lon="1.78823">
        <ele>181.1</ele>
        <time>2015-04-01T11:17:51.000Z</time>
      </trkpt>
      <trkpt lat="48.73584" lon="1.7881">
        <ele>180.2</ele>
        <time>2015-04-01T11:17:59.000Z</time>
      </trkpt>
      <trkpt lat="48.73578" lon="1.78803">
        <ele>179.8</ele>
        <time>2015-04-01T11:18:04.000Z</time>
      </trkpt>
      <trkpt lat="48.73576" lon="1.788">
        <ele>179.7</ele>
        <time>2015-04-01T11:18:08.000Z</time>
      </trkpt>
      <trkpt lat="48.73572" lon="1.78796">
        <ele>179.4</ele>
        <time>2015-04-01T11:18:14.000Z</time>
      </trkpt>
      <trkpt lat="48.73564" lon="1.78788">
        <ele>178.8</ele>
        <time>2015-04-01T11:18:19.000Z</time>
      </trkpt>
      <trkpt lat="48.73559" lon="1.78783">
        <ele>178.4</ele>
        <time>2015-04-01T11:18:23.000Z</time>
      </trkpt>
      <trkpt lat="48.73554" lon="1.78779">
        <ele>178</ele>
        <time>2015-04-01T11:18:27.000Z</time>
      </trkpt>
      <trkpt lat="48.73543" lon="1.78768">
        <ele>177.4</ele>
        <time>2015-04-01T11:18:37.000Z</time>
      </trkpt>
      <trkpt lat="48.73534" lon="1.7876">
        <ele>176.7</ele>
        <time>2015-04-01T11:18:44.000Z</time>
      </trkpt>
      <trkpt lat="48.7353" lon="1.78756">
        <ele>176.4</ele>
        <time>2015-04-01T11:18:47.000Z</time>
      </trkpt>
      <trkpt lat="48.73522" lon="1.7875">
        <ele>175.8</ele>
        <time>2015-04-01T11:18:54.000Z</time>
      </trkpt>
      <trkpt lat="48.7352" lon="1.78748">
        <ele>175.7</ele>
        <time>2015-04-01T11:18:55.000Z</time>
      </trkpt>
      <trkpt lat="48.73512" lon="1.78741">
        <ele>175.3</ele>
        <time>2015-04-01T11:19:02.000Z</time>
      </trkpt>
      <trkpt lat="48.73507" lon="1.78738">
        <ele>174.9</ele>
        <time>2015-04-01T11:19:06.000Z</time>
      </trkpt>
      <trkpt lat="48.73498" lon="1.78727">
        <ele>174</ele>
        <time>2015-04-01T11:19:14.000Z</time>
      </trkpt>
      <trkpt lat="48.73497" lon="1.78725">
        <ele>173.9</ele>
        <time>2015-04-01T11:19:15.000Z</time>
      </trkpt>
      <trkpt lat="48.73485" lon="1.78715">
        <ele>172.7</ele>
        <time>2015-04-01T11:19:24.000Z</time>
      </trkpt>
      <trkpt lat="48.73477" lon="1.78706">
        <ele>171.8</ele>
        <time>2015-04-01T11:19:31.000Z</time>
      </trkpt>
      <trkpt lat="48.73473" lon="1.78701">
        <ele>171.3</ele>
        <time>2015-04-01T11:19:35.000Z</time>
      </trkpt>
      <trkpt lat="48.73464" lon="1.78696">
        <ele>170.5</ele>
        <time>2015-04-01T11:19:42.000Z</time>
      </trkpt>
      <trkpt lat="48.73457" lon="1.78689">
        <ele>169.8</ele>
        <time>2015-04-01T11:19:48.000Z</time>
      </trkpt>
      <trkpt lat="48.73447" lon="1.78679">
        <ele>168.7</ele>
        <time>2015-04-01T11:19:56.000Z</time>
      </trkpt>
      <trkpt lat="48.73437" lon="1.78669">
        <ele>167.5</ele>
        <time>2015-04-01T11:20:04.000Z</time>
      </trkpt>
      <trkpt lat="48.73427" lon="1.78657">
        <ele>166.8</ele>
        <time>2015-04-01T11:20:12.000Z</time>
      </trkpt>
      <trkpt lat="48.73422" lon="1.78652">
        <ele>166.4</ele>
        <time>2015-04-01T11:20:16.000Z</time>
      </trkpt>
      <trkpt lat="48.73417" lon="1.78649">
        <ele>166</ele>
        <time>2015-04-01T11:20:20.000Z</time>
      </trkpt>
      <trkpt lat="48.7341" lon="1.78641">
        <ele>165.7</ele>
        <time>2015-04-01T11:20:26.000Z</time>
      </trkpt>
      <trkpt lat="48.734" lon="1.78631">
        <ele>165.1</ele>
        <time>2015-04-01T11:20:34.000Z</time>
      </trkpt>
      <trkpt lat="48.73394" lon="1.78629">
        <ele>164.8</ele>
        <time>2015-04-01T11:20:40.000Z</time>
      </trkpt>
      <trkpt lat="48.73393" lon="1.7863">
        <ele>164.8</ele>
        <time>2015-04-01T11:20:42.000Z</time>
      </trkpt>
      <trkpt lat="48.73368" lon="1.78616">
        <ele>164.8</ele>
        <time>2015-04-01T11:23:18.000Z</time>
      </trkpt>
      <trkpt lat="48.73359" lon="1.78607">
        <ele>165.3</ele>
        <time>2015-04-01T11:23:24.000Z</time>
      </trkpt>
      <trkpt lat="48.73357" lon="1.78604">
        <ele>165.5</ele>
        <time>2015-04-01T11:23:26.000Z</time>
      </trkpt>
      <trkpt lat="48.73347" lon="1.78593">
        <ele>166.7</ele>
        <time>2015-04-01T11:23:34.000Z</time>
      </trkpt>
      <trkpt lat="48.7334" lon="1.78585">
        <ele>167.5</ele>
        <time>2015-04-01T11:23:40.000Z</time>
      </trkpt>
      <trkpt lat="48.73334" lon="1.7858">
        <ele>168.1</ele>
        <time>2015-04-01T11:23:46.000Z</time>
      </trkpt>
      <trkpt lat="48.73325" lon="1.7857">
        <ele>169.1</ele>
        <time>2015-04-01T11:23:54.000Z</time>
      </trkpt>
      <trkpt lat="48.73317" lon="1.7856">
        <ele>170</ele>
        <time>2015-04-01T11:24:02.000Z</time>
      </trkpt>
      <trkpt lat="48.73308" lon="1.78554">
        <ele>170.8</ele>
        <time>2015-04-01T11:24:09.000Z</time>
      </trkpt>
      <trkpt lat="48.73301" lon="1.78549">
        <ele>171.4</ele>
        <time>2015-04-01T11:24:14.000Z</time>
      </trkpt>
      <trkpt lat="48.733" lon="1.78548">
        <ele>171.4</ele>
        <time>2015-04-01T11:24:15.000Z</time>
      </trkpt>
      <trkpt lat="48.73294" lon="1.78545">
        <ele>171.6</ele>
        <time>2015-04-01T11:24:20.000Z</time>
      </trkpt>
      <trkpt lat="48.73288" lon="1.78539">
        <ele>171.9</ele>
        <time>2015-04-01T11:24:25.000Z</time>
      </trkpt>
      <trkpt lat="48.73278" lon="1.7853">
        <ele>172</ele>
        <time>2015-04-01T11:24:32.000Z</time>
      </trkpt>
      <trkpt lat="48.73271" lon="1.78524">
        <ele>172.3</ele>
        <time>2015-04-01T11:24:38.000Z</time>
      </trkpt>
      <trkpt lat="48.7327" lon="1.78523">
        <ele>172.3</ele>
        <time>2015-04-01T11:24:39.000Z</time>
      </trkpt>
      <trkpt lat="48.73264" lon="1.78518">
        <ele>172.5</ele>
        <time>2015-04-01T11:24:45.000Z</time>
      </trkpt>
      <trkpt lat="48.73259" lon="1.78514">
        <ele>172.7</ele>
        <time>2015-04-01T11:24:49.000Z</time>
      </trkpt>
      <trkpt lat="48.73251" lon="1.78505">
        <ele>173</ele>
        <time>2015-04-01T11:24:56.000Z</time>
      </trkpt>
      <trkpt lat="48.7324" lon="1.78497">
        <ele>173.4</ele>
        <time>2015-04-01T11:25:04.000Z</time>
      </trkpt>
      <trkpt lat="48.7323" lon="1.78487">
        <ele>173.7</ele>
        <time>2015-04-01T11:25:13.000Z</time>
      </trkpt>
      <trkpt lat="48.73219" lon="1.78481">
        <ele>174.1</ele>
        <time>2015-04-01T11:25:21.000Z</time>
      </trkpt>
      <trkpt lat="48.73212" lon="1.78477">
        <ele>174.4</ele>
        <time>2015-04-01T11:25:27.000Z</time>
      </trkpt>
      <trkpt lat="48.73205" lon="1.78471">
        <ele>174.6</ele>
        <time>2015-04-01T11:25:32.000Z</time>
      </trkpt>
      <trkpt lat="48.73195" lon="1.78462">
        <ele>175</ele>
        <time>2015-04-01T11:25:39.000Z</time>
      </trkpt>
      <trkpt lat="48.73188" lon="1.78456">
        <ele>175.1</ele>
        <time>2015-04-01T11:25:45.000Z</time>
      </trkpt>
      <trkpt lat="48.73179" lon="1.78446">
        <ele>175.5</ele>
        <time>2015-04-01T11:25:52.000Z</time>
      </trkpt>
      <trkpt lat="48.73175" lon="1.78443">
        <ele>175.7</ele>
        <time>2015-04-01T11:25:55.000Z</time>
      </trkpt>
      <trkpt lat="48.73166" lon="1.78435">
        <ele>176</ele>
        <time>2015-04-01T11:26:00.000Z</time>
      </trkpt>
      <trkpt lat="48.73154" lon="1.78424">
        <ele>176</ele>
        <time>2015-04-01T11:26:05.000Z</time>
      </trkpt>
      <trkpt lat="48.73136" lon="1.78407">
        <ele>176.4</ele>
        <time>2015-04-01T11:26:11.000Z</time>
      </trkpt>
      <trkpt lat="48.73117" lon="1.7839">
        <ele>177</ele>
        <time>2015-04-01T11:26:17.000Z</time>
      </trkpt>
      <trkpt lat="48.73097" lon="1.78372">
        <ele>177.8</ele>
        <time>2015-04-01T11:26:23.000Z</time>
      </trkpt>
      <trkpt lat="48.73076" lon="1.78352">
        <ele>178.5</ele>
        <time>2015-04-01T11:26:30.000Z</time>
      </trkpt>
      <trkpt lat="48.73057" lon="1.78331">
        <ele>179</ele>
        <time>2015-04-01T11:26:36.000Z</time>
      </trkpt>
      <trkpt lat="48.73037" lon="1.78313">
        <ele>179</ele>
        <time>2015-04-01T11:26:42.000Z</time>
      </trkpt>
      <trkpt lat="48.73019" lon="1.78298">
        <ele>179.5</ele>
        <time>2015-04-01T11:26:47.000Z</time>
      </trkpt>
      <trkpt lat="48.72991" lon="1.78273">
        <ele>180</ele>
        <time>2015-04-01T11:26:55.000Z</time>
      </trkpt>
      <trkpt lat="48.72984" lon="1.78267">
        <ele>180</ele>
        <time>2015-04-01T11:26:57.000Z</time>
      </trkpt>
      <trkpt lat="48.72959" lon="1.78249">
        <ele>180</ele>
        <time>2015-04-01T11:27:03.000Z</time>
      </trkpt>
      <trkpt lat="48.72951" lon="1.78243">
        <ele>180</ele>
        <time>2015-04-01T11:27:05.000Z</time>
      </trkpt>
      <trkpt lat="48.72916" lon="1.78209">
        <ele>180</ele>
        <time>2015-04-01T11:27:15.000Z</time>
      </trkpt>
      <trkpt lat="48.72898" lon="1.78196">
        <ele>179.4</ele>
        <time>2015-04-01T11:27:20.000Z</time>
      </trkpt>
      <trkpt lat="48.72868" lon="1.7817">
        <ele>180</ele>
        <time>2015-04-01T11:27:29.000Z</time>
      </trkpt>
      <trkpt lat="48.72848" lon="1.78153">
        <ele>179.3</ele>
        <time>2015-04-01T11:27:34.000Z</time>
      </trkpt>
      <trkpt lat="48.72821" lon="1.78131">
        <ele>179</ele>
        <time>2015-04-01T11:27:41.000Z</time>
      </trkpt>
      <trkpt lat="48.72803" lon="1.78116">
        <ele>179</ele>
        <time>2015-04-01T11:27:46.000Z</time>
      </trkpt>
      <trkpt lat="48.72794" lon="1.78107">
        <ele>179</ele>
        <time>2015-04-01T11:27:49.000Z</time>
      </trkpt>
      <trkpt lat="48.72768" lon="1.78084">
        <ele>178.6</ele>
        <time>2015-04-01T11:27:56.000Z</time>
      </trkpt>
      <trkpt lat="48.72746" lon="1.78066">
        <ele>178</ele>
        <time>2015-04-01T11:28:02.000Z</time>
      </trkpt>
      <trkpt lat="48.72715" lon="1.78037">
        <ele>177</ele>
        <time>2015-04-01T11:28:11.000Z</time>
      </trkpt>
      <trkpt lat="48.72697" lon="1.78002">
        <ele>176.1</ele>
        <time>2015-04-01T11:28:18.000Z</time>
      </trkpt>
      <trkpt lat="48.72688" lon="1.77981">
        <ele>176.1</ele>
        <time>2015-04-01T11:28:22.000Z</time>
      </trkpt>
      <trkpt lat="48.72676" lon="1.77966">
        <ele>175.8</ele>
        <time>2015-04-01T11:28:26.000Z</time>
      </trkpt>
      <trkpt lat="48.72656" lon="1.77956">
        <ele>174.7</ele>
        <time>2015-04-01T11:28:32.000Z</time>
      </trkpt>
      <trkpt lat="48.7264" lon="1.77958">
        <ele>173.1</ele>
        <time>2015-04-01T11:28:37.000Z</time>
      </trkpt>
      <trkpt lat="48.72632" lon="1.77965">
        <ele>171.9</ele>
        <time>2015-04-01T11:28:40.000Z</time>
      </trkpt>
      <trkpt lat="48.72608" lon="1.77975">
        <ele>168.5</ele>
        <time>2015-04-01T11:28:47.000Z</time>
      </trkpt>
      <trkpt lat="48.72585" lon="1.77982">
        <ele>166</ele>
        <time>2015-04-01T11:28:53.000Z</time>
      </trkpt>
      <trkpt lat="48.72568" lon="1.77987">
        <ele>163.8</ele>
        <time>2015-04-01T11:28:57.000Z</time>
      </trkpt>
      <trkpt lat="48.72563" lon="1.77987">
        <ele>163.2</ele>
        <time>2015-04-01T11:28:58.000Z</time>
      </trkpt>
      <trkpt lat="48.72541" lon="1.77982">
        <ele>161.6</ele>
        <time>2015-04-01T11:29:03.000Z</time>
      </trkpt>
      <trkpt lat="48.72525" lon="1.77969">
        <ele>160.9</ele>
        <time>2015-04-01T11:29:07.000Z</time>
      </trkpt>
      <trkpt lat="48.72512" lon="1.77962">
        <ele>160</ele>
        <time>2015-04-01T11:29:10.000Z</time>
      </trkpt>
      <trkpt lat="48.72494" lon="1.77946">
        <ele>158.8</ele>
        <time>2015-04-01T11:29:14.000Z</time>
      </trkpt>
      <trkpt lat="48.72486" lon="1.77939">
        <ele>158.8</ele>
        <time>2015-04-01T11:29:16.000Z</time>
      </trkpt>
      <trkpt lat="48.72466" lon="1.77922">
        <ele>158.8</ele>
        <time>2015-04-01T11:29:21.000Z</time>
      </trkpt>
      <trkpt lat="48.72446" lon="1.77906">
        <ele>158.1</ele>
        <time>2015-04-01T11:29:25.000Z</time>
      </trkpt>
      <trkpt lat="48.72428" lon="1.77896">
        <ele>157.4</ele>
        <time>2015-04-01T11:29:29.000Z</time>
      </trkpt>
      <trkpt lat="48.72409" lon="1.77895">
        <ele>156.6</ele>
        <time>2015-04-01T11:29:33.000Z</time>
      </trkpt>
      <trkpt lat="48.72399" lon="1.77898">
        <ele>156.3</ele>
        <time>2015-04-01T11:29:35.000Z</time>
      </trkpt>
      <trkpt lat="48.72378" lon="1.77895">
        <ele>155.1</ele>
        <time>2015-04-01T11:29:39.000Z</time>
      </trkpt>
      <trkpt lat="48.72368" lon="1.77891">
        <ele>154.5</ele>
        <time>2015-04-01T11:29:41.000Z</time>
      </trkpt>
      <trkpt lat="48.72349" lon="1.77872">
        <ele>154.6</ele>
        <time>2015-04-01T11:29:46.000Z</time>
      </trkpt>
      <trkpt lat="48.72341" lon="1.77856">
        <ele>154.5</ele>
        <time>2015-04-01T11:29:50.000Z</time>
      </trkpt>
      <trkpt lat="48.72335" lon="1.77846">
        <ele>154.3</ele>
        <time>2015-04-01T11:29:53.000Z</time>
      </trkpt>
      <trkpt lat="48.72326" lon="1.77838">
        <ele>154</ele>
        <time>2015-04-01T11:29:58.000Z</time>
      </trkpt>
      <trkpt lat="48.72317" lon="1.77828">
        <ele>153.7</ele>
        <time>2015-04-01T11:30:03.000Z</time>
      </trkpt>
      <trkpt lat="48.72305" lon="1.77814">
        <ele>153.4</ele>
        <time>2015-04-01T11:30:07.000Z</time>
      </trkpt>
      <trkpt lat="48.72289" lon="1.77798">
        <ele>153.9</ele>
        <time>2015-04-01T11:30:12.000Z</time>
      </trkpt>
      <trkpt lat="48.72274" lon="1.77789">
        <ele>154</ele>
        <time>2015-04-01T11:30:16.000Z</time>
      </trkpt>
      <trkpt lat="48.72266" lon="1.77785">
        <ele>153.6</ele>
        <time>2015-04-01T11:30:18.000Z</time>
      </trkpt>
      <trkpt lat="48.7225" lon="1.7777">
        <ele>152.5</ele>
        <time>2015-04-01T11:30:22.000Z</time>
      </trkpt>
      <trkpt lat="48.72236" lon="1.7774">
        <ele>152.7</ele>
        <time>2015-04-01T11:30:27.000Z</time>
      </trkpt>
      <trkpt lat="48.72229" lon="1.77721">
        <ele>152.5</ele>
        <time>2015-04-01T11:30:30.000Z</time>
      </trkpt>
      <trkpt lat="48.72215" lon="1.77691">
        <ele>152</ele>
        <time>2015-04-01T11:30:35.000Z</time>
      </trkpt>
      <trkpt lat="48.72209" lon="1.77678">
        <ele>152.4</ele>
        <time>2015-04-01T11:30:37.000Z</time>
      </trkpt>
      <trkpt lat="48.72193" lon="1.77648">
        <ele>152.5</ele>
        <time>2015-04-01T11:30:42.000Z</time>
      </trkpt>
      <trkpt lat="48.72166" lon="1.77612">
        <ele>151.9</ele>
        <time>2015-04-01T11:30:49.000Z</time>
      </trkpt>
      <trkpt lat="48.72145" lon="1.77588">
        <ele>151.3</ele>
        <time>2015-04-01T11:30:54.000Z</time>
      </trkpt>
      <trkpt lat="48.72115" lon="1.77565">
        <ele>150.1</ele>
        <time>2015-04-01T11:31:00.000Z</time>
      </trkpt>
      <trkpt lat="48.72111" lon="1.77563">
        <ele>149.7</ele>
        <time>2015-04-01T11:31:01.000Z</time>
      </trkpt>
      <trkpt lat="48.72101" lon="1.77559">
        <ele>149.6</ele>
        <time>2015-04-01T11:31:03.000Z</time>
      </trkpt>
      <trkpt lat="48.72092" lon="1.77555">
        <ele>149.5</ele>
        <time>2015-04-01T11:31:05.000Z</time>
      </trkpt>
      <trkpt lat="48.72075" lon="1.77549">
        <ele>149.7</ele>
        <time>2015-04-01T11:31:09.000Z</time>
      </trkpt>
      <trkpt lat="48.72059" lon="1.77552">
        <ele>148.7</ele>
        <time>2015-04-01T11:31:14.000Z</time>
      </trkpt>
      <trkpt lat="48.72042" lon="1.77557">
        <ele>148.1</ele>
        <time>2015-04-01T11:31:19.000Z</time>
      </trkpt>
      <trkpt lat="48.7203" lon="1.77549">
        <ele>148.5</ele>
        <time>2015-04-01T11:31:23.000Z</time>
      </trkpt>
      <trkpt lat="48.72015" lon="1.77531">
        <ele>148.6</ele>
        <time>2015-04-01T11:31:29.000Z</time>
      </trkpt>
      <trkpt lat="48.72006" lon="1.7752">
        <ele>147.9</ele>
        <time>2015-04-01T11:31:35.000Z</time>
      </trkpt>
      <trkpt lat="48.71996" lon="1.77506">
        <ele>147.2</ele>
        <time>2015-04-01T11:31:42.000Z</time>
      </trkpt>
      <trkpt lat="48.71992" lon="1.77501">
        <ele>147.3</ele>
        <time>2015-04-01T11:31:45.000Z</time>
      </trkpt>
      <trkpt lat="48.71986" lon="1.77492">
        <ele>147.7</ele>
        <time>2015-04-01T11:31:50.000Z</time>
      </trkpt>
      <trkpt lat="48.71982" lon="1.77484">
        <ele>147.5</ele>
        <time>2015-04-01T11:31:54.000Z</time>
      </trkpt>
      <trkpt lat="48.71973" lon="1.77478">
        <ele>146.6</ele>
        <time>2015-04-01T11:32:00.000Z</time>
      </trkpt>
      <trkpt lat="48.71971" lon="1.77474">
        <ele>146.2</ele>
        <time>2015-04-01T11:32:02.000Z</time>
      </trkpt>
      <trkpt lat="48.71965" lon="1.77464">
        <ele>146.2</ele>
        <time>2015-04-01T11:32:08.000Z</time>
      </trkpt>
      <trkpt lat="48.71958" lon="1.77455">
        <ele>146.4</ele>
        <time>2015-04-01T11:32:13.000Z</time>
      </trkpt>
      <trkpt lat="48.71948" lon="1.77449">
        <ele>146.9</ele>
        <time>2015-04-01T11:32:20.000Z</time>
      </trkpt>
      <trkpt lat="48.71944" lon="1.77446">
        <ele>147.1</ele>
        <time>2015-04-01T11:32:22.000Z</time>
      </trkpt>
      <trkpt lat="48.71939" lon="1.77438">
        <ele>147</ele>
        <time>2015-04-01T11:32:26.000Z</time>
      </trkpt>
      <trkpt lat="48.71931" lon="1.77428">
        <ele>146.9</ele>
        <time>2015-04-01T11:32:32.000Z</time>
      </trkpt>
      <trkpt lat="48.71922" lon="1.77422">
        <ele>147</ele>
        <time>2015-04-01T11:32:40.000Z</time>
      </trkpt>
      <trkpt lat="48.71913" lon="1.77418">
        <ele>147.2</ele>
        <time>2015-04-01T11:32:46.000Z</time>
      </trkpt>
      <trkpt lat="48.71903" lon="1.77413">
        <ele>147.2</ele>
        <time>2015-04-01T11:32:54.000Z</time>
      </trkpt>
      <trkpt lat="48.71899" lon="1.77411">
        <ele>147.1</ele>
        <time>2015-04-01T11:32:57.000Z</time>
      </trkpt>
      <trkpt lat="48.71891" lon="1.77408">
        <ele>147</ele>
        <time>2015-04-01T11:33:03.000Z</time>
      </trkpt>
      <trkpt lat="48.71882" lon="1.77406">
        <ele>146.9</ele>
        <time>2015-04-01T11:33:09.000Z</time>
      </trkpt>
      <trkpt lat="48.71874" lon="1.77405">
        <ele>146.9</ele>
        <time>2015-04-01T11:33:15.000Z</time>
      </trkpt>
      <trkpt lat="48.71871" lon="1.77403">
        <ele>146.9</ele>
        <time>2015-04-01T11:33:17.000Z</time>
      </trkpt>
      <trkpt lat="48.71861" lon="1.77408">
        <ele>147.4</ele>
        <time>2015-04-01T11:33:23.000Z</time>
      </trkpt>
      <trkpt lat="48.71852" lon="1.77413">
        <ele>147.5</ele>
        <time>2015-04-01T11:33:30.000Z</time>
      </trkpt>
      <trkpt lat="48.71841" lon="1.77419">
        <ele>147.5</ele>
        <time>2015-04-01T11:33:36.000Z</time>
      </trkpt>
      <trkpt lat="48.71832" lon="1.77422">
        <ele>147.5</ele>
        <time>2015-04-01T11:33:43.000Z</time>
      </trkpt>
      <trkpt lat="48.71822" lon="1.7743">
        <ele>147.8</ele>
        <time>2015-04-01T11:33:50.000Z</time>
      </trkpt>
      <trkpt lat="48.7182" lon="1.77432">
        <ele>147.9</ele>
        <time>2015-04-01T11:33:52.000Z</time>
      </trkpt>
      <trkpt lat="48.71811" lon="1.77438">
        <ele>147.9</ele>
        <time>2015-04-01T11:33:59.000Z</time>
      </trkpt>
      <trkpt lat="48.71801" lon="1.77444">
        <ele>147.8</ele>
        <time>2015-04-01T11:34:07.000Z</time>
      </trkpt>
      <trkpt lat="48.71794" lon="1.7745">
        <ele>148.3</ele>
        <time>2015-04-01T11:34:14.000Z</time>
      </trkpt>
      <trkpt lat="48.71786" lon="1.77461">
        <ele>148.8</ele>
        <time>2015-04-01T11:34:19.000Z</time>
      </trkpt>
      <trkpt lat="48.7178" lon="1.77468">
        <ele>148.9</ele>
        <time>2015-04-01T11:34:24.000Z</time>
      </trkpt>
      <trkpt lat="48.71771" lon="1.77481">
        <ele>149.6</ele>
        <time>2015-04-01T11:34:30.000Z</time>
      </trkpt>
      <trkpt lat="48.71768" lon="1.77488">
        <ele>149.9</ele>
        <time>2015-04-01T11:34:33.000Z</time>
      </trkpt>
      <trkpt lat="48.71759" lon="1.77496">
        <ele>149.7</ele>
        <time>2015-04-01T11:34:40.000Z</time>
      </trkpt>
      <trkpt lat="48.71747" lon="1.77493">
        <ele>148.8</ele>
        <time>2015-04-01T11:34:47.000Z</time>
      </trkpt>
      <trkpt lat="48.71739" lon="1.77489">
        <ele>148.8</ele>
        <time>2015-04-01T11:34:52.000Z</time>
      </trkpt>
      <trkpt lat="48.71729" lon="1.77481">
        <ele>148.8</ele>
        <time>2015-04-01T11:34:59.000Z</time>
      </trkpt>
      <trkpt lat="48.71719" lon="1.77483">
        <ele>149.1</ele>
        <time>2015-04-01T11:35:05.000Z</time>
      </trkpt>
      <trkpt lat="48.71713" lon="1.77489">
        <ele>149.4</ele>
        <time>2015-04-01T11:35:10.000Z</time>
      </trkpt>
      <trkpt lat="48.71707" lon="1.77491">
        <ele>149.7</ele>
        <time>2015-04-01T11:35:14.000Z</time>
      </trkpt>
      <trkpt lat="48.71698" lon="1.77488">
        <ele>150</ele>
        <time>2015-04-01T11:35:21.000Z</time>
      </trkpt>
      <trkpt lat="48.71692" lon="1.77486">
        <ele>150.2</ele>
        <time>2015-04-01T11:35:25.000Z</time>
      </trkpt>
      <trkpt lat="48.71684" lon="1.77484">
        <ele>150.6</ele>
        <time>2015-04-01T11:35:32.000Z</time>
      </trkpt>
      <trkpt lat="48.71681" lon="1.77483">
        <ele>150.6</ele>
        <time>2015-04-01T11:35:34.000Z</time>
      </trkpt>
      <trkpt lat="48.7167" lon="1.7748">
        <ele>150.9</ele>
        <time>2015-04-01T11:35:41.000Z</time>
      </trkpt>
      <trkpt lat="48.71661" lon="1.77475">
        <ele>151</ele>
        <time>2015-04-01T11:35:47.000Z</time>
      </trkpt>
      <trkpt lat="48.71658" lon="1.77474">
        <ele>151.3</ele>
        <time>2015-04-01T11:35:49.000Z</time>
      </trkpt>
      <trkpt lat="48.71647" lon="1.77465">
        <ele>151.6</ele>
        <time>2015-04-01T11:35:56.000Z</time>
      </trkpt>
      <trkpt lat="48.71645" lon="1.77464">
        <ele>151.7</ele>
        <time>2015-04-01T11:35:57.000Z</time>
      </trkpt>
      <trkpt lat="48.71637" lon="1.77463">
        <ele>152.2</ele>
        <time>2015-04-01T11:36:02.000Z</time>
      </trkpt>
      <trkpt lat="48.7163" lon="1.77459">
        <ele>152.4</ele>
        <time>2015-04-01T11:36:08.000Z</time>
      </trkpt>
      <trkpt lat="48.71625" lon="1.77453">
        <ele>151.9</ele>
        <time>2015-04-01T11:36:13.000Z</time>
      </trkpt>
      <trkpt lat="48.71618" lon="1.77451">
        <ele>152</ele>
        <time>2015-04-01T11:36:18.000Z</time>
      </trkpt>
      <trkpt lat="48.7161" lon="1.77451">
        <ele>152.5</ele>
        <time>2015-04-01T11:36:23.000Z</time>
      </trkpt>
      <trkpt lat="48.71606" lon="1.77452">
        <ele>152.9</ele>
        <time>2015-04-01T11:36:25.000Z</time>
      </trkpt>
      <trkpt lat="48.71603" lon="1.77453">
        <ele>153.3</ele>
        <time>2015-04-01T11:36:27.000Z</time>
      </trkpt>
      <trkpt lat="48.71593" lon="1.7745">
        <ele>153</ele>
        <time>2015-04-01T11:36:33.000Z</time>
      </trkpt>
      <trkpt lat="48.71586" lon="1.77447">
        <ele>152.4</ele>
        <time>2015-04-01T11:36:38.000Z</time>
      </trkpt>
      <trkpt lat="48.71579" lon="1.77449">
        <ele>153.3</ele>
        <time>2015-04-01T11:36:43.000Z</time>
      </trkpt>
      <trkpt lat="48.71567" lon="1.77448">
        <ele>153.5</ele>
        <time>2015-04-01T11:36:52.000Z</time>
      </trkpt>
      <trkpt lat="48.71561" lon="1.77447">
        <ele>153.4</ele>
        <time>2015-04-01T11:36:55.000Z</time>
      </trkpt>
      <trkpt lat="48.71553" lon="1.77444">
        <ele>153</ele>
        <time>2015-04-01T11:37:02.000Z</time>
      </trkpt>
      <trkpt lat="48.71544" lon="1.77442">
        <ele>152.9</ele>
        <time>2015-04-01T11:37:08.000Z</time>
      </trkpt>
      <trkpt lat="48.71534" lon="1.77449">
        <ele>153.8</ele>
        <time>2015-04-01T11:37:15.000Z</time>
      </trkpt>
      <trkpt lat="48.71531" lon="1.7745">
        <ele>153.9</ele>
        <time>2015-04-01T11:37:17.000Z</time>
      </trkpt>
      <trkpt lat="48.71524" lon="1.77453">
        <ele>154.1</ele>
        <time>2015-04-01T11:37:23.000Z</time>
      </trkpt>
      <trkpt lat="48.71519" lon="1.77454">
        <ele>154.2</ele>
        <time>2015-04-01T11:37:28.000Z</time>
      </trkpt>
      <trkpt lat="48.71519" lon="1.77454">
        <ele>154.2</ele>
        <time>2015-04-01T11:37:29.000Z</time>
      </trkpt>
      <trkpt lat="48.71509" lon="1.7746">
        <ele>154.5</ele>
        <time>2015-04-01T11:37:54.000Z</time>
      </trkpt>
      <trkpt lat="48.71503" lon="1.77464">
        <ele>154.6</ele>
        <time>2015-04-01T11:37:58.000Z</time>
      </trkpt>
      <trkpt lat="48.71499" lon="1.77468">
        <ele>154.7</ele>
        <time>2015-04-01T11:38:02.000Z</time>
      </trkpt>
      <trkpt lat="48.71489" lon="1.77479">
        <ele>155</ele>
        <time>2015-04-01T11:38:11.000Z</time>
      </trkpt>
      <trkpt lat="48.71483" lon="1.77484">
        <ele>155</ele>
        <time>2015-04-01T11:38:16.000Z</time>
      </trkpt>
      <trkpt lat="48.71473" lon="1.7749">
        <ele>154.7</ele>
        <time>2015-04-01T11:38:23.000Z</time>
      </trkpt>
      <trkpt lat="48.71465" lon="1.77486">
        <ele>154.5</ele>
        <time>2015-04-01T11:38:30.000Z</time>
      </trkpt>
      <trkpt lat="48.71465" lon="1.77486">
        <ele>154.5</ele>
        <time>2015-04-01T11:38:32.000Z</time>
      </trkpt>
      <trkpt lat="48.71458" lon="1.77487">
        <ele>154.5</ele>
        <time>2015-04-01T11:38:46.000Z</time>
      </trkpt>
      <trkpt lat="48.71449" lon="1.77493">
        <ele>154.7</ele>
        <time>2015-04-01T11:38:52.000Z</time>
      </trkpt>
      <trkpt lat="48.71446" lon="1.77495">
        <ele>154.8</ele>
        <time>2015-04-01T11:38:55.000Z</time>
      </trkpt>
      <trkpt lat="48.71446" lon="1.77505">
        <ele>155.2</ele>
        <time>2015-04-01T11:39:03.000Z</time>
      </trkpt>
      <trkpt lat="48.71444" lon="1.7751">
        <ele>155.3</ele>
        <time>2015-04-01T11:39:06.000Z</time>
      </trkpt>
      <trkpt lat="48.7144" lon="1.77514">
        <ele>155.4</ele>
        <time>2015-04-01T11:39:12.000Z</time>
      </trkpt>
      <trkpt lat="48.71438" lon="1.77521">
        <ele>155.5</ele>
        <time>2015-04-01T11:39:56.000Z</time>
      </trkpt>
      <trkpt lat="48.71437" lon="1.77523">
        <ele>155.6</ele>
        <time>2015-04-01T11:39:57.000Z</time>
      </trkpt>
      <trkpt lat="48.7143" lon="1.77539">
        <ele>155.9</ele>
        <time>2015-04-01T11:40:04.000Z</time>
      </trkpt>
      <trkpt lat="48.71429" lon="1.77546">
        <ele>156.1</ele>
        <time>2015-04-01T11:40:07.000Z</time>
      </trkpt>
      <trkpt lat="48.7142" lon="1.77558">
        <ele>156.3</ele>
        <time>2015-04-01T11:40:14.000Z</time>
      </trkpt>
      <trkpt lat="48.71413" lon="1.77568">
        <ele>156.9</ele>
        <time>2015-04-01T11:40:20.000Z</time>
      </trkpt>
      <trkpt lat="48.71407" lon="1.77579">
        <ele>157.8</ele>
        <time>2015-04-01T11:40:26.000Z</time>
      </trkpt>
      <trkpt lat="48.71401" lon="1.77589">
        <ele>158.2</ele>
        <time>2015-04-01T11:40:32.000Z</time>
      </trkpt>
      <trkpt lat="48.71392" lon="1.77599">
        <ele>158.5</ele>
        <time>2015-04-01T11:40:39.000Z</time>
      </trkpt>
      <trkpt lat="48.71379" lon="1.77611">
        <ele>159</ele>
        <time>2015-04-01T11:40:47.000Z</time>
      </trkpt>
      <trkpt lat="48.71366" lon="1.77619">
        <ele>159.3</ele>
        <time>2015-04-01T11:40:56.000Z</time>
      </trkpt>
      <trkpt lat="48.71358" lon="1.77626">
        <ele>159.5</ele>
        <time>2015-04-01T11:41:02.000Z</time>
      </trkpt>
      <trkpt lat="48.71349" lon="1.77636">
        <ele>159.9</ele>
        <time>2015-04-01T11:41:10.000Z</time>
      </trkpt>
      <trkpt lat="48.71342" lon="1.77644">
        <ele>160.2</ele>
        <time>2015-04-01T11:41:15.000Z</time>
      </trkpt>
      <trkpt lat="48.71337" lon="1.77656">
        <ele>160.6</ele>
        <time>2015-04-01T11:41:21.000Z</time>
      </trkpt>
      <trkpt lat="48.71331" lon="1.77666">
        <ele>160.9</ele>
        <time>2015-04-01T11:41:27.000Z</time>
      </trkpt>
      <trkpt lat="48.71325" lon="1.77679">
        <ele>160.8</ele>
        <time>2015-04-01T11:41:34.000Z</time>
      </trkpt>
      <trkpt lat="48.71319" lon="1.77691">
        <ele>160.9</ele>
        <time>2015-04-01T11:41:41.000Z</time>
      </trkpt>
      <trkpt lat="48.71313" lon="1.777">
        <ele>161.1</ele>
        <time>2015-04-01T11:41:46.000Z</time>
      </trkpt>
      <trkpt lat="48.71305" lon="1.77709">
        <ele>161</ele>
        <time>2015-04-01T11:41:51.000Z</time>
      </trkpt>
      <trkpt lat="48.71304" lon="1.77712">
        <ele>160.9</ele>
        <time>2015-04-01T11:41:53.000Z</time>
      </trkpt>
      <trkpt lat="48.71294" lon="1.77721">
        <ele>160.6</ele>
        <time>2015-04-01T11:42:00.000Z</time>
      </trkpt>
      <trkpt lat="48.71287" lon="1.77727">
        <ele>160.5</ele>
        <time>2015-04-01T11:42:05.000Z</time>
      </trkpt>
      <trkpt lat="48.71281" lon="1.77735">
        <ele>160.6</ele>
        <time>2015-04-01T11:42:10.000Z</time>
      </trkpt>
      <trkpt lat="48.71273" lon="1.77745">
        <ele>160.7</ele>
        <time>2015-04-01T11:42:16.000Z</time>
      </trkpt>
      <trkpt lat="48.71263" lon="1.77761">
        <ele>160.7</ele>
        <time>2015-04-01T11:42:24.000Z</time>
      </trkpt>
      <trkpt lat="48.71259" lon="1.77767">
        <ele>160.7</ele>
        <time>2015-04-01T11:42:28.000Z</time>
      </trkpt>
      <trkpt lat="48.71254" lon="1.7778">
        <ele>161.1</ele>
        <time>2015-04-01T11:42:33.000Z</time>
      </trkpt>
      <trkpt lat="48.71254" lon="1.77781">
        <ele>161.1</ele>
        <time>2015-04-01T11:42:34.000Z</time>
      </trkpt>
      <trkpt lat="48.71255" lon="1.77784">
        <ele>161.2</ele>
        <time>2015-04-01T11:42:36.000Z</time>
      </trkpt>
      <trkpt lat="48.71255" lon="1.77797">
        <ele>161.7</ele>
        <time>2015-04-01T11:42:43.000Z</time>
      </trkpt>
      <trkpt lat="48.71255" lon="1.77813">
        <ele>162</ele>
        <time>2015-04-01T11:42:50.000Z</time>
      </trkpt>
      <trkpt lat="48.71255" lon="1.77819">
        <ele>162</ele>
        <time>2015-04-01T11:42:53.000Z</time>
      </trkpt>
      <trkpt lat="48.7125" lon="1.77823">
        <ele>162</ele>
        <time>2015-04-01T11:42:57.000Z</time>
      </trkpt>
      <trkpt lat="48.71245" lon="1.77835">
        <ele>162.2</ele>
        <time>2015-04-01T11:43:05.000Z</time>
      </trkpt>
      <trkpt lat="48.71237" lon="1.77846">
        <ele>162.7</ele>
        <time>2015-04-01T11:43:13.000Z</time>
      </trkpt>
      <trkpt lat="48.71236" lon="1.77847">
        <ele>162.7</ele>
        <time>2015-04-01T11:43:14.000Z</time>
      </trkpt>
      <trkpt lat="48.7123" lon="1.77854">
        <ele>162.9</ele>
        <time>2015-04-01T11:43:18.000Z</time>
      </trkpt>
      <trkpt lat="48.71226" lon="1.7786">
        <ele>163</ele>
        <time>2015-04-01T11:43:23.000Z</time>
      </trkpt>
      <trkpt lat="48.71224" lon="1.77861">
        <ele>163</ele>
        <time>2015-04-01T11:43:24.000Z</time>
      </trkpt>
      <trkpt lat="48.71217" lon="1.77876">
        <ele>163</ele>
        <time>2015-04-01T11:43:31.000Z</time>
      </trkpt>
      <trkpt lat="48.7121" lon="1.77885">
        <ele>163</ele>
        <time>2015-04-01T11:43:36.000Z</time>
      </trkpt>
      <trkpt lat="48.71202" lon="1.77895">
        <ele>163.2</ele>
        <time>2015-04-01T11:43:43.000Z</time>
      </trkpt>
      <trkpt lat="48.71196" lon="1.77907">
        <ele>163.6</ele>
        <time>2015-04-01T11:43:50.000Z</time>
      </trkpt>
      <trkpt lat="48.7119" lon="1.7792">
        <ele>164</ele>
        <time>2015-04-01T11:43:56.000Z</time>
      </trkpt>
      <trkpt lat="48.71189" lon="1.77921">
        <ele>164</ele>
        <time>2015-04-01T11:43:57.000Z</time>
      </trkpt>
      <trkpt lat="48.71185" lon="1.77925">
        <ele>164</ele>
        <time>2015-04-01T11:44:01.000Z</time>
      </trkpt>
      <trkpt lat="48.71175" lon="1.77933">
        <ele>164</ele>
        <time>2015-04-01T11:44:09.000Z</time>
      </trkpt>
      <trkpt lat="48.71165" lon="1.77937">
        <ele>164</ele>
        <time>2015-04-01T11:44:16.000Z</time>
      </trkpt>
      <trkpt lat="48.71162" lon="1.77938">
        <ele>164</ele>
        <time>2015-04-01T11:44:18.000Z</time>
      </trkpt>
      <trkpt lat="48.71157" lon="1.77941">
        <ele>164</ele>
        <time>2015-04-01T11:44:22.000Z</time>
      </trkpt>
      <trkpt lat="48.71144" lon="1.77946">
        <ele>164</ele>
        <time>2015-04-01T11:44:30.000Z</time>
      </trkpt>
      <trkpt lat="48.71135" lon="1.77938">
        <ele>163.3</ele>
        <time>2015-04-01T11:44:36.000Z</time>
      </trkpt>
      <trkpt lat="48.71133" lon="1.77937">
        <ele>162.9</ele>
        <time>2015-04-01T11:44:40.000Z</time>
      </trkpt>
      <trkpt lat="48.71137" lon="1.77952">
        <ele>163.7</ele>
        <time>2015-04-01T11:44:52.000Z</time>
      </trkpt>
      <trkpt lat="48.71136" lon="1.77965">
        <ele>163.5</ele>
        <time>2015-04-01T11:44:57.000Z</time>
      </trkpt>
      <trkpt lat="48.71136" lon="1.77969">
        <ele>163.4</ele>
        <time>2015-04-01T11:44:59.000Z</time>
      </trkpt>
      <trkpt lat="48.71135" lon="1.77973">
        <ele>163.4</ele>
        <time>2015-04-01T11:45:01.000Z</time>
      </trkpt>
      <trkpt lat="48.71135" lon="1.77988">
        <ele>163.5</ele>
        <time>2015-04-01T11:45:09.000Z</time>
      </trkpt>
      <trkpt lat="48.71131" lon="1.77999">
        <ele>163.1</ele>
        <time>2015-04-01T11:45:14.000Z</time>
      </trkpt>
      <trkpt lat="48.7113" lon="1.78001">
        <ele>163.1</ele>
        <time>2015-04-01T11:45:15.000Z</time>
      </trkpt>
      <trkpt lat="48.71123" lon="1.78008">
        <ele>162.8</ele>
        <time>2015-04-01T11:45:21.000Z</time>
      </trkpt>
      <trkpt lat="48.71118" lon="1.78012">
        <ele>162.7</ele>
        <time>2015-04-01T11:45:25.000Z</time>
      </trkpt>
      <trkpt lat="48.71112" lon="1.78006">
        <ele>161.7</ele>
        <time>2015-04-01T11:45:31.000Z</time>
      </trkpt>
      <trkpt lat="48.71113" lon="1.77994">
        <ele>160.8</ele>
        <time>2015-04-01T11:45:36.000Z</time>
      </trkpt>
      <trkpt lat="48.71114" lon="1.77993">
        <ele>160.8</ele>
        <time>2015-04-01T11:45:37.000Z</time>
      </trkpt>
      <trkpt lat="48.71116" lon="1.77989">
        <ele>160.8</ele>
        <time>2015-04-01T11:45:39.000Z</time>
      </trkpt>
      <trkpt lat="48.71122" lon="1.77977">
        <ele>161.1</ele>
        <time>2015-04-01T11:45:45.000Z</time>
      </trkpt>
      <trkpt lat="48.71128" lon="1.77968">
        <ele>162</ele>
        <time>2015-04-01T11:45:51.000Z</time>
      </trkpt>
      <trkpt lat="48.71125" lon="1.77953">
        <ele>161.4</ele>
        <time>2015-04-01T11:45:55.000Z</time>
      </trkpt>
      <trkpt lat="48.71118" lon="1.77947">
        <ele>160.3</ele>
        <time>2015-04-01T11:45:59.000Z</time>
      </trkpt>
      <trkpt lat="48.71116" lon="1.77942">
        <ele>159.9</ele>
        <time>2015-04-01T11:46:04.000Z</time>
      </trkpt>
      <trkpt lat="48.71116" lon="1.77942">
        <ele>159.8</ele>
        <time>2015-04-01T11:46:05.000Z</time>
      </trkpt>
      <trkpt lat="48.71114" lon="1.77912">
        <ele>159.9</ele>
        <time>2015-04-01T11:48:16.000Z</time>
      </trkpt>
      <trkpt lat="48.71113" lon="1.77905">
        <ele>160.5</ele>
        <time>2015-04-01T11:48:18.000Z</time>
      </trkpt>
      <trkpt lat="48.71112" lon="1.77889">
        <ele>162</ele>
        <time>2015-04-01T11:48:23.000Z</time>
      </trkpt>
      <trkpt lat="48.7111" lon="1.77887">
        <ele>162</ele>
        <time>2015-04-01T11:48:25.000Z</time>
      </trkpt>
      <trkpt lat="48.71113" lon="1.77877">
        <ele>162.5</ele>
        <time>2015-04-01T11:48:30.000Z</time>
      </trkpt>
      <trkpt lat="48.71113" lon="1.7787">
        <ele>162.7</ele>
        <time>2015-04-01T11:48:34.000Z</time>
      </trkpt>
      <trkpt lat="48.71113" lon="1.77868">
        <ele>162.8</ele>
        <time>2015-04-01T11:48:38.000Z</time>
      </trkpt>
      <trkpt lat="48.71112" lon="1.77859">
        <ele>162.9</ele>
        <time>2015-04-01T11:48:44.000Z</time>
      </trkpt>
      <trkpt lat="48.71112" lon="1.77853">
        <ele>162.7</ele>
        <time>2015-04-01T11:48:45.000Z</time>
      </trkpt>
      <trkpt lat="48.7111" lon="1.77848">
        <ele>162.5</ele>
        <time>2015-04-01T11:48:51.000Z</time>
      </trkpt>
      <trkpt lat="48.71109" lon="1.77838">
        <ele>162.1</ele>
        <time>2015-04-01T11:48:58.000Z</time>
      </trkpt>
      <trkpt lat="48.71107" lon="1.77817">
        <ele>161.2</ele>
        <time>2015-04-01T11:49:04.000Z</time>
      </trkpt>
      <trkpt lat="48.71105" lon="1.7781">
        <ele>161</ele>
        <time>2015-04-01T11:49:06.000Z</time>
      </trkpt>
      <trkpt lat="48.711" lon="1.77797">
        <ele>160.4</ele>
        <time>2015-04-01T11:49:12.000Z</time>
      </trkpt>
      <trkpt lat="48.71099" lon="1.77791">
        <ele>160.3</ele>
        <time>2015-04-01T11:49:14.000Z</time>
      </trkpt>
      <trkpt lat="48.71098" lon="1.77777">
        <ele>160</ele>
        <time>2015-04-01T11:49:20.000Z</time>
      </trkpt>
      <trkpt lat="48.71089" lon="1.77769">
        <ele>159.9</ele>
        <time>2015-04-01T11:49:26.000Z</time>
      </trkpt>
      <trkpt lat="48.71086" lon="1.77758">
        <ele>159.9</ele>
        <time>2015-04-01T11:49:31.000Z</time>
      </trkpt>
      <trkpt lat="48.71083" lon="1.77748">
        <ele>160</ele>
        <time>2015-04-01T11:49:35.000Z</time>
      </trkpt>
      <trkpt lat="48.71076" lon="1.77728">
        <ele>160.2</ele>
        <time>2015-04-01T11:49:42.000Z</time>
      </trkpt>
      <trkpt lat="48.71072" lon="1.77715">
        <ele>160.4</ele>
        <time>2015-04-01T11:49:48.000Z</time>
      </trkpt>
      <trkpt lat="48.71067" lon="1.77703">
        <ele>160.6</ele>
        <time>2015-04-01T11:49:53.000Z</time>
      </trkpt>
      <trkpt lat="48.7106" lon="1.77688">
        <ele>160.8</ele>
        <time>2015-04-01T11:49:57.000Z</time>
      </trkpt>
      <trkpt lat="48.7105" lon="1.77662">
        <ele>161.4</ele>
        <time>2015-04-01T11:50:03.000Z</time>
      </trkpt>
      <trkpt lat="48.71035" lon="1.77626">
        <ele>162</ele>
        <time>2015-04-01T11:50:11.000Z</time>
      </trkpt>
      <trkpt lat="48.71023" lon="1.77595">
        <ele>162.7</ele>
        <time>2015-04-01T11:50:18.000Z</time>
      </trkpt>
      <trkpt lat="48.71011" lon="1.77564">
        <ele>163.6</ele>
        <time>2015-04-01T11:50:25.000Z</time>
      </trkpt>
      <trkpt lat="48.71001" lon="1.77536">
        <ele>164</ele>
        <time>2015-04-01T11:50:31.000Z</time>
      </trkpt>
      <trkpt lat="48.70988" lon="1.77508">
        <ele>165.1</ele>
        <time>2015-04-01T11:50:38.000Z</time>
      </trkpt>
      <trkpt lat="48.70977" lon="1.77483">
        <ele>165.8</ele>
        <time>2015-04-01T11:50:44.000Z</time>
      </trkpt>
      <trkpt lat="48.7096" lon="1.77448">
        <ele>166.4</ele>
        <time>2015-04-01T11:50:52.000Z</time>
      </trkpt>
      <trkpt lat="48.70948" lon="1.77423">
        <ele>166.9</ele>
        <time>2015-04-01T11:50:58.000Z</time>
      </trkpt>
      <trkpt lat="48.70932" lon="1.77392">
        <ele>167.4</ele>
        <time>2015-04-01T11:51:06.000Z</time>
      </trkpt>
      <trkpt lat="48.70923" lon="1.77378">
        <ele>167.8</ele>
        <time>2015-04-01T11:51:11.000Z</time>
      </trkpt>
      <trkpt lat="48.70917" lon="1.77366">
        <ele>168</ele>
        <time>2015-04-01T11:51:15.000Z</time>
      </trkpt>
      <trkpt lat="48.70915" lon="1.7736">
        <ele>168.1</ele>
        <time>2015-04-01T11:51:18.000Z</time>
      </trkpt>
      <trkpt lat="48.7091" lon="1.77347">
        <ele>168.3</ele>
        <time>2015-04-01T11:51:24.000Z</time>
      </trkpt>
      <trkpt lat="48.70905" lon="1.77335">
        <ele>168.4</ele>
        <time>2015-04-01T11:51:30.000Z</time>
      </trkpt>
      <trkpt lat="48.70899" lon="1.77321">
        <ele>168.6</ele>
        <time>2015-04-01T11:51:37.000Z</time>
      </trkpt>
      <trkpt lat="48.70894" lon="1.77306">
        <ele>168.8</ele>
        <time>2015-04-01T11:51:44.000Z</time>
      </trkpt>
      <trkpt lat="48.70893" lon="1.77304">
        <ele>168.8</ele>
        <time>2015-04-01T11:51:47.000Z</time>
      </trkpt>
      <trkpt lat="48.7089" lon="1.77297">
        <ele>168.9</ele>
        <time>2015-04-01T11:51:55.000Z</time>
      </trkpt>
      <trkpt lat="48.70888" lon="1.77291">
        <ele>169</ele>
        <time>2015-04-01T11:51:59.000Z</time>
      </trkpt>
      <trkpt lat="48.70886" lon="1.77283">
        <ele>169.1</ele>
        <time>2015-04-01T11:52:04.000Z</time>
      </trkpt>
      <trkpt lat="48.70882" lon="1.77272">
        <ele>169</ele>
        <time>2015-04-01T11:52:10.000Z</time>
      </trkpt>
      <trkpt lat="48.70878" lon="1.77263">
        <ele>168.8</ele>
        <time>2015-04-01T11:52:15.000Z</time>
      </trkpt>
      <trkpt lat="48.70873" lon="1.7726">
        <ele>168.9</ele>
        <time>2015-04-01T11:52:19.000Z</time>
      </trkpt>
      <trkpt lat="48.70867" lon="1.77254">
        <ele>169</ele>
        <time>2015-04-01T11:52:26.000Z</time>
      </trkpt>
      <trkpt lat="48.70861" lon="1.77253">
        <ele>169.1</ele>
        <time>2015-04-01T11:52:31.000Z</time>
      </trkpt>
      <trkpt lat="48.70853" lon="1.77255">
        <ele>169.4</ele>
        <time>2015-04-01T11:52:38.000Z</time>
      </trkpt>
      <trkpt lat="48.7084" lon="1.77254">
        <ele>169.8</ele>
        <time>2015-04-01T11:52:46.000Z</time>
      </trkpt>
      <trkpt lat="48.70838" lon="1.77254">
        <ele>169.8</ele>
        <time>2015-04-01T11:52:47.000Z</time>
      </trkpt>
      <trkpt lat="48.70828" lon="1.77254">
        <ele>170</ele>
        <time>2015-04-01T11:52:53.000Z</time>
      </trkpt>
      <trkpt lat="48.70826" lon="1.77255">
        <ele>170</ele>
        <time>2015-04-01T11:52:54.000Z</time>
      </trkpt>
      <trkpt lat="48.70819" lon="1.77256">
        <ele>170.1</ele>
        <time>2015-04-01T11:52:59.000Z</time>
      </trkpt>
      <trkpt lat="48.70812" lon="1.77257">
        <ele>170.2</ele>
        <time>2015-04-01T11:53:04.000Z</time>
      </trkpt>
      <trkpt lat="48.70804" lon="1.77256">
        <ele>170.2</ele>
        <time>2015-04-01T11:53:10.000Z</time>
      </trkpt>
      <trkpt lat="48.70798" lon="1.77256">
        <ele>170.5</ele>
        <time>2015-04-01T11:53:14.000Z</time>
      </trkpt>
      <trkpt lat="48.70787" lon="1.77257">
        <ele>170.9</ele>
        <time>2015-04-01T11:53:22.000Z</time>
      </trkpt>
      <trkpt lat="48.70777" lon="1.77258">
        <ele>171.3</ele>
        <time>2015-04-01T11:53:29.000Z</time>
      </trkpt>
      <trkpt lat="48.70775" lon="1.77259">
        <ele>171.4</ele>
        <time>2015-04-01T11:53:30.000Z</time>
      </trkpt>
      <trkpt lat="48.70764" lon="1.77262">
        <ele>171.9</ele>
        <time>2015-04-01T11:53:36.000Z</time>
      </trkpt>
      <trkpt lat="48.70761" lon="1.77263">
        <ele>172.1</ele>
        <time>2015-04-01T11:53:38.000Z</time>
      </trkpt>
      <trkpt lat="48.70751" lon="1.77265">
        <ele>172.5</ele>
        <time>2015-04-01T11:53:45.000Z</time>
      </trkpt>
      <trkpt lat="48.70748" lon="1.77265">
        <ele>172.6</ele>
        <time>2015-04-01T11:53:47.000Z</time>
      </trkpt>
      <trkpt lat="48.70741" lon="1.77265">
        <ele>172.7</ele>
        <time>2015-04-01T11:53:53.000Z</time>
      </trkpt>
      <trkpt lat="48.70739" lon="1.77265">
        <ele>172.7</ele>
        <time>2015-04-01T11:53:54.000Z</time>
      </trkpt>
      <trkpt lat="48.70729" lon="1.77268">
        <ele>172.9</ele>
        <time>2015-04-01T11:54:01.000Z</time>
      </trkpt>
      <trkpt lat="48.70727" lon="1.77268">
        <ele>172.9</ele>
        <time>2015-04-01T11:54:02.000Z</time>
      </trkpt>
      <trkpt lat="48.70719" lon="1.77265">
        <ele>173.1</ele>
        <time>2015-04-01T11:54:10.000Z</time>
      </trkpt>
      <trkpt lat="48.70709" lon="1.77262">
        <ele>173.5</ele>
        <time>2015-04-01T11:54:17.000Z</time>
      </trkpt>
      <trkpt lat="48.70703" lon="1.77261">
        <ele>173.7</ele>
        <time>2015-04-01T11:54:22.000Z</time>
      </trkpt>
      <trkpt lat="48.70694" lon="1.77259">
        <ele>174</ele>
        <time>2015-04-01T11:54:29.000Z</time>
      </trkpt>
      <trkpt lat="48.70692" lon="1.77258">
        <ele>174</ele>
        <time>2015-04-01T11:54:30.000Z</time>
      </trkpt>
      <trkpt lat="48.70682" lon="1.77256">
        <ele>174.1</ele>
        <time>2015-04-01T11:54:37.000Z</time>
      </trkpt>
      <trkpt lat="48.70674" lon="1.77255">
        <ele>174.1</ele>
        <time>2015-04-01T11:54:43.000Z</time>
      </trkpt>
      <trkpt lat="48.70666" lon="1.77253">
        <ele>174.1</ele>
        <time>2015-04-01T11:54:48.000Z</time>
      </trkpt>
      <trkpt lat="48.7066" lon="1.7725">
        <ele>174.3</ele>
        <time>2015-04-01T11:54:53.000Z</time>
      </trkpt>
      <trkpt lat="48.70656" lon="1.7725">
        <ele>174.4</ele>
        <time>2015-04-01T11:54:55.000Z</time>
      </trkpt>
      <trkpt lat="48.70649" lon="1.77249">
        <ele>174.6</ele>
        <time>2015-04-01T11:54:59.000Z</time>
      </trkpt>
      <trkpt lat="48.70643" lon="1.77248">
        <ele>174.8</ele>
        <time>2015-04-01T11:55:03.000Z</time>
      </trkpt>
      <trkpt lat="48.70628" lon="1.77254">
        <ele>175</ele>
        <time>2015-04-01T11:55:12.000Z</time>
      </trkpt>
      <trkpt lat="48.70618" lon="1.77254">
        <ele>175</ele>
        <time>2015-04-01T11:55:18.000Z</time>
      </trkpt>
      <trkpt lat="48.70608" lon="1.77252">
        <ele>175.1</ele>
        <time>2015-04-01T11:55:24.000Z</time>
      </trkpt>
      <trkpt lat="48.70598" lon="1.77248">
        <ele>175.5</ele>
        <time>2015-04-01T11:55:31.000Z</time>
      </trkpt>
      <trkpt lat="48.70587" lon="1.77246">
        <ele>175.9</ele>
        <time>2015-04-01T11:55:38.000Z</time>
      </trkpt>
      <trkpt lat="48.70579" lon="1.77246">
        <ele>176</ele>
        <time>2015-04-01T11:55:43.000Z</time>
      </trkpt>
      <trkpt lat="48.70573" lon="1.77245">
        <ele>176</ele>
        <time>2015-04-01T11:55:49.000Z</time>
      </trkpt>
      <trkpt lat="48.70565" lon="1.77245">
        <ele>176</ele>
        <time>2015-04-01T11:55:54.000Z</time>
      </trkpt>
      <trkpt lat="48.70559" lon="1.77241">
        <ele>176</ele>
        <time>2015-04-01T11:55:58.000Z</time>
      </trkpt>
      <trkpt lat="48.70553" lon="1.7724">
        <ele>176</ele>
        <time>2015-04-01T11:56:02.000Z</time>
      </trkpt>
      <trkpt lat="48.70542" lon="1.77243">
        <ele>176</ele>
        <time>2015-04-01T11:56:09.000Z</time>
      </trkpt>
      <trkpt lat="48.70533" lon="1.77244">
        <ele>176</ele>
        <time>2015-04-01T11:56:14.000Z</time>
      </trkpt>
      <trkpt lat="48.70528" lon="1.77243">
        <ele>176</ele>
        <time>2015-04-01T11:56:18.000Z</time>
      </trkpt>
      <trkpt lat="48.70521" lon="1.77243">
        <ele>176.2</ele>
        <time>2015-04-01T11:56:22.000Z</time>
      </trkpt>
      <trkpt lat="48.7051" lon="1.77242">
        <ele>176.5</ele>
        <time>2015-04-01T11:56:29.000Z</time>
      </trkpt>
      <trkpt lat="48.70499" lon="1.77239">
        <ele>176.6</ele>
        <time>2015-04-01T11:56:36.000Z</time>
      </trkpt>
      <trkpt lat="48.70494" lon="1.77238">
        <ele>176.5</ele>
        <time>2015-04-01T11:56:40.000Z</time>
      </trkpt>
      <trkpt lat="48.70483" lon="1.77238">
        <ele>176.5</ele>
        <time>2015-04-01T11:56:47.000Z</time>
      </trkpt>
      <trkpt lat="48.70478" lon="1.77236">
        <ele>176.5</ele>
        <time>2015-04-01T11:56:51.000Z</time>
      </trkpt>
      <trkpt lat="48.70465" lon="1.77234">
        <ele>176.7</ele>
        <time>2015-04-01T11:56:59.000Z</time>
      </trkpt>
      <trkpt lat="48.70454" lon="1.77234">
        <ele>176.9</ele>
        <time>2015-04-01T11:57:06.000Z</time>
      </trkpt>
      <trkpt lat="48.70443" lon="1.7724">
        <ele>177</ele>
        <time>2015-04-01T11:57:13.000Z</time>
      </trkpt>
      <trkpt lat="48.70433" lon="1.77246">
        <ele>177</ele>
        <time>2015-04-01T11:57:20.000Z</time>
      </trkpt>
      <trkpt lat="48.70421" lon="1.77252">
        <ele>177</ele>
        <time>2015-04-01T11:57:27.000Z</time>
      </trkpt>
      <trkpt lat="48.70413" lon="1.7726">
        <ele>177</ele>
        <time>2015-04-01T11:57:33.000Z</time>
      </trkpt>
      <trkpt lat="48.70405" lon="1.77268">
        <ele>177</ele>
        <time>2015-04-01T11:57:40.000Z</time>
      </trkpt>
      <trkpt lat="48.70401" lon="1.77271">
        <ele>177</ele>
        <time>2015-04-01T11:57:43.000Z</time>
      </trkpt>
      <trkpt lat="48.70393" lon="1.77277">
        <ele>177</ele>
        <time>2015-04-01T11:57:49.000Z</time>
      </trkpt>
      <trkpt lat="48.70385" lon="1.77286">
        <ele>177</ele>
        <time>2015-04-01T11:57:54.000Z</time>
      </trkpt>
      <trkpt lat="48.7038" lon="1.77292">
        <ele>177</ele>
        <time>2015-04-01T11:57:58.000Z</time>
      </trkpt>
      <trkpt lat="48.70373" lon="1.77294">
        <ele>177</ele>
        <time>2015-04-01T11:58:03.000Z</time>
      </trkpt>
      <trkpt lat="48.70366" lon="1.77282">
        <ele>177</ele>
        <time>2015-04-01T11:58:10.000Z</time>
      </trkpt>
      <trkpt lat="48.70364" lon="1.77271">
        <ele>177</ele>
        <time>2015-04-01T11:58:14.000Z</time>
      </trkpt>
      <trkpt lat="48.70363" lon="1.77254">
        <ele>177</ele>
        <time>2015-04-01T11:58:19.000Z</time>
      </trkpt>
      <trkpt lat="48.7036" lon="1.77233">
        <ele>177</ele>
        <time>2015-04-01T11:58:26.000Z</time>
      </trkpt>
      <trkpt lat="48.7036" lon="1.77219">
        <ele>177</ele>
        <time>2015-04-01T11:58:32.000Z</time>
      </trkpt>
      <trkpt lat="48.70358" lon="1.77195">
        <ele>177</ele>
        <time>2015-04-01T11:58:42.000Z</time>
      </trkpt>
      <trkpt lat="48.70356" lon="1.77179">
        <ele>177</ele>
        <time>2015-04-01T11:58:49.000Z</time>
      </trkpt>
      <trkpt lat="48.70355" lon="1.77175">
        <ele>177</ele>
        <time>2015-04-01T11:58:51.000Z</time>
      </trkpt>
      <trkpt lat="48.70354" lon="1.77173">
        <ele>177</ele>
        <time>2015-04-01T11:58:54.000Z</time>
      </trkpt>
      <trkpt lat="48.70351" lon="1.7715">
        <ele>177</ele>
        <time>2015-04-01T11:59:11.000Z</time>
      </trkpt>
      <trkpt lat="48.7035" lon="1.7714">
        <ele>177</ele>
        <time>2015-04-01T11:59:14.000Z</time>
      </trkpt>
      <trkpt lat="48.7035" lon="1.77137">
        <ele>177</ele>
        <time>2015-04-01T11:59:18.000Z</time>
      </trkpt>
      <trkpt lat="48.70349" lon="1.77119">
        <ele>177</ele>
        <time>2015-04-01T11:59:24.000Z</time>
      </trkpt>
      <trkpt lat="48.70348" lon="1.77099">
        <ele>177</ele>
        <time>2015-04-01T11:59:30.000Z</time>
      </trkpt>
      <trkpt lat="48.70346" lon="1.77083">
        <ele>177</ele>
        <time>2015-04-01T11:59:37.000Z</time>
      </trkpt>
      <trkpt lat="48.70342" lon="1.77067">
        <ele>176.8</ele>
        <time>2015-04-01T11:59:43.000Z</time>
      </trkpt>
      <trkpt lat="48.70342" lon="1.77064">
        <ele>176.8</ele>
        <time>2015-04-01T11:59:44.000Z</time>
      </trkpt>
      <trkpt lat="48.70341" lon="1.77063">
        <ele>176.8</ele>
        <time>2015-04-01T11:59:46.000Z</time>
      </trkpt>
      <trkpt lat="48.70341" lon="1.77064">
        <ele>176.8</ele>
        <time>2015-04-01T11:59:51.000Z</time>
      </trkpt>
      <trkpt lat="48.7034" lon="1.77058">
        <ele>176.8</ele>
        <time>2015-04-01T11:59:56.000Z</time>
      </trkpt>
      <trkpt lat="48.70342" lon="1.7704">
        <ele>176.3</ele>
        <time>2015-04-01T12:00:00.000Z</time>
      </trkpt>
      <trkpt lat="48.70339" lon="1.77021">
        <ele>176.2</ele>
        <time>2015-04-01T12:00:04.000Z</time>
      </trkpt>
      <trkpt lat="48.70339" lon="1.76997">
        <ele>176.8</ele>
        <time>2015-04-01T12:00:11.000Z</time>
      </trkpt>
      <trkpt lat="48.70338" lon="1.76979">
        <ele>177</ele>
        <time>2015-04-01T12:00:18.000Z</time>
      </trkpt>
      <trkpt lat="48.70338" lon="1.76972">
        <ele>177</ele>
        <time>2015-04-01T12:00:23.000Z</time>
      </trkpt>
      <trkpt lat="48.70338" lon="1.76972">
        <ele>177</ele>
        <time>2015-04-01T12:00:24.000Z</time>
      </trkpt>
      <trkpt lat="48.70337" lon="1.76962">
        <ele>177</ele>
        <time>2015-04-01T12:00:35.000Z</time>
      </trkpt>
      <trkpt lat="48.70335" lon="1.76946">
        <ele>177</ele>
        <time>2015-04-01T12:00:40.000Z</time>
      </trkpt>
      <trkpt lat="48.70333" lon="1.76928">
        <ele>176.4</ele>
        <time>2015-04-01T12:00:46.000Z</time>
      </trkpt>
      <trkpt lat="48.70333" lon="1.7691">
        <ele>176</ele>
        <time>2015-04-01T12:00:53.000Z</time>
      </trkpt>
      <trkpt lat="48.70331" lon="1.76896">
        <ele>176</ele>
        <time>2015-04-01T12:00:58.000Z</time>
      </trkpt>
      <trkpt lat="48.70331" lon="1.7688">
        <ele>176</ele>
        <time>2015-04-01T12:01:04.000Z</time>
      </trkpt>
      <trkpt lat="48.70331" lon="1.76866">
        <ele>176</ele>
        <time>2015-04-01T12:01:10.000Z</time>
      </trkpt>
      <trkpt lat="48.7033" lon="1.76841">
        <ele>175.3</ele>
        <time>2015-04-01T12:01:19.000Z</time>
      </trkpt>
      <trkpt lat="48.70328" lon="1.76817">
        <ele>175</ele>
        <time>2015-04-01T12:01:28.000Z</time>
      </trkpt>
      <trkpt lat="48.70328" lon="1.76796">
        <ele>174.6</ele>
        <time>2015-04-01T12:01:37.000Z</time>
      </trkpt>
      <trkpt lat="48.70328" lon="1.76778">
        <ele>174</ele>
        <time>2015-04-01T12:01:44.000Z</time>
      </trkpt>
      <trkpt lat="48.70326" lon="1.7676">
        <ele>174</ele>
        <time>2015-04-01T12:01:51.000Z</time>
      </trkpt>
      <trkpt lat="48.70326" lon="1.76755">
        <ele>174</ele>
        <time>2015-04-01T12:01:53.000Z</time>
      </trkpt>
      <trkpt lat="48.70325" lon="1.76733">
        <ele>173.4</ele>
        <time>2015-04-01T12:02:02.000Z</time>
      </trkpt>
      <trkpt lat="48.70324" lon="1.76714">
        <ele>172.7</ele>
        <time>2015-04-01T12:02:09.000Z</time>
      </trkpt>
      <trkpt lat="48.70324" lon="1.76712">
        <ele>172.6</ele>
        <time>2015-04-01T12:02:10.000Z</time>
      </trkpt>
      <trkpt lat="48.70323" lon="1.767">
        <ele>172.2</ele>
        <time>2015-04-01T12:02:15.000Z</time>
      </trkpt>
      <trkpt lat="48.70323" lon="1.76678">
        <ele>171.8</ele>
        <time>2015-04-01T12:02:24.000Z</time>
      </trkpt>
      <trkpt lat="48.70322" lon="1.76664">
        <ele>171.5</ele>
        <time>2015-04-01T12:02:29.000Z</time>
      </trkpt>
      <trkpt lat="48.70323" lon="1.76649">
        <ele>171</ele>
        <time>2015-04-01T12:02:37.000Z</time>
      </trkpt>
      <trkpt lat="48.70329" lon="1.76639">
        <ele>170.8</ele>
        <time>2015-04-01T12:02:44.000Z</time>
      </trkpt>
      <trkpt lat="48.7033" lon="1.76637">
        <ele>170.9</ele>
        <time>2015-04-01T12:02:45.000Z</time>
      </trkpt>
      <trkpt lat="48.70332" lon="1.76634">
        <ele>171</ele>
        <time>2015-04-01T12:02:48.000Z</time>
      </trkpt>
      <trkpt lat="48.70336" lon="1.7663">
        <ele>171.2</ele>
        <time>2015-04-01T12:02:52.000Z</time>
      </trkpt>
      <trkpt lat="48.70343" lon="1.76621">
        <ele>171.5</ele>
        <time>2015-04-01T12:02:58.000Z</time>
      </trkpt>
      <trkpt lat="48.70355" lon="1.76614">
        <ele>171.9</ele>
        <time>2015-04-01T12:03:06.000Z</time>
      </trkpt>
      <trkpt lat="48.70363" lon="1.76609">
        <ele>172.1</ele>
        <time>2015-04-01T12:03:11.000Z</time>
      </trkpt>
      <trkpt lat="48.70369" lon="1.76605">
        <ele>172.3</ele>
        <time>2015-04-01T12:03:15.000Z</time>
      </trkpt>
      <trkpt lat="48.70377" lon="1.76597">
        <ele>172.6</ele>
        <time>2015-04-01T12:03:20.000Z</time>
      </trkpt>
      <trkpt lat="48.70381" lon="1.76594">
        <ele>172.7</ele>
        <time>2015-04-01T12:03:23.000Z</time>
      </trkpt>
      <trkpt lat="48.70391" lon="1.76587">
        <ele>173</ele>
        <time>2015-04-01T12:03:30.000Z</time>
      </trkpt>
      <trkpt lat="48.70393" lon="1.76586">
        <ele>173</ele>
        <time>2015-04-01T12:03:31.000Z</time>
      </trkpt>
      <trkpt lat="48.70403" lon="1.76582">
        <ele>173</ele>
        <time>2015-04-01T12:03:37.000Z</time>
      </trkpt>
      <trkpt lat="48.7041" lon="1.76578">
        <ele>173</ele>
        <time>2015-04-01T12:03:42.000Z</time>
      </trkpt>
      <trkpt lat="48.70411" lon="1.76577">
        <ele>173</ele>
        <time>2015-04-01T12:03:43.000Z</time>
      </trkpt>
      <trkpt lat="48.70415" lon="1.76575">
        <ele>173</ele>
        <time>2015-04-01T12:03:46.000Z</time>
      </trkpt>
      <trkpt lat="48.70425" lon="1.7657">
        <ele>173.2</ele>
        <time>2015-04-01T12:03:53.000Z</time>
      </trkpt>
      <trkpt lat="48.70432" lon="1.76559">
        <ele>173.1</ele>
        <time>2015-04-01T12:03:59.000Z</time>
      </trkpt>
      <trkpt lat="48.70436" lon="1.76546">
        <ele>172.6</ele>
        <time>2015-04-01T12:04:05.000Z</time>
      </trkpt>
      <trkpt lat="48.70439" lon="1.7654">
        <ele>172.4</ele>
        <time>2015-04-01T12:04:08.000Z</time>
      </trkpt>
      <trkpt lat="48.70441" lon="1.76529">
        <ele>172</ele>
        <time>2015-04-01T12:04:13.000Z</time>
      </trkpt>
      <trkpt lat="48.70446" lon="1.76518">
        <ele>172</ele>
        <time>2015-04-01T12:04:19.000Z</time>
      </trkpt>
      <trkpt lat="48.7045" lon="1.76506">
        <ele>172</ele>
        <time>2015-04-01T12:04:25.000Z</time>
      </trkpt>
      <trkpt lat="48.70452" lon="1.76492">
        <ele>171.7</ele>
        <time>2015-04-01T12:04:30.000Z</time>
      </trkpt>
      <trkpt lat="48.70454" lon="1.76482">
        <ele>171.4</ele>
        <time>2015-04-01T12:04:34.000Z</time>
      </trkpt>
      <trkpt lat="48.70458" lon="1.76463">
        <ele>170.7</ele>
        <time>2015-04-01T12:04:42.000Z</time>
      </trkpt>
      <trkpt lat="48.70461" lon="1.76446">
        <ele>170.1</ele>
        <time>2015-04-01T12:04:48.000Z</time>
      </trkpt>
      <trkpt lat="48.70461" lon="1.76444">
        <ele>170</ele>
        <time>2015-04-01T12:04:49.000Z</time>
      </trkpt>
      <trkpt lat="48.70462" lon="1.76425">
        <ele>169.8</ele>
        <time>2015-04-01T12:04:56.000Z</time>
      </trkpt>
      <trkpt lat="48.70459" lon="1.7641">
        <ele>169.3</ele>
        <time>2015-04-01T12:05:03.000Z</time>
      </trkpt>
      <trkpt lat="48.70454" lon="1.76394">
        <ele>168.6</ele>
        <time>2015-04-01T12:05:09.000Z</time>
      </trkpt>
      <trkpt lat="48.7045" lon="1.76379">
        <ele>168.2</ele>
        <time>2015-04-01T12:05:16.000Z</time>
      </trkpt>
      <trkpt lat="48.7045" lon="1.76377">
        <ele>168.2</ele>
        <time>2015-04-01T12:05:17.000Z</time>
      </trkpt>
      <trkpt lat="48.70448" lon="1.7636">
        <ele>168.1</ele>
        <time>2015-04-01T12:05:23.000Z</time>
      </trkpt>
      <trkpt lat="48.70446" lon="1.76353">
        <ele>168</ele>
        <time>2015-04-01T12:05:26.000Z</time>
      </trkpt>
      <trkpt lat="48.70443" lon="1.76341">
        <ele>167.9</ele>
        <time>2015-04-01T12:05:31.000Z</time>
      </trkpt>
      <trkpt lat="48.70443" lon="1.76327">
        <ele>167.9</ele>
        <time>2015-04-01T12:05:36.000Z</time>
      </trkpt>
      <trkpt lat="48.70441" lon="1.76318">
        <ele>167.9</ele>
        <time>2015-04-01T12:05:41.000Z</time>
      </trkpt>
      <trkpt lat="48.70441" lon="1.76315">
        <ele>167.9</ele>
        <time>2015-04-01T12:05:42.000Z</time>
      </trkpt>
      <trkpt lat="48.70441" lon="1.76299">
        <ele>168.1</ele>
        <time>2015-04-01T12:05:48.000Z</time>
      </trkpt>
      <trkpt lat="48.70442" lon="1.76285">
        <ele>168.6</ele>
        <time>2015-04-01T12:05:54.000Z</time>
      </trkpt>
      <trkpt lat="48.70444" lon="1.76274">
        <ele>168.9</ele>
        <time>2015-04-01T12:05:59.000Z</time>
      </trkpt>
      <trkpt lat="48.70449" lon="1.76257">
        <ele>168.5</ele>
        <time>2015-04-01T12:06:06.000Z</time>
      </trkpt>
      <trkpt lat="48.70452" lon="1.7625">
        <ele>168.5</ele>
        <time>2015-04-01T12:06:10.000Z</time>
      </trkpt>
      <trkpt lat="48.70455" lon="1.7624">
        <ele>168.4</ele>
        <time>2015-04-01T12:06:14.000Z</time>
      </trkpt>
      <trkpt lat="48.70457" lon="1.76232">
        <ele>168.3</ele>
        <time>2015-04-01T12:06:18.000Z</time>
      </trkpt>
      <trkpt lat="48.70462" lon="1.7623">
        <ele>168.5</ele>
        <time>2015-04-01T12:06:23.000Z</time>
      </trkpt>
      <trkpt lat="48.70469" lon="1.76232">
        <ele>169.1</ele>
        <time>2015-04-01T12:06:32.000Z</time>
      </trkpt>
      <trkpt lat="48.7047" lon="1.76231">
        <ele>169.1</ele>
        <time>2015-04-01T12:06:36.000Z</time>
      </trkpt>
      <trkpt lat="48.70477" lon="1.76216">
        <ele>168.9</ele>
        <time>2015-04-01T12:08:07.000Z</time>
      </trkpt>
      <trkpt lat="48.70475" lon="1.76216">
        <ele>168.9</ele>
        <time>2015-04-01T12:08:09.000Z</time>
      </trkpt>
      <trkpt lat="48.70477" lon="1.76223">
        <ele>169.2</ele>
        <time>2015-04-01T12:08:16.000Z</time>
      </trkpt>
      <trkpt lat="48.70478" lon="1.76225">
        <ele>169.3</ele>
        <time>2015-04-01T12:08:21.000Z</time>
      </trkpt>
      <trkpt lat="48.70473" lon="1.76226">
        <ele>169.2</ele>
        <time>2015-04-01T12:08:26.000Z</time>
      </trkpt>
      <trkpt lat="48.70468" lon="1.76227">
        <ele>168.9</ele>
        <time>2015-04-01T12:08:31.000Z</time>
      </trkpt>
      <trkpt lat="48.70468" lon="1.76227">
        <ele>168.9</ele>
        <time>2015-04-01T12:08:33.000Z</time>
      </trkpt>
      <trkpt lat="48.70465" lon="1.76223">
        <ele>168.5</ele>
        <time>2015-04-01T12:08:48.000Z</time>
      </trkpt>
      <trkpt lat="48.70467" lon="1.76221">
        <ele>168.6</ele>
        <time>2015-04-01T12:08:49.000Z</time>
      </trkpt>
      <trkpt lat="48.70469" lon="1.76221">
        <ele>168.7</ele>
        <time>2015-04-01T12:08:51.000Z</time>
      </trkpt>
      <trkpt lat="48.70471" lon="1.76222">
        <ele>168.9</ele>
        <time>2015-04-01T12:08:55.000Z</time>
      </trkpt>
      <trkpt lat="48.70477" lon="1.76222">
        <ele>169.1</ele>
        <time>2015-04-01T12:09:06.000Z</time>
      </trkpt>
      <trkpt lat="48.70478" lon="1.76222">
        <ele>169.2</ele>
        <time>2015-04-01T12:09:08.000Z</time>
      </trkpt>
      <trkpt lat="48.70479" lon="1.76222">
        <ele>169.2</ele>
        <time>2015-04-01T12:09:16.000Z</time>
      </trkpt>
      <trkpt lat="48.70494" lon="1.76218">
        <ele>169.6</ele>
        <time>2015-04-01T12:09:41.000Z</time>
      </trkpt>
      <trkpt lat="48.70496" lon="1.7622">
        <ele>169.8</ele>
        <time>2015-04-01T12:09:43.000Z</time>
      </trkpt>
      <trkpt lat="48.70498" lon="1.76221">
        <ele>169.9</ele>
        <time>2015-04-01T12:09:44.000Z</time>
      </trkpt>
      <trkpt lat="48.70504" lon="1.76226">
        <ele>170</ele>
        <time>2015-04-01T12:09:51.000Z</time>
      </trkpt>
      <trkpt lat="48.70509" lon="1.76229">
        <ele>170.1</ele>
        <time>2015-04-01T12:09:56.000Z</time>
      </trkpt>
      <trkpt lat="48.7051" lon="1.76229">
        <ele>170.1</ele>
        <time>2015-04-01T12:09:57.000Z</time>
      </trkpt>
      <trkpt lat="48.70516" lon="1.76231">
        <ele>170.2</ele>
        <time>2015-04-01T12:10:02.000Z</time>
      </trkpt>
      <trkpt lat="48.70517" lon="1.76232">
        <ele>170.2</ele>
        <time>2015-04-01T12:10:03.000Z</time>
      </trkpt>
      <trkpt lat="48.70521" lon="1.76238">
        <ele>170.4</ele>
        <time>2015-04-01T12:10:09.000Z</time>
      </trkpt>
      <trkpt lat="48.70524" lon="1.76238">
        <ele>170.5</ele>
        <time>2015-04-01T12:10:12.000Z</time>
      </trkpt>
      <trkpt lat="48.7053" lon="1.76243">
        <ele>170.8</ele>
        <time>2015-04-01T12:10:18.000Z</time>
      </trkpt>
      <trkpt lat="48.70535" lon="1.76247">
        <ele>171.2</ele>
        <time>2015-04-01T12:10:23.000Z</time>
      </trkpt>
      <trkpt lat="48.70541" lon="1.76252">
        <ele>171.5</ele>
        <time>2015-04-01T12:10:30.000Z</time>
      </trkpt>
      <trkpt lat="48.7054" lon="1.76252">
        <ele>171.4</ele>
        <time>2015-04-01T12:10:35.000Z</time>
      </trkpt>
      <trkpt lat="48.70546" lon="1.76262">
        <ele>171.6</ele>
        <time>2015-04-01T12:10:47.000Z</time>
      </trkpt>
      <trkpt lat="48.70547" lon="1.76266">
        <ele>171.7</ele>
        <time>2015-04-01T12:10:51.000Z</time>
      </trkpt>
      <trkpt lat="48.70537" lon="1.76262">
        <ele>171.3</ele>
        <time>2015-04-01T12:11:58.000Z</time>
      </trkpt>
      <trkpt lat="48.70537" lon="1.76261">
        <ele>171.3</ele>
        <time>2015-04-01T12:11:59.000Z</time>
      </trkpt>
      <trkpt lat="48.70534" lon="1.76256">
        <ele>171.2</ele>
        <time>2015-04-01T12:12:02.000Z</time>
      </trkpt>
      <trkpt lat="48.70527" lon="1.76247">
        <ele>170.9</ele>
        <time>2015-04-01T12:12:11.000Z</time>
      </trkpt>
      <trkpt lat="48.7052" lon="1.76243">
        <ele>170.5</ele>
        <time>2015-04-01T12:12:18.000Z</time>
      </trkpt>
      <trkpt lat="48.70515" lon="1.76237">
        <ele>170.3</ele>
        <time>2015-04-01T12:12:24.000Z</time>
      </trkpt>
      <trkpt lat="48.70509" lon="1.76231">
        <ele>170.1</ele>
        <time>2015-04-01T12:12:31.000Z</time>
      </trkpt>
      <trkpt lat="48.70508" lon="1.76226">
        <ele>170</ele>
        <time>2015-04-01T12:12:36.000Z</time>
      </trkpt>
      <trkpt lat="48.70508" lon="1.76226">
        <ele>170</ele>
        <time>2015-04-01T12:12:37.000Z</time>
      </trkpt>
      <trkpt lat="48.70499" lon="1.76219">
        <ele>169.8</ele>
        <time>2015-04-01T12:13:03.000Z</time>
      </trkpt>
      <trkpt lat="48.70495" lon="1.76217">
        <ele>169.7</ele>
        <time>2015-04-01T12:13:04.000Z</time>
      </trkpt>
      <trkpt lat="48.7049" lon="1.76211">
        <ele>169.3</ele>
        <time>2015-04-01T12:13:11.000Z</time>
      </trkpt>
      <trkpt lat="48.7049" lon="1.7621">
        <ele>169.2</ele>
        <time>2015-04-01T12:13:12.000Z</time>
      </trkpt>
      <trkpt lat="48.70489" lon="1.76201">
        <ele>168.8</ele>
        <time>2015-04-01T12:13:18.000Z</time>
      </trkpt>
      <trkpt lat="48.70489" lon="1.762">
        <ele>168.8</ele>
        <time>2015-04-01T12:13:23.000Z</time>
      </trkpt>
      <trkpt lat="48.70473" lon="1.76223">
        <ele>169</ele>
        <time>2015-04-01T12:13:59.000Z</time>
      </trkpt>
      <trkpt lat="48.70469" lon="1.76224">
        <ele>168.8</ele>
        <time>2015-04-01T12:14:03.000Z</time>
      </trkpt>
      <trkpt lat="48.70469" lon="1.76224">
        <ele>168.8</ele>
        <time>2015-04-01T12:14:05.000Z</time>
      </trkpt>
      <trkpt lat="48.70475" lon="1.76215">
        <ele>168.9</ele>
        <time>2015-04-01T12:14:34.000Z</time>
      </trkpt>
      <trkpt lat="48.70478" lon="1.76216">
        <ele>169</ele>
        <time>2015-04-01T12:14:38.000Z</time>
      </trkpt>
      <trkpt lat="48.7048" lon="1.76216">
        <ele>169</ele>
        <time>2015-04-01T12:14:46.000Z</time>
      </trkpt>
      <trkpt lat="48.70481" lon="1.76216">
        <ele>169.1</ele>
        <time>2015-04-01T12:14:47.000Z</time>
      </trkpt>
      <trkpt lat="48.70484" lon="1.76219">
        <ele>169.3</ele>
        <time>2015-04-01T12:14:54.000Z</time>
      </trkpt>
      <trkpt lat="48.70477" lon="1.76215">
        <ele>168.9</ele>
        <time>2015-04-01T12:15:03.000Z</time>
      </trkpt>
      <trkpt lat="48.70476" lon="1.76215">
        <ele>168.9</ele>
        <time>2015-04-01T12:15:11.000Z</time>
      </trkpt>
      <trkpt lat="48.70473" lon="1.76217">
        <ele>168.8</ele>
        <time>2015-04-01T12:15:15.000Z</time>
      </trkpt>
      <trkpt lat="48.70469" lon="1.76219">
        <ele>168.7</ele>
        <time>2015-04-01T12:15:20.000Z</time>
      </trkpt>
      <trkpt lat="48.70468" lon="1.76224">
        <ele>168.7</ele>
        <time>2015-04-01T12:15:24.000Z</time>
      </trkpt>
      <trkpt lat="48.70466" lon="1.76225">
        <ele>168.7</ele>
        <time>2015-04-01T12:15:29.000Z</time>
      </trkpt>
      <trkpt lat="48.70466" lon="1.76214">
        <ele>168.3</ele>
        <time>2015-04-01T12:16:30.000Z</time>
      </trkpt>
      <trkpt lat="48.70466" lon="1.76213">
        <ele>168.3</ele>
        <time>2015-04-01T12:16:32.000Z</time>
      </trkpt>
      <trkpt lat="48.70456" lon="1.76206">
        <ele>167.6</ele>
        <time>2015-04-01T12:17:06.000Z</time>
      </trkpt>
      <trkpt lat="48.70455" lon="1.762">
        <ele>167.5</ele>
        <time>2015-04-01T12:17:10.000Z</time>
      </trkpt>
      <trkpt lat="48.70451" lon="1.76189">
        <ele>167.3</ele>
        <time>2015-04-01T12:17:17.000Z</time>
      </trkpt>
      <trkpt lat="48.70451" lon="1.76182">
        <ele>167.2</ele>
        <time>2015-04-01T12:17:22.000Z</time>
      </trkpt>
      <trkpt lat="48.70447" lon="1.76172">
        <ele>167.1</ele>
        <time>2015-04-01T12:17:28.000Z</time>
      </trkpt>
      <trkpt lat="48.70448" lon="1.76169">
        <ele>167.1</ele>
        <time>2015-04-01T12:17:30.000Z</time>
      </trkpt>
      <trkpt lat="48.70447" lon="1.76164">
        <ele>167.1</ele>
        <time>2015-04-01T12:17:33.000Z</time>
      </trkpt>
      <trkpt lat="48.70451" lon="1.7616">
        <ele>167.2</ele>
        <time>2015-04-01T12:17:37.000Z</time>
      </trkpt>
      <trkpt lat="48.70456" lon="1.76144">
        <ele>167.4</ele>
        <time>2015-04-01T12:17:44.000Z</time>
      </trkpt>
      <trkpt lat="48.70457" lon="1.76129">
        <ele>167.6</ele>
        <time>2015-04-01T12:17:50.000Z</time>
      </trkpt>
      <trkpt lat="48.70457" lon="1.76112">
        <ele>168</ele>
        <time>2015-04-01T12:17:57.000Z</time>
      </trkpt>
      <trkpt lat="48.70459" lon="1.76102">
        <ele>168</ele>
        <time>2015-04-01T12:18:01.000Z</time>
      </trkpt>
      <trkpt lat="48.7046" lon="1.76087">
        <ele>168</ele>
        <time>2015-04-01T12:18:07.000Z</time>
      </trkpt>
      <trkpt lat="48.70461" lon="1.76078">
        <ele>168.2</ele>
        <time>2015-04-01T12:18:11.000Z</time>
      </trkpt>
      <trkpt lat="48.70463" lon="1.76072">
        <ele>168.4</ele>
        <time>2015-04-01T12:18:15.000Z</time>
      </trkpt>
      <trkpt lat="48.70464" lon="1.76068">
        <ele>168.5</ele>
        <time>2015-04-01T12:18:17.000Z</time>
      </trkpt>
      <trkpt lat="48.70466" lon="1.76058">
        <ele>168.9</ele>
        <time>2015-04-01T12:18:22.000Z</time>
      </trkpt>
      <trkpt lat="48.70469" lon="1.76049">
        <ele>169</ele>
        <time>2015-04-01T12:18:28.000Z</time>
      </trkpt>
      <trkpt lat="48.70473" lon="1.7604">
        <ele>169</ele>
        <time>2015-04-01T12:18:35.000Z</time>
      </trkpt>
      <trkpt lat="48.70477" lon="1.76027">
        <ele>169</ele>
        <time>2015-04-01T12:18:42.000Z</time>
      </trkpt>
      <trkpt lat="48.70482" lon="1.76013">
        <ele>169.4</ele>
        <time>2015-04-01T12:18:50.000Z</time>
      </trkpt>
      <trkpt lat="48.70483" lon="1.76007">
        <ele>169.4</ele>
        <time>2015-04-01T12:18:53.000Z</time>
      </trkpt>
      <trkpt lat="48.70485" lon="1.75996">
        <ele>169.6</ele>
        <time>2015-04-01T12:19:00.000Z</time>
      </trkpt>
      <trkpt lat="48.70487" lon="1.75993">
        <ele>169.6</ele>
        <time>2015-04-01T12:19:02.000Z</time>
      </trkpt>
      <trkpt lat="48.70492" lon="1.75981">
        <ele>169.8</ele>
        <time>2015-04-01T12:19:08.000Z</time>
      </trkpt>
      <trkpt lat="48.70496" lon="1.75975">
        <ele>169.9</ele>
        <time>2015-04-01T12:19:12.000Z</time>
      </trkpt>
      <trkpt lat="48.70501" lon="1.75971">
        <ele>170</ele>
        <time>2015-04-01T12:19:15.000Z</time>
      </trkpt>
      <trkpt lat="48.70505" lon="1.75964">
        <ele>169.9</ele>
        <time>2015-04-01T12:19:19.000Z</time>
      </trkpt>
      <trkpt lat="48.7051" lon="1.75952">
        <ele>169.9</ele>
        <time>2015-04-01T12:19:27.000Z</time>
      </trkpt>
      <trkpt lat="48.70514" lon="1.75945">
        <ele>170</ele>
        <time>2015-04-01T12:19:33.000Z</time>
      </trkpt>
      <trkpt lat="48.70517" lon="1.75939">
        <ele>170.1</ele>
        <time>2015-04-01T12:19:37.000Z</time>
      </trkpt>
      <trkpt lat="48.70525" lon="1.7593">
        <ele>170.1</ele>
        <time>2015-04-01T12:19:44.000Z</time>
      </trkpt>
      <trkpt lat="48.70532" lon="1.75911">
        <ele>170.2</ele>
        <time>2015-04-01T12:19:54.000Z</time>
      </trkpt>
      <trkpt lat="48.70535" lon="1.75904">
        <ele>170.5</ele>
        <time>2015-04-01T12:19:58.000Z</time>
      </trkpt>
      <trkpt lat="48.7054" lon="1.75889">
        <ele>171</ele>
        <time>2015-04-01T12:20:07.000Z</time>
      </trkpt>
      <trkpt lat="48.70546" lon="1.75881">
        <ele>171</ele>
        <time>2015-04-01T12:20:13.000Z</time>
      </trkpt>
      <trkpt lat="48.70546" lon="1.7588">
        <ele>171</ele>
        <time>2015-04-01T12:20:14.000Z</time>
      </trkpt>
      <trkpt lat="48.70549" lon="1.7587">
        <ele>171</ele>
        <time>2015-04-01T12:20:19.000Z</time>
      </trkpt>
      <trkpt lat="48.7055" lon="1.75865">
        <ele>171</ele>
        <time>2015-04-01T12:20:21.000Z</time>
      </trkpt>
      <trkpt lat="48.70553" lon="1.75852">
        <ele>171</ele>
        <time>2015-04-01T12:20:28.000Z</time>
      </trkpt>
      <trkpt lat="48.70554" lon="1.75848">
        <ele>171</ele>
        <time>2015-04-01T12:20:30.000Z</time>
      </trkpt>
      <trkpt lat="48.70558" lon="1.75841">
        <ele>171</ele>
        <time>2015-04-01T12:20:34.000Z</time>
      </trkpt>
      <trkpt lat="48.70561" lon="1.75834">
        <ele>171</ele>
        <time>2015-04-01T12:20:38.000Z</time>
      </trkpt>
      <trkpt lat="48.70567" lon="1.75823">
        <ele>171.4</ele>
        <time>2015-04-01T12:20:46.000Z</time>
      </trkpt>
      <trkpt lat="48.70569" lon="1.75819">
        <ele>171.5</ele>
        <time>2015-04-01T12:20:49.000Z</time>
      </trkpt>
      <trkpt lat="48.70575" lon="1.75808">
        <ele>171.9</ele>
        <time>2015-04-01T12:20:57.000Z</time>
      </trkpt>
      <trkpt lat="48.70579" lon="1.75801">
        <ele>172</ele>
        <time>2015-04-01T12:21:01.000Z</time>
      </trkpt>
      <trkpt lat="48.70584" lon="1.75792">
        <ele>172</ele>
        <time>2015-04-01T12:21:07.000Z</time>
      </trkpt>
      <trkpt lat="48.7059" lon="1.75785">
        <ele>171.9</ele>
        <time>2015-04-01T12:21:13.000Z</time>
      </trkpt>
      <trkpt lat="48.70595" lon="1.75779">
        <ele>172</ele>
        <time>2015-04-01T12:21:18.000Z</time>
      </trkpt>
      <trkpt lat="48.70606" lon="1.75769">
        <ele>172</ele>
        <time>2015-04-01T12:21:26.000Z</time>
      </trkpt>
      <trkpt lat="48.70609" lon="1.75763">
        <ele>172</ele>
        <time>2015-04-01T12:21:30.000Z</time>
      </trkpt>
      <trkpt lat="48.7061" lon="1.75759">
        <ele>172</ele>
        <time>2015-04-01T12:21:33.000Z</time>
      </trkpt>
      <trkpt lat="48.70614" lon="1.75748">
        <ele>172</ele>
        <time>2015-04-01T12:21:39.000Z</time>
      </trkpt>
      <trkpt lat="48.70615" lon="1.75747">
        <ele>172</ele>
        <time>2015-04-01T12:21:40.000Z</time>
      </trkpt>
      <trkpt lat="48.70617" lon="1.75739">
        <ele>172</ele>
        <time>2015-04-01T12:21:45.000Z</time>
      </trkpt>
      <trkpt lat="48.7062" lon="1.75734">
        <ele>172</ele>
        <time>2015-04-01T12:21:49.000Z</time>
      </trkpt>
      <trkpt lat="48.70623" lon="1.75727">
        <ele>172</ele>
        <time>2015-04-01T12:21:53.000Z</time>
      </trkpt>
      <trkpt lat="48.70626" lon="1.75724">
        <ele>172</ele>
        <time>2015-04-01T12:21:57.000Z</time>
      </trkpt>
      <trkpt lat="48.7063" lon="1.75716">
        <ele>172</ele>
        <time>2015-04-01T12:22:02.000Z</time>
      </trkpt>
      <trkpt lat="48.70631" lon="1.75709">
        <ele>172</ele>
        <time>2015-04-01T12:22:08.000Z</time>
      </trkpt>
      <trkpt lat="48.70633" lon="1.75709">
        <ele>172</ele>
        <time>2015-04-01T12:22:13.000Z</time>
      </trkpt>
      <trkpt lat="48.70634" lon="1.75708">
        <ele>172</ele>
        <time>2015-04-01T12:22:17.000Z</time>
      </trkpt>
      <trkpt lat="48.70637" lon="1.75697">
        <ele>172</ele>
        <time>2015-04-01T12:22:31.000Z</time>
      </trkpt>
      <trkpt lat="48.70639" lon="1.75688">
        <ele>172.2</ele>
        <time>2015-04-01T12:22:35.000Z</time>
      </trkpt>
      <trkpt lat="48.7064" lon="1.75685">
        <ele>172.3</ele>
        <time>2015-04-01T12:22:37.000Z</time>
      </trkpt>
      <trkpt lat="48.7064" lon="1.75682">
        <ele>172.4</ele>
        <time>2015-04-01T12:22:39.000Z</time>
      </trkpt>
      <trkpt lat="48.70641" lon="1.7567">
        <ele>172.8</ele>
        <time>2015-04-01T12:22:45.000Z</time>
      </trkpt>
      <trkpt lat="48.7064" lon="1.75663">
        <ele>173</ele>
        <time>2015-04-01T12:22:50.000Z</time>
      </trkpt>
      <trkpt lat="48.70639" lon="1.7566">
        <ele>173</ele>
        <time>2015-04-01T12:22:55.000Z</time>
      </trkpt>
      <trkpt lat="48.70641" lon="1.75659">
        <ele>172.9</ele>
        <time>2015-04-01T12:23:00.000Z</time>
      </trkpt>
      <trkpt lat="48.70641" lon="1.75658">
        <ele>172.9</ele>
        <time>2015-04-01T12:23:01.000Z</time>
      </trkpt>
      <trkpt lat="48.70642" lon="1.75638">
        <ele>172.9</ele>
        <time>2015-04-01T12:23:34.000Z</time>
      </trkpt>
      <trkpt lat="48.70642" lon="1.75633">
        <ele>172.7</ele>
        <time>2015-04-01T12:23:35.000Z</time>
      </trkpt>
      <trkpt lat="48.70644" lon="1.75624">
        <ele>172.5</ele>
        <time>2015-04-01T12:23:40.000Z</time>
      </trkpt>
      <trkpt lat="48.70644" lon="1.75614">
        <ele>172.2</ele>
        <time>2015-04-01T12:23:45.000Z</time>
      </trkpt>
      <trkpt lat="48.70648" lon="1.75605">
        <ele>172.3</ele>
        <time>2015-04-01T12:23:50.000Z</time>
      </trkpt>
      <trkpt lat="48.70653" lon="1.7559">
        <ele>172.5</ele>
        <time>2015-04-01T12:23:58.000Z</time>
      </trkpt>
      <trkpt lat="48.70654" lon="1.75589">
        <ele>172.5</ele>
        <time>2015-04-01T12:23:59.000Z</time>
      </trkpt>
      <trkpt lat="48.70658" lon="1.75577">
        <ele>172.8</ele>
        <time>2015-04-01T12:24:06.000Z</time>
      </trkpt>
      <trkpt lat="48.70664" lon="1.75567">
        <ele>173</ele>
        <time>2015-04-01T12:24:14.000Z</time>
      </trkpt>
      <trkpt lat="48.70667" lon="1.75561">
        <ele>173</ele>
        <time>2015-04-01T12:24:18.000Z</time>
      </trkpt>
      <trkpt lat="48.7067" lon="1.7556">
        <ele>173</ele>
        <time>2015-04-01T12:24:23.000Z</time>
      </trkpt>
      <trkpt lat="48.70671" lon="1.75556">
        <ele>173</ele>
        <time>2015-04-01T12:24:26.000Z</time>
      </trkpt>
      <trkpt lat="48.70675" lon="1.75546">
        <ele>173</ele>
        <time>2015-04-01T12:24:32.000Z</time>
      </trkpt>
      <trkpt lat="48.70679" lon="1.75536">
        <ele>173</ele>
        <time>2015-04-01T12:24:38.000Z</time>
      </trkpt>
      <trkpt lat="48.70685" lon="1.75528">
        <ele>173</ele>
        <time>2015-04-01T12:24:44.000Z</time>
      </trkpt>
      <trkpt lat="48.70689" lon="1.75522">
        <ele>173</ele>
        <time>2015-04-01T12:24:48.000Z</time>
      </trkpt>
      <trkpt lat="48.70692" lon="1.75515">
        <ele>173</ele>
        <time>2015-04-01T12:24:53.000Z</time>
      </trkpt>
      <trkpt lat="48.70694" lon="1.7551">
        <ele>173</ele>
        <time>2015-04-01T12:24:57.000Z</time>
      </trkpt>
      <trkpt lat="48.70695" lon="1.75506">
        <ele>173</ele>
        <time>2015-04-01T12:24:59.000Z</time>
      </trkpt>
      <trkpt lat="48.70698" lon="1.75491">
        <ele>173</ele>
        <time>2015-04-01T12:25:08.000Z</time>
      </trkpt>
      <trkpt lat="48.70697" lon="1.75491">
        <ele>173</ele>
        <time>2015-04-01T12:25:11.000Z</time>
      </trkpt>
      <trkpt lat="48.70693" lon="1.75486">
        <ele>173</ele>
        <time>2015-04-01T12:25:15.000Z</time>
      </trkpt>
      <trkpt lat="48.70692" lon="1.75485">
        <ele>173</ele>
        <time>2015-04-01T12:25:16.000Z</time>
      </trkpt>
      <trkpt lat="48.70692" lon="1.75481">
        <ele>173</ele>
        <time>2015-04-01T12:25:21.000Z</time>
      </trkpt>
      <trkpt lat="48.70692" lon="1.75481">
        <ele>173</ele>
        <time>2015-04-01T12:25:23.000Z</time>
      </trkpt>
    </trkseg>
  </trk>
</gpx>